GEFSCGP_prec_meanprecacc_006.txt.gz
Total_Precipitation_Accumulation
0.00 0.00 0.00 0.00 0.00 0.00 0.00 0.00 0.00 0.00 0.00 0.00 0.00 0.00 0.00 0.00 0.00 0.00 0.00 0.00 0.00 0.00 0.00 0.00 0.00 0.02 0.07 0.16 0.14 0.12 0.13 0.07 0.03 0.02 0.01 0.00 0.00 0.00 0.00 0.00 0.00 0.00 0.00 0.00
0.00 0.00 0.00 0.00 0.00 0.00 0.00 0.00 0.00 0.00 0.00 0.00 0.00 0.00 0.00 0.00 0.00 0.00 0.00 0.00 0.00 0.00 0.00 0.00 0.01 0.03 0.05 0.12 0.17 0.17 0.15 0.07 0.03 0.02 0.01 0.00 0.00 0.00 0.00 0.00 0.00 0.00 0.00 0.00
0.00 0.00 0.00 0.00 0.00 0.00 0.00 0.00 0.00 0.00 0.00 0.00 0.00 0.00 0.00 0.00 0.00 0.00 0.00 0.00 0.00 0.00 0.00 0.00 0.00 0.01 0.04 0.11 0.21 0.21 0.14 0.07 0.03 0.01 0.00 0.00 0.00 0.00 0.00 0.01 0.01 0.01 0.01 0.00
0.00 0.00 0.00 0.00 0.00 0.00 0.00 0.00 0.00 0.00 0.00 0.00 0.00 0.00 0.00 0.00 0.00 0.00 0.00 0.00 0.00 0.00 0.00 0.00 0.00 0.01 0.05 0.13 0.17 0.15 0.08 0.03 0.01 0.00 0.00 0.00 0.00 0.01 0.02 0.02 0.01 0.00 0.00 0.00
0.00 0.00 0.00 0.00 0.00 0.00 0.00 0.00 0.00 0.00 0.00 0.00 0.00 0.00 0.00 0.00 0.00 0.00 0.00 0.00 0.00 0.00 0.00 0.00 0.00 0.02 0.04 0.06 0.07 0.05 0.03 0.02 0.01 0.01 0.02 0.03 0.04 0.04 0.02 0.01 0.00 0.00 0.00 0.00
0.00 0.00 0.00 0.00 0.00 0.00 0.00 0.00 0.00 0.00 0.00 0.00 0.00 0.00 0.00 0.00 0.00 0.00 0.00 0.00 0.00 0.00 0.00 0.00 0.00 0.00 0.01 0.01 0.01 0.01 0.02 0.02 0.02 0.02 0.03 0.03 0.02 0.01 0.00 0.00 0.00 0.00 0.00 0.00
0.00 0.00 0.00 0.00 0.00 0.00 0.00 0.00 0.00 0.00 0.00 0.00 0.00 0.00 0.00 0.00 0.00 0.00 0.00 0.00 0.00 0.00 0.00 0.00 0.00 0.00 0.00 0.00 0.00 0.01 0.00 0.00 0.00 0.00 0.00 0.00 0.00 0.00 0.00 0.00 0.00 0.00 0.00 0.00
0.00 0.00 0.00 0.00 0.00 0.00 0.00 0.00 0.00 0.00 0.00 0.00 0.00 0.00 0.00 0.00 0.00 0.00 0.00 0.00 0.00 0.00 0.00 0.00 0.00 0.00 0.00 0.00 0.00 0.00 0.00 0.00 0.00 0.00 0.00 0.00 0.00 0.00 0.00 0.00 0.00 0.00 0.00 0.00
0.00 0.00 0.00 0.00 0.00 0.00 0.00 0.00 0.00 0.00 0.00 0.00 0.00 0.00 0.00 0.00 0.00 0.00 0.00 0.00 0.00 0.00 0.00 0.00 0.00 0.00 0.00 0.00 0.00 0.00 0.00 0.00 0.00 0.00 0.00 0.00 0.00 0.00 0.00 0.00 0.00 0.00 0.00 0.00
0.00 0.00 0.00 0.00 0.00 0.00 0.00 0.00 0.00 0.00 0.00 0.00 0.00 0.00 0.00 0.00 0.00 0.00 0.00 0.00 0.00 0.00 0.00 0.00 0.00 0.00 0.00 0.00 0.00 0.00 0.00 0.00 0.00 0.00 0.00 0.00 0.00 0.00 0.00 0.00 0.00 0.00 0.00 0.00
0.00 0.00 0.00 0.00 0.00 0.00 0.00 0.00 0.00 0.00 0.00 0.00 0.00 0.00 0.00 0.00 0.00 0.00 0.00 0.00 0.00 0.00 0.00 0.00 0.00 0.00 0.00 0.00 0.00 0.00 0.00 0.00 0.00 0.00 0.00 0.00 0.00 0.00 0.00 0.00 0.00 0.00 0.00 0.00
0.00 0.00 0.00 0.00 0.00 0.00 0.00 0.00 0.00 0.00 0.00 0.00 0.00 0.00 0.00 0.00 0.00 0.00 0.00 0.00 0.00 0.00 0.00 0.00 0.00 0.00 0.00 0.00 0.00 0.00 0.00 0.00 0.00 0.00 0.00 0.00 0.00 0.00 0.00 0.00 0.00 0.00 0.01 0.01
0.00 0.00 0.00 0.00 0.00 0.00 0.00 0.00 0.00 0.00 0.00 0.00 0.00 0.00 0.00 0.00 0.00 0.00 0.00 0.00 0.00 0.00 0.00 0.00 0.00 0.00 0.00 0.00 0.00 0.00 0.00 0.00 0.00 0.00 0.00 0.00 0.00 0.00 0.00 0.01 0.01 0.01 0.01 0.02
0.00 0.00 0.00 0.00 0.00 0.00 0.00 0.00 0.00 0.00 0.00 0.00 0.00 0.00 0.00 0.00 0.00 0.00 0.00 0.00 0.00 0.00 0.00 0.00 0.00 0.00 0.00 0.00 0.00 0.00 0.00 0.00 0.00 0.00 0.00 0.00 0.01 0.01 0.01 0.01 0.01 0.02 0.02 0.03
0.00 0.00 0.00 0.00 0.00 0.00 0.00 0.00 0.00 0.00 0.00 0.00 0.00 0.00 0.00 0.00 0.00 0.00 0.00 0.00 0.00 0.00 0.00 0.00 0.00 0.00 0.00 0.00 0.00 0.00 0.00 0.00 0.00 0.00 0.00 0.01 0.01 0.02 0.02 0.02 0.03 0.03 0.03 0.03
0.00 0.00 0.00 0.00 0.00 0.00 0.00 0.00 0.00 0.00 0.00 0.00 0.00 0.00 0.00 0.00 0.00 0.00 0.00 0.00 0.00 0.00 0.00 0.00 0.00 0.00 0.00 0.00 0.00 0.00 0.00 0.00 0.00 0.01 0.02 0.03 0.03 0.03 0.03 0.03 0.04 0.03 0.02 0.02
0.00 0.00 0.00 0.00 0.00 0.00 0.00 0.00 0.00 0.00 0.00 0.00 0.00 0.00 0.00 0.00 0.00 0.00 0.00 0.00 0.00 0.00 0.00 0.00 0.00 0.00 0.00 0.00 0.00 0.00 0.00 0.00 0.01 0.02 0.03 0.03 0.03 0.03 0.03 0.03 0.03 0.02 0.01 0.01
0.00 0.00 0.00 0.00 0.00 0.00 0.00 0.00 0.00 0.00 0.00 0.00 0.00 0.00 0.00 0.00 0.00 0.00 0.00 0.00 0.00 0.00 0.00 0.00 0.00 0.00 0.00 0.00 0.00 0.00 0.00 0.01 0.01 0.02 0.02 0.02 0.02 0.02 0.02 0.02 0.01 0.01 0.00 0.00
0.00 0.00 0.00 0.00 0.00 0.00 0.00 0.00 0.00 0.00 0.00 0.00 0.00 0.00 0.00 0.00 0.00 0.00 0.00 0.00 0.00 0.00 0.00 0.00 0.00 0.00 0.00 0.00 0.00 0.00 0.01 0.01 0.01 0.01 0.02 0.01 0.01 0.01 0.01 0.00 0.00 0.00 0.00 0.00
0.00 0.00 0.00 0.00 0.00 0.00 0.00 0.00 0.00 0.00 0.00 0.00 0.00 0.00 0.00 0.00 0.00 0.00 0.00 0.00 0.00 0.00 0.00 0.00 0.00 0.00 0.00 0.00 0.00 0.00 0.01 0.01 0.01 0.01 0.01 0.00 0.00 0.00 0.00 0.00 0.00 0.00 0.00 0.00
0.00 0.00 0.00 0.00 0.00 0.00 0.00 0.00 0.00 0.00 0.00 0.00 0.00 0.00 0.00 0.00 0.00 0.00 0.00 0.00 0.00 0.00 0.00 0.00 0.00 0.00 0.00 0.00 0.00 0.00 0.00 0.00 0.00 0.00 0.00 0.00 0.00 0.00 0.00 0.00 0.00 0.00 0.00 0.00
0.01 0.00 0.00 0.00 0.00 0.00 0.00 0.00 0.00 0.00 0.00 0.00 0.00 0.00 0.00 0.00 0.00 0.00 0.00 0.00 0.00 0.00 0.00 0.00 0.00 0.00 0.00 0.00 0.00 0.00 0.00 0.00 0.00 0.00 0.00 0.00 0.00 0.00 0.00 0.00 0.00 0.00 0.00 0.00
0.00 0.00 0.00 0.00 0.00 0.00 0.00 0.00 0.00 0.00 0.00 0.00 0.00 0.00 0.00 0.00 0.00 0.00 0.00 0.00 0.00 0.00 0.00 0.00 0.00 0.00 0.00 0.00 0.00 0.00 0.00 0.00 0.00 0.00 0.00 0.00 0.00 0.00 0.00 0.00 0.00 0.00 0.00 0.00
0.00 0.00 0.00 0.00 0.00 0.00 0.00 0.00 0.00 0.00 0.00 0.00 0.00 0.00 0.00 0.00 0.00 0.00 0.00 0.00 0.00 0.00 0.00 0.00 0.00 0.00 0.00 0.00 0.00 0.00 0.00 0.00 0.00 0.00 0.00 0.00 0.00 0.00 0.00 0.00 0.00 0.00 0.00 0.00
0.00 0.00 0.00 0.00 0.00 0.00 0.00 0.00 0.00 0.00 0.00 0.00 0.00 0.00 0.00 0.00 0.00 0.00 0.00 0.00 0.00 0.00 0.00 0.00 0.00 0.00 0.00 0.00 0.00 0.00 0.00 0.00 0.00 0.00 0.00 0.00 0.00 0.00 0.00 0.00 0.00 0.00 0.00 0.00
0.00 0.00 0.00 0.00 0.00 0.00 0.00 0.00 0.00 0.00 0.00 0.00 0.00 0.00 0.00 0.00 0.00 0.00 0.00 0.00 0.00 0.00 0.00 0.00 0.00 0.00 0.00 0.00 0.00 0.00 0.00 0.00 0.00 0.00 0.00 0.00 0.00 0.00 0.00 0.00 0.00 0.00 0.00 0.00

GEFSCGP_prec_meanprecacc_012.txt.gz
Total_Precipitation_Accumulation
0.00 0.00 0.00 0.00 0.00 0.00 0.00 0.00 0.00 0.00 0.00 0.00 0.00 0.00 0.00 0.00 0.00 0.00 0.00 0.00 0.00 0.00 0.02 0.04 0.11 0.18 0.36 0.63 0.58 0.45 0.33 0.18 0.08 0.06 0.04 0.02 0.01 0.00 0.00 0.00 0.00 0.00 0.00 0.01
0.00 0.00 0.00 0.00 0.00 0.00 0.00 0.00 0.00 0.00 0.00 0.00 0.00 0.00 0.00 0.00 0.00 0.00 0.00 0.00 0.00 0.00 0.01 0.01 0.03 0.06 0.11 0.25 0.36 0.36 0.31 0.19 0.11 0.08 0.06 0.05 0.02 0.01 0.01 0.02 0.04 0.02 0.01 0.01
0.00 0.00 0.00 0.00 0.00 0.00 0.00 0.00 0.00 0.00 0.00 0.00 0.00 0.00 0.00 0.00 0.00 0.00 0.00 0.00 0.00 0.00 0.00 0.00 0.00 0.02 0.05 0.15 0.29 0.31 0.24 0.17 0.11 0.09 0.07 0.08 0.07 0.06 0.06 0.09 0.12 0.08 0.05 0.03
0.00 0.00 0.00 0.00 0.00 0.00 0.00 0.00 0.00 0.00 0.00 0.00 0.00 0.00 0.00 0.00 0.00 0.00 0.00 0.00 0.00 0.00 0.00 0.00 0.00 0.01 0.05 0.14 0.19 0.20 0.15 0.11 0.09 0.09 0.09 0.09 0.11 0.14 0.15 0.10 0.11 0.07 0.03 0.01
0.00 0.00 0.00 0.00 0.00 0.00 0.00 0.00 0.00 0.00 0.00 0.00 0.00 0.00 0.00 0.00 0.00 0.00 0.00 0.00 0.00 0.00 0.00 0.00 0.01 0.02 0.04 0.07 0.08 0.08 0.06 0.06 0.05 0.05 0.06 0.08 0.09 0.09 0.05 0.03 0.02 0.01 0.00 0.00
0.00 0.00 0.00 0.00 0.00 0.00 0.00 0.00 0.00 0.00 0.00 0.00 0.00 0.00 0.00 0.00 0.00 0.00 0.00 0.00 0.00 0.00 0.00 0.00 0.00 0.00 0.01 0.01 0.01 0.02 0.03 0.03 0.03 0.04 0.04 0.04 0.03 0.01 0.00 0.00 0.00 0.00 0.00 0.00
0.00 0.00 0.00 0.00 0.00 0.00 0.00 0.00 0.00 0.00 0.00 0.00 0.00 0.00 0.00 0.00 0.00 0.00 0.00 0.00 0.00 0.00 0.00 0.00 0.00 0.00 0.00 0.00 0.00 0.01 0.01 0.01 0.01 0.00 0.00 0.00 0.00 0.00 0.00 0.00 0.00 0.00 0.00 0.00
0.00 0.00 0.00 0.00 0.00 0.00 0.00 0.00 0.00 0.00 0.00 0.00 0.00 0.00 0.00 0.00 0.00 0.00 0.00 0.00 0.00 0.00 0.00 0.00 0.00 0.00 0.00 0.00 0.00 0.00 0.00 0.00 0.00 0.00 0.00 0.00 0.00 0.00 0.00 0.00 0.00 0.00 0.00 0.00
0.00 0.00 0.00 0.00 0.00 0.00 0.00 0.00 0.00 0.00 0.00 0.00 0.00 0.00 0.00 0.00 0.00 0.00 0.00 0.00 0.00 0.00 0.00 0.00 0.00 0.00 0.00 0.00 0.00 0.00 0.00 0.00 0.00 0.00 0.00 0.00 0.00 0.00 0.00 0.00 0.01 0.00 0.01 0.00
0.00 0.00 0.00 0.00 0.00 0.00 0.00 0.00 0.00 0.00 0.00 0.00 0.00 0.00 0.00 0.00 0.00 0.00 0.00 0.00 0.00 0.00 0.00 0.00 0.00 0.00 0.00 0.00 0.00 0.00 0.00 0.00 0.00 0.00 0.00 0.00 0.00 0.00 0.01 0.01 0.01 0.01 0.01 0.01
0.00 0.00 0.00 0.00 0.00 0.00 0.00 0.00 0.00 0.00 0.00 0.00 0.00 0.00 0.00 0.00 0.00 0.00 0.00 0.00 0.00 0.00 0.00 0.00 0.00 0.00 0.00 0.00 0.00 0.00 0.00 0.00 0.00 0.00 0.00 0.00 0.00 0.01 0.01 0.01 0.01 0.02 0.02 0.02
0.00 0.00 0.00 0.00 0.00 0.00 0.00 0.00 0.00 0.00 0.00 0.00 0.00 0.00 0.00 0.00 0.01 0.01 0.00 0.00 0.00 0.00 0.00 0.00 0.00 0.00 0.00 0.00 0.00 0.00 0.00 0.00 0.00 0.00 0.00 0.00 0.01 0.01 0.02 0.02 0.02 0.03 0.03 0.04
0.00 0.00 0.00 0.00 0.00 0.00 0.00 0.00 0.00 0.00 0.00 0.00 0.00 0.01 0.00 0.00 0.00 0.00 0.00 0.00 0.00 0.00 0.00 0.00 0.00 0.00 0.00 0.00 0.00 0.00 0.00 0.00 0.00 0.00 0.00 0.00 0.01 0.02 0.02 0.03 0.03 0.04 0.04 0.05
0.00 0.00 0.00 0.00 0.00 0.00 0.00 0.00 0.00 0.00 0.00 0.00 0.00 0.01 0.00 0.00 0.00 0.00 0.00 0.00 0.00 0.00 0.00 0.00 0.00 0.00 0.00 0.00 0.00 0.00 0.00 0.00 0.00 0.00 0.00 0.01 0.01 0.02 0.03 0.04 0.05 0.05 0.05 0.06
0.00 0.00 0.00 0.00 0.00 0.00 0.00 0.00 0.00 0.00 0.00 0.00 0.00 0.01 0.00 0.00 0.00 0.00 0.00 0.00 0.00 0.00 0.00 0.00 0.00 0.00 0.00 0.00 0.00 0.00 0.00 0.00 0.00 0.00 0.01 0.01 0.02 0.04 0.05 0.06 0.07 0.06 0.06 0.04
0.00 0.00 0.00 0.00 0.00 0.00 0.00 0.00 0.00 0.00 0.00 0.00 0.01 0.01 0.00 0.00 0.00 0.00 0.00 0.00 0.00 0.00 0.00 0.00 0.00 0.00 0.00 0.00 0.00 0.00 0.00 0.00 0.01 0.01 0.02 0.03 0.04 0.05 0.06 0.06 0.06 0.05 0.04 0.02
0.00 0.00 0.00 0.00 0.00 0.00 0.00 0.00 0.00 0.00 0.00 0.00 0.01 0.02 0.00 0.00 0.00 0.00 0.00 0.00 0.00 0.00 0.00 0.00 0.00 0.00 0.00 0.00 0.00 0.00 0.00 0.01 0.01 0.02 0.03 0.04 0.04 0.04 0.05 0.04 0.03 0.03 0.02 0.02
0.00 0.01 0.01 0.01 0.01 0.01 0.00 0.00 0.00 0.00 0.00 0.00 0.00 0.00 0.00 0.00 0.00 0.00 0.00 0.00 0.00 0.00 0.00 0.00 0.00 0.00 0.00 0.00 0.00 0.00 0.01 0.01 0.01 0.02 0.02 0.03 0.03 0.02 0.03 0.02 0.02 0.02 0.02 0.02
0.01 0.03 0.05 0.04 0.03 0.02 0.01 0.00 0.00 0.00 0.00 0.00 0.00 0.00 0.00 0.00 0.00 0.00 0.00 0.00 0.00 0.00 0.00 0.00 0.00 0.00 0.00 0.00 0.00 0.01 0.01 0.01 0.01 0.01 0.02 0.02 0.01 0.01 0.01 0.01 0.02 0.02 0.02 0.02
0.01 0.03 0.07 0.11 0.13 0.10 0.04 0.00 0.00 0.00 0.00 0.00 0.00 0.00 0.00 0.00 0.00 0.00 0.00 0.00 0.00 0.00 0.00 0.00 0.00 0.00 0.00 0.00 0.00 0.01 0.01 0.01 0.01 0.01 0.01 0.00 0.00 0.00 0.01 0.01 0.02 0.02 0.02 0.01
0.04 0.04 0.07 0.13 0.16 0.10 0.03 0.01 0.01 0.01 0.01 0.00 0.00 0.00 0.00 0.00 0.00 0.00 0.00 0.00 0.00 0.00 0.00 0.00 0.00 0.00 0.00 0.00 0.00 0.01 0.01 0.01 0.00 0.00 0.00 0.00 0.00 0.00 0.00 0.01 0.02 0.02 0.01 0.01
0.16 0.12 0.10 0.12 0.15 0.13 0.03 0.01 0.01 0.01 0.00 0.00 0.00 0.00 0.00 0.00 0.00 0.00 0.00 0.00 0.00 0.00 0.00 0.00 0.00 0.00 0.00 0.00 0.00 0.01 0.01 0.01 0.00 0.00 0.00 0.01 0.00 0.00 0.00 0.00 0.01 0.01 0.01 0.00
0.25 0.18 0.12 0.12 0.14 0.08 0.03 0.01 0.00 0.00 0.00 0.00 0.00 0.00 0.00 0.00 0.00 0.00 0.00 0.00 0.00 0.00 0.00 0.00 0.00 0.00 0.00 0.00 0.00 0.01 0.01 0.00 0.00 0.00 0.01 0.00 0.00 0.00 0.00 0.00 0.00 0.00 0.00 0.00
0.22 0.14 0.08 0.07 0.08 0.06 0.03 0.01 0.00 0.00 0.00 0.00 0.00 0.00 0.00 0.00 0.00 0.00 0.00 0.00 0.00 0.00 0.00 0.00 0.00 0.00 0.00 0.00 0.00 0.00 0.00 0.00 0.00 0.00 0.00 0.00 0.00 0.00 0.00 0.00 0.00 0.00 0.00 0.00
0.09 0.06 0.05 0.05 0.06 0.05 0.03 0.01 0.00 0.00 0.00 0.00 0.00 0.00 0.00 0.00 0.00 0.00 0.00 0.00 0.00 0.00 0.00 0.00 0.00 0.00 0.00 0.00 0.00 0.00 0.00 0.00 0.00 0.00 0.00 0.00 0.00 0.00 0.00 0.00 0.00 0.00 0.00 0.00
0.02 0.03 0.05 0.05 0.02 0.02 0.01 0.00 0.00 0.00 0.00 0.00 0.00 0.00 0.00 0.00 0.00 0.00 0.00 0.00 0.00 0.00 0.00 0.00 0.00 0.00 0.00 0.00 0.00 0.00 0.00 0.00 0.00 0.00 0.00 0.00 0.00 0.00 0.00 0.00 0.00 0.00 0.00 0.00

GEFSCGP_prec_meanprecacc_018.txt.gz
Total_Precipitation_Accumulation
0.00 0.00 0.00 0.00 0.00 0.00 0.00 0.00 0.00 0.00 0.00 0.00 0.00 0.00 0.00 0.00 0.00 0.00 0.00 0.00 0.00 0.01 0.02 0.06 0.16 0.27 0.49 0.75 0.68 0.55 0.44 0.29 0.20 0.15 0.10 0.06 0.04 0.03 0.03 0.03 0.03 0.05 0.05 0.06
0.00 0.00 0.00 0.00 0.00 0.00 0.00 0.00 0.00 0.00 0.00 0.00 0.00 0.00 0.00 0.00 0.00 0.00 0.00 0.00 0.00 0.00 0.01 0.04 0.07 0.13 0.21 0.34 0.45 0.48 0.43 0.32 0.23 0.19 0.13 0.10 0.08 0.07 0.08 0.10 0.13 0.12 0.12 0.10
0.00 0.00 0.00 0.00 0.00 0.00 0.00 0.00 0.00 0.00 0.00 0.00 0.00 0.00 0.00 0.00 0.00 0.00 0.00 0.00 0.00 0.00 0.01 0.01 0.02 0.04 0.08 0.19 0.33 0.35 0.30 0.23 0.18 0.16 0.15 0.15 0.14 0.13 0.16 0.20 0.21 0.17 0.14 0.12
0.00 0.00 0.00 0.00 0.00 0.00 0.00 0.00 0.00 0.00 0.00 0.00 0.00 0.00 0.00 0.00 0.00 0.00 0.00 0.00 0.00 0.00 0.00 0.00 0.01 0.01 0.05 0.15 0.20 0.20 0.16 0.12 0.11 0.12 0.13 0.14 0.16 0.18 0.19 0.14 0.15 0.12 0.07 0.05
0.00 0.00 0.00 0.00 0.00 0.00 0.00 0.00 0.00 0.00 0.00 0.00 0.00 0.00 0.00 0.00 0.00 0.00 0.00 0.00 0.00 0.00 0.00 0.00 0.01 0.02 0.04 0.07 0.08 0.08 0.06 0.06 0.06 0.06 0.07 0.10 0.11 0.10 0.07 0.04 0.03 0.02 0.01 0.01
0.00 0.00 0.00 0.00 0.00 0.00 0.00 0.00 0.00 0.00 0.00 0.00 0.00 0.00 0.00 0.00 0.00 0.00 0.00 0.00 0.00 0.00 0.00 0.00 0.00 0.00 0.01 0.01 0.01 0.02 0.03 0.03 0.03 0.04 0.04 0.04 0.03 0.01 0.01 0.00 0.00 0.00 0.00 0.00
0.00 0.00 0.00 0.00 0.00 0.00 0.00 0.00 0.00 0.00 0.00 0.00 0.00 0.00 0.00 0.00 0.00 0.00 0.00 0.00 0.00 0.00 0.00 0.00 0.00 0.00 0.00 0.00 0.00 0.01 0.01 0.01 0.01 0.00 0.00 0.00 0.00 0.00 0.00 0.00 0.00 0.00 0.00 0.00
0.00 0.00 0.00 0.00 0.00 0.00 0.00 0.00 0.00 0.00 0.00 0.00 0.00 0.00 0.00 0.00 0.00 0.02 0.02 0.01 0.00 0.00 0.00 0.00 0.00 0.00 0.00 0.00 0.00 0.00 0.00 0.00 0.00 0.00 0.00 0.00 0.00 0.00 0.00 0.00 0.00 0.00 0.00 0.00
0.00 0.00 0.00 0.00 0.00 0.00 0.00 0.00 0.00 0.00 0.00 0.00 0.00 0.00 0.00 0.00 0.01 0.03 0.04 0.03 0.01 0.00 0.00 0.00 0.00 0.00 0.00 0.00 0.00 0.00 0.00 0.00 0.00 0.00 0.00 0.00 0.00 0.00 0.00 0.00 0.01 0.01 0.01 0.00
0.00 0.00 0.00 0.00 0.00 0.00 0.00 0.00 0.00 0.00 0.00 0.00 0.00 0.00 0.00 0.00 0.01 0.01 0.02 0.02 0.01 0.00 0.00 0.00 0.00 0.00 0.00 0.00 0.00 0.00 0.00 0.00 0.00 0.00 0.00 0.00 0.00 0.00 0.01 0.01 0.01 0.01 0.02 0.01
0.00 0.00 0.00 0.00 0.00 0.00 0.00 0.00 0.00 0.00 0.00 0.00 0.00 0.01 0.00 0.00 0.01 0.02 0.04 0.03 0.01 0.00 0.00 0.00 0.00 0.00 0.00 0.00 0.00 0.00 0.00 0.00 0.00 0.00 0.00 0.00 0.00 0.01 0.01 0.01 0.02 0.02 0.02 0.03
0.00 0.00 0.00 0.00 0.00 0.00 0.00 0.00 0.00 0.00 0.00 0.00 0.00 0.01 0.00 0.00 0.02 0.04 0.06 0.04 0.02 0.00 0.00 0.00 0.00 0.00 0.00 0.00 0.00 0.00 0.00 0.00 0.00 0.00 0.00 0.00 0.01 0.01 0.02 0.02 0.02 0.03 0.04 0.04
0.00 0.00 0.00 0.00 0.00 0.00 0.00 0.00 0.00 0.00 0.00 0.00 0.00 0.02 0.01 0.02 0.05 0.07 0.07 0.04 0.02 0.01 0.00 0.00 0.00 0.00 0.00 0.00 0.00 0.00 0.00 0.00 0.00 0.00 0.00 0.00 0.01 0.02 0.02 0.03 0.03 0.04 0.05 0.05
0.00 0.00 0.00 0.00 0.00 0.00 0.00 0.00 0.01 0.01 0.01 0.00 0.01 0.03 0.05 0.09 0.10 0.11 0.10 0.06 0.03 0.02 0.01 0.01 0.00 0.00 0.00 0.00 0.00 0.00 0.00 0.00 0.00 0.00 0.00 0.01 0.01 0.02 0.03 0.04 0.05 0.05 0.06 0.06
0.00 0.00 0.00 0.00 0.00 0.01 0.01 0.02 0.02 0.02 0.03 0.02 0.02 0.06 0.09 0.15 0.17 0.16 0.13 0.09 0.06 0.03 0.01 0.00 0.00 0.00 0.00 0.00 0.00 0.00 0.00 0.00 0.00 0.00 0.01 0.01 0.02 0.04 0.05 0.06 0.07 0.07 0.06 0.04
0.00 0.00 0.00 0.00 0.00 0.00 0.00 0.00 0.01 0.02 0.02 0.02 0.04 0.08 0.10 0.13 0.14 0.14 0.11 0.08 0.06 0.03 0.01 0.01 0.00 0.00 0.00 0.00 0.00 0.00 0.00 0.00 0.01 0.01 0.02 0.03 0.04 0.05 0.06 0.06 0.06 0.05 0.04 0.02
0.00 0.00 0.00 0.00 0.00 0.00 0.00 0.00 0.00 0.01 0.01 0.01 0.05 0.07 0.06 0.07 0.07 0.07 0.06 0.06 0.05 0.04 0.02 0.01 0.00 0.00 0.00 0.00 0.00 0.00 0.00 0.01 0.01 0.02 0.03 0.04 0.04 0.04 0.05 0.04 0.04 0.03 0.02 0.02
0.00 0.02 0.03 0.01 0.01 0.01 0.00 0.00 0.00 0.01 0.01 0.01 0.01 0.02 0.02 0.03 0.04 0.05 0.04 0.03 0.03 0.02 0.01 0.00 0.00 0.00 0.00 0.00 0.00 0.00 0.01 0.01 0.01 0.02 0.02 0.03 0.03 0.02 0.03 0.02 0.02 0.02 0.02 0.02
0.01 0.04 0.09 0.08 0.06 0.03 0.01 0.00 0.00 0.01 0.01 0.01 0.02 0.02 0.01 0.02 0.03 0.03 0.02 0.02 0.02 0.01 0.01 0.00 0.00 0.00 0.00 0.00 0.00 0.01 0.01 0.01 0.01 0.02 0.02 0.02 0.01 0.01 0.01 0.01 0.02 0.02 0.02 0.02
0.01 0.04 0.12 0.16 0.18 0.14 0.05 0.02 0.01 0.02 0.05 0.03 0.02 0.02 0.03 0.03 0.04 0.03 0.02 0.02 0.01 0.00 0.00 0.00 0.00 0.00 0.00 0.00 0.00 0.01 0.01 0.01 0.01 0.01 0.01 0.00 0.00 0.00 0.01 0.01 0.02 0.02 0.02 0.02
0.05 0.07 0.12 0.19 0.26 0.23 0.12 0.07 0.05 0.09 0.09 0.07 0.05 0.05 0.06 0.06 0.05 0.04 0.02 0.01 0.00 0.00 0.00 0.00 0.00 0.00 0.00 0.00 0.00 0.01 0.01 0.01 0.00 0.00 0.00 0.00 0.00 0.00 0.00 0.01 0.02 0.02 0.01 0.01
0.18 0.17 0.18 0.21 0.27 0.24 0.10 0.09 0.11 0.14 0.10 0.10 0.09 0.08 0.07 0.05 0.03 0.01 0.01 0.00 0.00 0.00 0.00 0.00 0.00 0.00 0.00 0.00 0.00 0.01 0.02 0.01 0.00 0.00 0.01 0.01 0.00 0.00 0.00 0.01 0.01 0.01 0.01 0.01
0.29 0.26 0.23 0.25 0.29 0.20 0.10 0.07 0.06 0.08 0.09 0.08 0.09 0.09 0.05 0.02 0.01 0.00 0.00 0.00 0.00 0.00 0.00 0.00 0.00 0.00 0.00 0.00 0.00 0.01 0.01 0.00 0.00 0.00 0.01 0.00 0.00 0.00 0.00 0.00 0.00 0.00 0.00 0.00
0.34 0.32 0.31 0.27 0.25 0.19 0.13 0.08 0.04 0.03 0.04 0.04 0.04 0.04 0.01 0.00 0.00 0.00 0.00 0.00 0.00 0.00 0.00 0.00 0.00 0.00 0.00 0.00 0.00 0.00 0.00 0.00 0.00 0.00 0.00 0.00 0.00 0.00 0.00 0.00 0.00 0.00 0.00 0.00
0.23 0.34 0.41 0.37 0.34 0.24 0.15 0.08 0.04 0.03 0.02 0.02 0.01 0.01 0.00 0.00 0.00 0.00 0.00 0.00 0.00 0.00 0.00 0.00 0.00 0.00 0.00 0.00 0.00 0.00 0.00 0.00 0.00 0.00 0.00 0.00 0.00 0.00 0.00 0.00 0.00 0.00 0.00 0.00
0.08 0.22 0.42 0.45 0.34 0.23 0.14 0.05 0.02 0.01 0.01 0.00 0.00 0.00 0.00 0.00 0.00 0.00 0.00 0.00 0.00 0.00 0.00 0.00 0.00 0.00 0.00 0.00 0.00 0.00 0.00 0.00 0.00 0.00 0.00 0.00 0.00 0.00 0.00 0.00 0.00 0.00 0.00 0.00

GEFSCGP_prec_meanprecacc_024.txt.gz
Total_Precipitation_Accumulation
0.00 0.00 0.00 0.00 0.00 0.00 0.00 0.00 0.00 0.00 0.00 0.00 0.00 0.00 0.00 0.00 0.00 0.00 0.00 0.00 0.00 0.01 0.03 0.07 0.18 0.32 0.53 0.78 0.69 0.56 0.45 0.30 0.20 0.16 0.10 0.06 0.04 0.03 0.03 0.03 0.04 0.05 0.05 0.06
0.00 0.00 0.00 0.00 0.00 0.00 0.00 0.00 0.00 0.00 0.00 0.00 0.00 0.00 0.00 0.00 0.00 0.00 0.00 0.00 0.01 0.01 0.03 0.05 0.10 0.17 0.24 0.38 0.48 0.50 0.44 0.33 0.24 0.20 0.14 0.11 0.08 0.07 0.08 0.11 0.14 0.12 0.12 0.10
0.00 0.00 0.00 0.00 0.00 0.00 0.00 0.00 0.00 0.00 0.00 0.00 0.00 0.00 0.00 0.00 0.00 0.00 0.00 0.01 0.01 0.02 0.03 0.04 0.05 0.07 0.12 0.22 0.36 0.38 0.32 0.25 0.19 0.17 0.15 0.16 0.14 0.13 0.16 0.20 0.21 0.17 0.15 0.12
0.00 0.00 0.00 0.00 0.00 0.00 0.00 0.00 0.00 0.00 0.00 0.00 0.00 0.00 0.00 0.00 0.01 0.01 0.01 0.01 0.01 0.02 0.02 0.03 0.04 0.05 0.08 0.17 0.23 0.23 0.18 0.14 0.12 0.12 0.13 0.14 0.16 0.18 0.19 0.14 0.15 0.12 0.07 0.05
0.00 0.00 0.00 0.00 0.00 0.00 0.00 0.00 0.00 0.00 0.00 0.00 0.00 0.00 0.00 0.00 0.00 0.01 0.01 0.01 0.02 0.02 0.02 0.03 0.04 0.05 0.07 0.10 0.11 0.10 0.08 0.07 0.06 0.06 0.07 0.10 0.11 0.10 0.07 0.04 0.03 0.02 0.01 0.01
0.00 0.00 0.00 0.00 0.00 0.00 0.00 0.00 0.00 0.00 0.00 0.00 0.00 0.00 0.00 0.00 0.00 0.00 0.01 0.01 0.02 0.02 0.02 0.03 0.03 0.03 0.03 0.03 0.04 0.04 0.04 0.04 0.04 0.04 0.04 0.04 0.03 0.01 0.01 0.00 0.00 0.00 0.00 0.00
0.00 0.00 0.00 0.00 0.00 0.00 0.00 0.00 0.00 0.00 0.00 0.00 0.00 0.00 0.00 0.00 0.00 0.00 0.00 0.01 0.02 0.02 0.02 0.02 0.02 0.02 0.02 0.02 0.02 0.02 0.01 0.01 0.01 0.00 0.00 0.00 0.00 0.00 0.00 0.00 0.00 0.00 0.00 0.00
0.00 0.00 0.00 0.00 0.00 0.00 0.00 0.00 0.00 0.00 0.00 0.00 0.00 0.00 0.00 0.00 0.00 0.02 0.02 0.02 0.02 0.02 0.02 0.02 0.03 0.02 0.02 0.01 0.01 0.00 0.00 0.00 0.00 0.00 0.00 0.00 0.00 0.00 0.00 0.00 0.00 0.00 0.00 0.00
0.00 0.00 0.00 0.00 0.00 0.00 0.00 0.00 0.00 0.00 0.00 0.00 0.00 0.00 0.00 0.00 0.01 0.03 0.04 0.03 0.02 0.03 0.03 0.04 0.03 0.03 0.02 0.01 0.00 0.00 0.00 0.00 0.00 0.00 0.00 0.00 0.00 0.00 0.00 0.00 0.01 0.01 0.01 0.00
0.00 0.00 0.00 0.00 0.00 0.00 0.00 0.00 0.00 0.00 0.00 0.00 0.00 0.00 0.00 0.01 0.01 0.01 0.02 0.02 0.02 0.03 0.05 0.05 0.05 0.04 0.02 0.01 0.00 0.00 0.00 0.00 0.00 0.00 0.00 0.00 0.00 0.00 0.01 0.01 0.01 0.01 0.02 0.01
0.00 0.00 0.00 0.00 0.00 0.00 0.00 0.00 0.00 0.00 0.00 0.00 0.00 0.01 0.00 0.00 0.01 0.03 0.04 0.05 0.04 0.04 0.06 0.06 0.05 0.03 0.02 0.01 0.00 0.00 0.00 0.00 0.00 0.00 0.00 0.00 0.00 0.01 0.01 0.01 0.02 0.02 0.02 0.03
0.00 0.00 0.00 0.00 0.00 0.00 0.00 0.00 0.00 0.00 0.00 0.00 0.00 0.01 0.00 0.00 0.02 0.05 0.07 0.06 0.06 0.06 0.06 0.06 0.04 0.03 0.02 0.01 0.01 0.01 0.01 0.00 0.00 0.00 0.00 0.00 0.01 0.01 0.02 0.02 0.02 0.03 0.04 0.04
0.00 0.00 0.00 0.00 0.00 0.00 0.00 0.00 0.00 0.00 0.00 0.00 0.00 0.02 0.01 0.03 0.05 0.08 0.10 0.08 0.07 0.06 0.05 0.05 0.05 0.04 0.03 0.03 0.03 0.02 0.01 0.01 0.00 0.00 0.00 0.00 0.01 0.02 0.02 0.03 0.03 0.04 0.05 0.05
0.00 0.00 0.00 0.00 0.00 0.00 0.00 0.00 0.01 0.01 0.01 0.01 0.01 0.03 0.05 0.09 0.12 0.13 0.14 0.12 0.10 0.08 0.07 0.07 0.06 0.05 0.05 0.04 0.04 0.02 0.02 0.01 0.00 0.00 0.00 0.01 0.01 0.02 0.03 0.04 0.05 0.05 0.06 0.06
0.00 0.00 0.00 0.00 0.00 0.01 0.01 0.02 0.02 0.03 0.03 0.03 0.03 0.06 0.09 0.15 0.18 0.18 0.17 0.15 0.14 0.12 0.10 0.09 0.09 0.08 0.07 0.05 0.04 0.03 0.01 0.00 0.00 0.00 0.01 0.01 0.02 0.04 0.05 0.06 0.07 0.07 0.06 0.04
0.00 0.00 0.00 0.00 0.00 0.00 0.00 0.00 0.01 0.02 0.02 0.03 0.05 0.08 0.10 0.14 0.15 0.16 0.15 0.14 0.15 0.14 0.12 0.11 0.10 0.08 0.06 0.05 0.04 0.02 0.01 0.00 0.01 0.01 0.02 0.03 0.04 0.05 0.06 0.06 0.06 0.05 0.04 0.02
0.00 0.00 0.00 0.00 0.00 0.00 0.00 0.00 0.00 0.01 0.01 0.02 0.05 0.07 0.06 0.07 0.08 0.09 0.09 0.11 0.14 0.15 0.16 0.13 0.10 0.08 0.06 0.04 0.02 0.00 0.00 0.01 0.01 0.02 0.03 0.04 0.04 0.04 0.05 0.04 0.04 0.03 0.02 0.02
0.00 0.02 0.03 0.01 0.01 0.01 0.00 0.00 0.00 0.01 0.01 0.01 0.02 0.02 0.02 0.04 0.06 0.07 0.08 0.10 0.13 0.14 0.12 0.09 0.07 0.06 0.04 0.02 0.00 0.00 0.01 0.01 0.01 0.02 0.02 0.03 0.03 0.02 0.03 0.02 0.02 0.02 0.02 0.02
0.01 0.04 0.09 0.08 0.06 0.03 0.01 0.00 0.00 0.01 0.01 0.01 0.02 0.02 0.01 0.02 0.06 0.06 0.06 0.08 0.10 0.11 0.09 0.08 0.06 0.05 0.03 0.01 0.00 0.01 0.01 0.01 0.01 0.02 0.02 0.02 0.01 0.01 0.01 0.01 0.02 0.02 0.02 0.02
0.01 0.04 0.12 0.16 0.18 0.14 0.05 0.02 0.01 0.02 0.05 0.03 0.02 0.03 0.04 0.05 0.08 0.07 0.06 0.06 0.06 0.06 0.07 0.07 0.06 0.03 0.01 0.01 0.00 0.01 0.01 0.01 0.01 0.01 0.01 0.00 0.00 0.00 0.01 0.01 0.02 0.02 0.02 0.02
0.05 0.07 0.12 0.19 0.26 0.23 0.12 0.07 0.05 0.09 0.09 0.07 0.06 0.06 0.09 0.10 0.12 0.10 0.06 0.06 0.08 0.10 0.11 0.09 0.05 0.02 0.01 0.00 0.00 0.01 0.01 0.01 0.00 0.00 0.00 0.00 0.00 0.00 0.00 0.01 0.02 0.02 0.01 0.01
0.18 0.17 0.18 0.21 0.27 0.24 0.10 0.09 0.11 0.14 0.10 0.10 0.11 0.10 0.11 0.14 0.14 0.13 0.12 0.12 0.12 0.13 0.10 0.06 0.02 0.01 0.00 0.00 0.00 0.01 0.02 0.01 0.00 0.00 0.01 0.01 0.00 0.00 0.00 0.01 0.01 0.01 0.01 0.01
0.29 0.26 0.23 0.25 0.29 0.20 0.10 0.07 0.06 0.08 0.09 0.09 0.13 0.15 0.17 0.19 0.19 0.17 0.16 0.15 0.13 0.10 0.05 0.02 0.01 0.00 0.00 0.00 0.00 0.01 0.01 0.00 0.00 0.00 0.01 0.00 0.00 0.00 0.00 0.00 0.00 0.00 0.00 0.00
0.34 0.32 0.32 0.28 0.26 0.19 0.13 0.09 0.06 0.06 0.07 0.09 0.12 0.18 0.21 0.21 0.17 0.13 0.10 0.07 0.04 0.02 0.01 0.00 0.00 0.00 0.00 0.00 0.00 0.00 0.00 0.00 0.00 0.00 0.00 0.00 0.00 0.00 0.00 0.00 0.00 0.00 0.00 0.00
0.23 0.35 0.44 0.41 0.38 0.28 0.20 0.14 0.12 0.13 0.16 0.17 0.19 0.20 0.17 0.11 0.07 0.04 0.02 0.01 0.00 0.00 0.00 0.00 0.00 0.00 0.00 0.00 0.00 0.00 0.00 0.00 0.00 0.00 0.00 0.00 0.00 0.00 0.00 0.00 0.00 0.00 0.00 0.00
0.09 0.25 0.50 0.56 0.45 0.38 0.33 0.28 0.26 0.29 0.33 0.27 0.18 0.10 0.06 0.03 0.02 0.00 0.00 0.00 0.00 0.00 0.00 0.00 0.00 0.00 0.00 0.00 0.00 0.00 0.00 0.00 0.00 0.00 0.00 0.00 0.00 0.00 0.00 0.00 0.00 0.00 0.00 0.00

GEFSCGP_prec_meanprecacc_030.txt.gz
Total_Precipitation_Accumulation
0.00 0.00 0.00 0.00 0.00 0.00 0.00 0.00 0.00 0.00 0.00 0.00 0.00 0.00 0.00 0.00 0.00 0.00 0.00 0.00 0.00 0.01 0.03 0.09 0.20 0.36 0.57 0.81 0.74 0.60 0.47 0.33 0.24 0.18 0.12 0.07 0.05 0.04 0.03 0.03 0.04 0.05 0.05 0.06
0.00 0.00 0.00 0.00 0.00 0.00 0.00 0.00 0.00 0.00 0.00 0.00 0.00 0.00 0.00 0.00 0.00 0.00 0.00 0.01 0.01 0.02 0.04 0.08 0.14 0.22 0.31 0.45 0.56 0.57 0.50 0.39 0.30 0.24 0.16 0.13 0.10 0.08 0.09 0.11 0.14 0.12 0.12 0.10
0.00 0.00 0.00 0.00 0.00 0.00 0.00 0.00 0.00 0.00 0.00 0.00 0.00 0.00 0.00 0.00 0.00 0.00 0.01 0.01 0.01 0.02 0.05 0.07 0.09 0.14 0.22 0.33 0.48 0.52 0.43 0.34 0.27 0.23 0.20 0.19 0.16 0.15 0.17 0.20 0.21 0.17 0.15 0.12
0.00 0.00 0.00 0.00 0.00 0.00 0.00 0.00 0.00 0.00 0.00 0.00 0.00 0.00 0.00 0.00 0.01 0.01 0.01 0.01 0.01 0.02 0.04 0.06 0.08 0.13 0.21 0.32 0.39 0.40 0.32 0.24 0.21 0.19 0.18 0.18 0.19 0.20 0.20 0.15 0.15 0.12 0.07 0.05
0.00 0.00 0.00 0.00 0.00 0.00 0.00 0.00 0.00 0.00 0.00 0.00 0.00 0.00 0.00 0.00 0.00 0.01 0.01 0.01 0.02 0.02 0.03 0.06 0.09 0.13 0.20 0.26 0.28 0.27 0.22 0.19 0.15 0.13 0.12 0.14 0.13 0.12 0.07 0.04 0.03 0.02 0.01 0.01
0.00 0.00 0.00 0.00 0.00 0.00 0.00 0.00 0.00 0.00 0.00 0.00 0.00 0.00 0.00 0.00 0.00 0.00 0.01 0.01 0.02 0.02 0.03 0.05 0.07 0.10 0.14 0.15 0.16 0.15 0.14 0.13 0.11 0.09 0.08 0.07 0.04 0.02 0.01 0.00 0.00 0.00 0.00 0.00
0.00 0.00 0.00 0.00 0.00 0.00 0.00 0.00 0.00 0.00 0.00 0.00 0.00 0.00 0.00 0.00 0.00 0.00 0.00 0.01 0.02 0.02 0.03 0.04 0.07 0.08 0.10 0.10 0.10 0.10 0.09 0.08 0.05 0.04 0.03 0.02 0.01 0.00 0.00 0.00 0.00 0.00 0.00 0.00
0.00 0.00 0.00 0.00 0.00 0.00 0.00 0.00 0.00 0.00 0.00 0.00 0.00 0.00 0.00 0.00 0.00 0.02 0.03 0.02 0.02 0.02 0.02 0.04 0.07 0.07 0.07 0.07 0.08 0.07 0.06 0.05 0.03 0.02 0.01 0.01 0.00 0.00 0.00 0.00 0.00 0.00 0.00 0.00
0.00 0.00 0.00 0.00 0.00 0.00 0.00 0.00 0.00 0.00 0.00 0.00 0.00 0.00 0.00 0.00 0.01 0.03 0.04 0.04 0.03 0.03 0.04 0.05 0.06 0.06 0.06 0.06 0.06 0.05 0.04 0.03 0.02 0.01 0.00 0.00 0.00 0.00 0.00 0.00 0.01 0.01 0.01 0.00
0.00 0.00 0.00 0.00 0.00 0.00 0.00 0.00 0.00 0.00 0.00 0.00 0.00 0.00 0.00 0.01 0.01 0.01 0.02 0.03 0.03 0.03 0.05 0.07 0.07 0.07 0.06 0.06 0.06 0.05 0.03 0.02 0.01 0.01 0.00 0.00 0.00 0.00 0.01 0.01 0.01 0.01 0.02 0.01
0.00 0.00 0.00 0.00 0.00 0.00 0.00 0.00 0.00 0.00 0.00 0.00 0.00 0.01 0.00 0.00 0.01 0.03 0.04 0.05 0.04 0.05 0.06 0.08 0.07 0.06 0.05 0.05 0.05 0.04 0.03 0.02 0.01 0.01 0.01 0.01 0.01 0.01 0.01 0.01 0.02 0.02 0.02 0.03
0.00 0.00 0.00 0.00 0.00 0.00 0.00 0.00 0.00 0.00 0.00 0.00 0.00 0.01 0.00 0.00 0.02 0.05 0.07 0.06 0.06 0.06 0.07 0.07 0.06 0.05 0.05 0.05 0.05 0.04 0.04 0.03 0.03 0.03 0.02 0.01 0.01 0.01 0.02 0.02 0.02 0.03 0.04 0.04
0.00 0.00 0.00 0.00 0.00 0.00 0.00 0.00 0.00 0.00 0.00 0.00 0.00 0.02 0.01 0.03 0.05 0.08 0.10 0.08 0.07 0.06 0.06 0.06 0.06 0.06 0.06 0.07 0.08 0.07 0.06 0.05 0.03 0.02 0.01 0.01 0.01 0.02 0.02 0.03 0.03 0.04 0.05 0.05
0.00 0.00 0.00 0.00 0.00 0.00 0.00 0.00 0.01 0.01 0.01 0.01 0.01 0.03 0.05 0.09 0.12 0.13 0.14 0.12 0.10 0.09 0.09 0.10 0.10 0.09 0.08 0.09 0.09 0.07 0.06 0.04 0.02 0.01 0.00 0.01 0.01 0.02 0.03 0.04 0.05 0.05 0.06 0.06
0.00 0.00 0.00 0.00 0.00 0.01 0.01 0.02 0.02 0.03 0.03 0.03 0.03 0.06 0.09 0.15 0.18 0.18 0.17 0.15 0.14 0.13 0.13 0.14 0.14 0.12 0.11 0.10 0.08 0.07 0.05 0.03 0.02 0.01 0.01 0.01 0.02 0.04 0.05 0.06 0.07 0.07 0.06 0.04
0.00 0.00 0.00 0.00 0.00 0.00 0.00 0.00 0.01 0.02 0.02 0.03 0.05 0.08 0.10 0.14 0.15 0.16 0.15 0.14 0.15 0.16 0.17 0.18 0.17 0.14 0.13 0.12 0.12 0.09 0.05 0.03 0.02 0.02 0.02 0.03 0.04 0.05 0.06 0.06 0.06 0.05 0.04 0.03
0.00 0.00 0.00 0.00 0.00 0.00 0.00 0.00 0.00 0.01 0.01 0.02 0.05 0.07 0.06 0.07 0.08 0.09 0.10 0.11 0.15 0.19 0.22 0.21 0.18 0.16 0.16 0.16 0.14 0.10 0.06 0.04 0.03 0.03 0.03 0.04 0.04 0.04 0.05 0.04 0.04 0.03 0.03 0.02
0.00 0.02 0.03 0.01 0.01 0.01 0.00 0.00 0.00 0.01 0.01 0.01 0.02 0.02 0.02 0.04 0.06 0.07 0.08 0.11 0.15 0.18 0.18 0.16 0.15 0.17 0.20 0.19 0.16 0.11 0.07 0.04 0.02 0.02 0.03 0.03 0.03 0.03 0.03 0.03 0.03 0.03 0.02 0.02
0.01 0.04 0.09 0.08 0.06 0.03 0.01 0.00 0.00 0.01 0.01 0.01 0.02 0.02 0.01 0.02 0.06 0.06 0.06 0.08 0.12 0.14 0.14 0.16 0.19 0.23 0.24 0.21 0.14 0.08 0.04 0.02 0.02 0.02 0.02 0.02 0.01 0.01 0.01 0.02 0.02 0.02 0.02 0.02
0.01 0.04 0.12 0.17 0.18 0.14 0.05 0.02 0.01 0.02 0.05 0.03 0.02 0.03 0.04 0.05 0.09 0.07 0.06 0.06 0.07 0.09 0.13 0.19 0.24 0.24 0.20 0.14 0.08 0.04 0.03 0.02 0.01 0.01 0.01 0.00 0.00 0.00 0.01 0.01 0.02 0.02 0.02 0.02
0.05 0.07 0.12 0.20 0.27 0.23 0.12 0.07 0.05 0.09 0.09 0.08 0.06 0.06 0.09 0.10 0.13 0.10 0.07 0.07 0.10 0.14 0.19 0.23 0.22 0.18 0.12 0.07 0.05 0.04 0.03 0.02 0.01 0.00 0.00 0.00 0.00 0.00 0.00 0.01 0.02 0.02 0.01 0.01
0.18 0.18 0.18 0.22 0.27 0.25 0.11 0.09 0.12 0.14 0.10 0.10 0.11 0.11 0.12 0.14 0.14 0.14 0.14 0.15 0.18 0.21 0.24 0.23 0.19 0.12 0.06 0.03 0.02 0.02 0.02 0.01 0.00 0.00 0.01 0.01 0.00 0.00 0.00 0.01 0.01 0.01 0.01 0.01
0.29 0.27 0.24 0.26 0.30 0.20 0.10 0.07 0.06 0.08 0.10 0.10 0.13 0.15 0.18 0.20 0.21 0.21 0.22 0.24 0.25 0.24 0.21 0.16 0.11 0.06 0.03 0.01 0.01 0.01 0.01 0.00 0.00 0.00 0.01 0.00 0.00 0.00 0.00 0.00 0.00 0.00 0.00 0.00
0.35 0.32 0.33 0.29 0.27 0.20 0.14 0.09 0.07 0.07 0.08 0.09 0.13 0.19 0.23 0.24 0.22 0.21 0.20 0.20 0.19 0.15 0.10 0.06 0.03 0.02 0.01 0.00 0.00 0.00 0.00 0.00 0.00 0.00 0.00 0.00 0.00 0.00 0.00 0.00 0.00 0.00 0.00 0.00
0.25 0.37 0.47 0.44 0.41 0.32 0.25 0.18 0.15 0.15 0.18 0.20 0.23 0.25 0.23 0.19 0.18 0.16 0.14 0.12 0.09 0.06 0.03 0.01 0.01 0.01 0.00 0.00 0.00 0.00 0.00 0.00 0.00 0.00 0.00 0.00 0.00 0.00 0.00 0.00 0.00 0.00 0.00 0.01
0.12 0.29 0.55 0.64 0.52 0.46 0.45 0.39 0.35 0.38 0.42 0.35 0.26 0.19 0.16 0.13 0.11 0.08 0.06 0.04 0.02 0.01 0.01 0.01 0.00 0.00 0.00 0.00 0.00 0.00 0.00 0.00 0.00 0.00 0.00 0.00 0.00 0.00 0.00 0.00 0.00 0.00 0.00 0.00

GEFSCGP_prec_meanprecacc_036.txt.gz
Total_Precipitation_Accumulation
0.00 0.00 0.00 0.00 0.00 0.00 0.00 0.00 0.00 0.00 0.00 0.00 0.00 0.00 0.00 0.00 0.00 0.00 0.00 0.00 0.00 0.01 0.04 0.09 0.22 0.41 0.60 0.83 0.77 0.62 0.49 0.35 0.26 0.20 0.13 0.09 0.06 0.05 0.04 0.04 0.05 0.06 0.05 0.06
0.00 0.00 0.00 0.00 0.00 0.00 0.00 0.00 0.00 0.00 0.00 0.00 0.00 0.00 0.00 0.00 0.00 0.00 0.00 0.01 0.01 0.02 0.05 0.11 0.18 0.29 0.36 0.49 0.60 0.61 0.53 0.43 0.34 0.27 0.20 0.16 0.12 0.10 0.10 0.12 0.15 0.13 0.12 0.11
0.00 0.00 0.00 0.00 0.00 0.00 0.00 0.00 0.00 0.00 0.00 0.00 0.00 0.00 0.00 0.00 0.00 0.00 0.01 0.01 0.01 0.02 0.05 0.07 0.11 0.19 0.27 0.37 0.53 0.58 0.50 0.41 0.34 0.29 0.25 0.24 0.21 0.18 0.20 0.23 0.24 0.19 0.16 0.12
0.00 0.00 0.00 0.00 0.00 0.00 0.00 0.00 0.00 0.00 0.00 0.00 0.00 0.00 0.00 0.00 0.01 0.01 0.01 0.01 0.01 0.02 0.04 0.06 0.08 0.16 0.26 0.39 0.48 0.49 0.42 0.36 0.33 0.31 0.28 0.28 0.27 0.26 0.26 0.20 0.19 0.15 0.09 0.05
0.00 0.00 0.00 0.00 0.00 0.00 0.00 0.00 0.00 0.00 0.00 0.00 0.00 0.00 0.00 0.00 0.00 0.01 0.01 0.01 0.02 0.02 0.03 0.06 0.09 0.15 0.25 0.33 0.38 0.39 0.37 0.35 0.31 0.28 0.25 0.24 0.23 0.21 0.15 0.09 0.07 0.04 0.02 0.01
0.00 0.00 0.00 0.00 0.00 0.00 0.00 0.00 0.00 0.00 0.00 0.00 0.00 0.00 0.00 0.00 0.00 0.00 0.01 0.01 0.02 0.02 0.03 0.05 0.09 0.13 0.17 0.20 0.24 0.27 0.29 0.30 0.27 0.23 0.21 0.17 0.14 0.11 0.07 0.04 0.03 0.01 0.00 0.00
0.00 0.00 0.00 0.00 0.00 0.00 0.00 0.00 0.00 0.00 0.00 0.00 0.00 0.00 0.00 0.00 0.00 0.00 0.00 0.01 0.02 0.02 0.03 0.04 0.07 0.10 0.12 0.13 0.15 0.18 0.18 0.19 0.17 0.14 0.12 0.10 0.08 0.06 0.04 0.02 0.01 0.00 0.00 0.00
0.00 0.00 0.00 0.00 0.00 0.00 0.00 0.00 0.00 0.00 0.00 0.00 0.00 0.00 0.00 0.00 0.00 0.02 0.03 0.02 0.02 0.02 0.02 0.04 0.07 0.08 0.08 0.08 0.10 0.12 0.12 0.11 0.11 0.10 0.08 0.06 0.05 0.03 0.02 0.01 0.01 0.01 0.00 0.00
0.00 0.00 0.00 0.00 0.00 0.00 0.00 0.00 0.00 0.00 0.00 0.00 0.00 0.00 0.00 0.00 0.01 0.03 0.04 0.04 0.03 0.03 0.04 0.06 0.07 0.07 0.07 0.07 0.08 0.09 0.09 0.09 0.09 0.08 0.05 0.04 0.03 0.02 0.02 0.02 0.01 0.01 0.01 0.01
0.00 0.00 0.00 0.00 0.00 0.00 0.00 0.00 0.00 0.00 0.00 0.00 0.00 0.00 0.00 0.01 0.01 0.01 0.02 0.03 0.03 0.04 0.07 0.10 0.11 0.09 0.06 0.06 0.09 0.09 0.08 0.08 0.07 0.05 0.04 0.03 0.03 0.02 0.02 0.01 0.01 0.02 0.02 0.01
0.00 0.00 0.00 0.00 0.00 0.00 0.00 0.00 0.00 0.00 0.00 0.00 0.00 0.01 0.00 0.00 0.01 0.03 0.04 0.06 0.06 0.07 0.12 0.16 0.12 0.07 0.05 0.06 0.07 0.08 0.08 0.07 0.06 0.05 0.04 0.04 0.03 0.02 0.01 0.01 0.02 0.02 0.02 0.03
0.00 0.00 0.00 0.00 0.00 0.00 0.00 0.00 0.00 0.00 0.00 0.00 0.00 0.01 0.00 0.00 0.02 0.05 0.07 0.06 0.07 0.11 0.12 0.11 0.08 0.06 0.05 0.07 0.08 0.08 0.10 0.09 0.08 0.06 0.05 0.04 0.02 0.02 0.02 0.02 0.02 0.03 0.04 0.04
0.00 0.00 0.00 0.00 0.00 0.00 0.00 0.00 0.00 0.00 0.00 0.00 0.00 0.02 0.01 0.03 0.05 0.08 0.11 0.12 0.15 0.14 0.11 0.10 0.10 0.08 0.08 0.10 0.11 0.11 0.12 0.10 0.07 0.05 0.03 0.02 0.02 0.02 0.03 0.03 0.04 0.05 0.05 0.06
0.00 0.00 0.00 0.00 0.00 0.00 0.00 0.00 0.01 0.01 0.01 0.01 0.01 0.03 0.05 0.09 0.12 0.15 0.20 0.27 0.33 0.27 0.17 0.14 0.13 0.11 0.11 0.12 0.12 0.11 0.10 0.08 0.06 0.04 0.03 0.03 0.03 0.04 0.05 0.05 0.06 0.06 0.06 0.07
0.00 0.00 0.00 0.00 0.00 0.01 0.01 0.02 0.02 0.03 0.03 0.03 0.03 0.06 0.09 0.15 0.19 0.21 0.22 0.24 0.28 0.25 0.19 0.19 0.17 0.15 0.14 0.13 0.12 0.12 0.11 0.08 0.06 0.05 0.04 0.05 0.05 0.06 0.07 0.07 0.08 0.08 0.07 0.06
0.00 0.00 0.00 0.00 0.00 0.00 0.00 0.00 0.01 0.02 0.02 0.03 0.05 0.08 0.11 0.15 0.17 0.17 0.17 0.19 0.23 0.23 0.23 0.23 0.21 0.18 0.16 0.16 0.17 0.15 0.12 0.09 0.08 0.08 0.08 0.07 0.06 0.07 0.08 0.08 0.08 0.07 0.07 0.06
0.00 0.00 0.00 0.00 0.00 0.00 0.00 0.00 0.00 0.01 0.01 0.02 0.05 0.08 0.06 0.08 0.09 0.10 0.11 0.14 0.20 0.24 0.28 0.26 0.22 0.19 0.19 0.21 0.20 0.18 0.16 0.14 0.12 0.10 0.09 0.08 0.07 0.06 0.06 0.06 0.06 0.06 0.05 0.04
0.00 0.02 0.03 0.01 0.01 0.01 0.00 0.00 0.00 0.01 0.01 0.01 0.02 0.02 0.02 0.04 0.06 0.08 0.09 0.14 0.19 0.22 0.21 0.19 0.18 0.21 0.24 0.26 0.26 0.23 0.19 0.14 0.11 0.08 0.07 0.06 0.04 0.04 0.05 0.05 0.04 0.03 0.03 0.03
0.01 0.05 0.09 0.08 0.06 0.03 0.01 0.00 0.00 0.01 0.02 0.01 0.02 0.02 0.02 0.03 0.07 0.07 0.07 0.09 0.13 0.16 0.17 0.19 0.23 0.29 0.32 0.31 0.26 0.19 0.13 0.09 0.06 0.05 0.04 0.03 0.02 0.02 0.02 0.02 0.02 0.02 0.03 0.03
0.01 0.04 0.13 0.17 0.19 0.15 0.08 0.02 0.01 0.02 0.07 0.04 0.02 0.03 0.04 0.06 0.12 0.10 0.07 0.07 0.08 0.10 0.15 0.23 0.30 0.32 0.30 0.25 0.16 0.11 0.07 0.05 0.04 0.02 0.01 0.01 0.01 0.01 0.01 0.02 0.02 0.03 0.03 0.02
0.08 0.09 0.14 0.21 0.30 0.27 0.15 0.07 0.06 0.11 0.14 0.11 0.07 0.08 0.11 0.14 0.15 0.11 0.07 0.08 0.11 0.16 0.22 0.27 0.28 0.25 0.19 0.13 0.09 0.07 0.05 0.03 0.02 0.01 0.00 0.00 0.00 0.00 0.01 0.01 0.02 0.02 0.02 0.02
0.21 0.22 0.24 0.28 0.34 0.33 0.14 0.10 0.13 0.17 0.13 0.12 0.12 0.12 0.15 0.16 0.15 0.15 0.15 0.16 0.20 0.24 0.28 0.28 0.24 0.17 0.10 0.06 0.04 0.04 0.03 0.02 0.00 0.00 0.01 0.01 0.00 0.00 0.00 0.01 0.01 0.02 0.02 0.01
0.30 0.31 0.32 0.35 0.38 0.28 0.15 0.10 0.08 0.09 0.10 0.11 0.15 0.18 0.21 0.22 0.22 0.22 0.23 0.26 0.28 0.28 0.26 0.20 0.14 0.10 0.05 0.03 0.02 0.02 0.02 0.00 0.00 0.00 0.01 0.00 0.00 0.00 0.00 0.01 0.01 0.01 0.01 0.01
0.40 0.34 0.34 0.33 0.33 0.25 0.17 0.11 0.08 0.08 0.10 0.11 0.16 0.23 0.26 0.26 0.23 0.23 0.23 0.23 0.23 0.20 0.15 0.09 0.05 0.03 0.02 0.01 0.01 0.01 0.00 0.00 0.00 0.00 0.00 0.00 0.00 0.00 0.00 0.00 0.00 0.01 0.01 0.01
0.30 0.39 0.50 0.50 0.47 0.36 0.27 0.20 0.16 0.16 0.20 0.23 0.26 0.29 0.27 0.23 0.22 0.20 0.18 0.16 0.13 0.09 0.05 0.03 0.02 0.02 0.01 0.00 0.00 0.00 0.00 0.00 0.00 0.00 0.00 0.00 0.00 0.00 0.00 0.00 0.00 0.01 0.01 0.01
0.14 0.32 0.61 0.71 0.58 0.51 0.49 0.42 0.37 0.40 0.45 0.37 0.29 0.25 0.23 0.20 0.16 0.12 0.10 0.07 0.05 0.03 0.02 0.02 0.01 0.01 0.00 0.00 0.00 0.00 0.00 0.00 0.00 0.00 0.00 0.00 0.00 0.00 0.00 0.01 0.01 0.00 0.00 0.00

GEFSCGP_prec_meanprecacc_042.txt.gz
Total_Precipitation_Accumulation
0.00 0.00 0.00 0.00 0.00 0.00 0.00 0.00 0.00 0.00 0.00 0.00 0.00 0.00 0.00 0.00 0.00 0.00 0.00 0.00 0.01 0.02 0.05 0.12 0.31 0.58 0.76 0.92 0.83 0.69 0.59 0.49 0.36 0.26 0.19 0.15 0.13 0.10 0.11 0.13 0.13 0.14 0.14 0.13
0.00 0.00 0.00 0.00 0.00 0.00 0.00 0.00 0.00 0.00 0.00 0.00 0.00 0.00 0.00 0.00 0.00 0.00 0.00 0.01 0.01 0.02 0.05 0.13 0.27 0.36 0.41 0.53 0.65 0.68 0.59 0.50 0.43 0.39 0.30 0.25 0.20 0.18 0.20 0.24 0.29 0.28 0.25 0.22
0.00 0.00 0.00 0.00 0.00 0.00 0.00 0.00 0.00 0.00 0.00 0.00 0.00 0.00 0.00 0.00 0.00 0.00 0.01 0.01 0.01 0.02 0.05 0.08 0.14 0.22 0.29 0.43 0.61 0.67 0.61 0.57 0.54 0.46 0.40 0.37 0.33 0.30 0.35 0.41 0.42 0.37 0.30 0.23
0.00 0.00 0.00 0.00 0.00 0.00 0.00 0.00 0.00 0.00 0.00 0.00 0.00 0.00 0.00 0.00 0.01 0.01 0.01 0.01 0.01 0.02 0.04 0.06 0.09 0.17 0.31 0.49 0.62 0.65 0.63 0.61 0.59 0.52 0.48 0.48 0.46 0.43 0.46 0.40 0.38 0.31 0.21 0.14
0.00 0.00 0.00 0.00 0.00 0.00 0.00 0.00 0.00 0.00 0.00 0.00 0.00 0.00 0.00 0.00 0.00 0.01 0.01 0.01 0.02 0.02 0.03 0.06 0.10 0.18 0.34 0.50 0.60 0.63 0.63 0.64 0.60 0.53 0.50 0.49 0.45 0.42 0.36 0.28 0.23 0.16 0.11 0.07
0.00 0.00 0.00 0.00 0.00 0.00 0.00 0.00 0.00 0.00 0.00 0.00 0.00 0.00 0.00 0.00 0.00 0.00 0.01 0.01 0.02 0.02 0.03 0.06 0.10 0.17 0.27 0.35 0.44 0.47 0.47 0.49 0.49 0.46 0.42 0.36 0.33 0.30 0.25 0.18 0.13 0.08 0.05 0.03
0.00 0.00 0.00 0.00 0.00 0.00 0.00 0.00 0.00 0.00 0.00 0.00 0.00 0.00 0.00 0.00 0.00 0.00 0.00 0.01 0.02 0.02 0.03 0.05 0.11 0.15 0.22 0.26 0.29 0.32 0.32 0.31 0.28 0.25 0.24 0.22 0.19 0.15 0.12 0.09 0.06 0.04 0.02 0.02
0.00 0.00 0.00 0.00 0.00 0.00 0.00 0.00 0.00 0.00 0.00 0.00 0.00 0.00 0.00 0.00 0.00 0.02 0.03 0.02 0.02 0.03 0.04 0.07 0.13 0.17 0.19 0.21 0.23 0.25 0.25 0.21 0.19 0.18 0.16 0.14 0.11 0.09 0.06 0.04 0.02 0.02 0.01 0.01
0.00 0.00 0.00 0.00 0.00 0.00 0.00 0.00 0.00 0.00 0.00 0.00 0.00 0.00 0.00 0.00 0.01 0.03 0.05 0.04 0.04 0.05 0.07 0.13 0.18 0.20 0.20 0.18 0.18 0.18 0.16 0.15 0.14 0.13 0.10 0.09 0.08 0.06 0.04 0.03 0.02 0.02 0.02 0.01
0.00 0.00 0.00 0.00 0.00 0.00 0.00 0.00 0.00 0.00 0.00 0.00 0.00 0.00 0.00 0.01 0.01 0.02 0.03 0.04 0.05 0.08 0.13 0.19 0.22 0.20 0.16 0.14 0.15 0.14 0.11 0.11 0.10 0.08 0.08 0.06 0.06 0.05 0.04 0.03 0.03 0.02 0.02 0.02
0.00 0.00 0.00 0.00 0.00 0.00 0.00 0.00 0.00 0.00 0.00 0.00 0.00 0.01 0.01 0.00 0.01 0.03 0.06 0.08 0.09 0.12 0.20 0.27 0.26 0.19 0.14 0.11 0.11 0.11 0.09 0.08 0.07 0.07 0.06 0.06 0.05 0.04 0.03 0.03 0.03 0.03 0.03 0.03
0.00 0.00 0.00 0.00 0.00 0.00 0.00 0.00 0.00 0.00 0.00 0.00 0.00 0.02 0.01 0.01 0.03 0.06 0.09 0.09 0.14 0.21 0.26 0.28 0.26 0.19 0.15 0.13 0.11 0.10 0.11 0.10 0.08 0.07 0.06 0.05 0.04 0.03 0.03 0.03 0.03 0.04 0.05 0.05
0.00 0.00 0.00 0.00 0.00 0.00 0.00 0.00 0.00 0.00 0.00 0.00 0.01 0.04 0.03 0.04 0.07 0.09 0.13 0.16 0.27 0.35 0.37 0.34 0.29 0.20 0.14 0.13 0.13 0.12 0.12 0.11 0.08 0.06 0.04 0.03 0.03 0.03 0.04 0.05 0.05 0.06 0.06 0.07
0.00 0.00 0.00 0.00 0.00 0.00 0.00 0.01 0.01 0.01 0.01 0.01 0.02 0.05 0.07 0.11 0.14 0.16 0.22 0.31 0.45 0.47 0.36 0.27 0.21 0.16 0.13 0.13 0.13 0.12 0.11 0.09 0.06 0.04 0.03 0.03 0.04 0.06 0.07 0.07 0.07 0.07 0.07 0.08
0.00 0.00 0.00 0.00 0.00 0.01 0.01 0.02 0.03 0.03 0.03 0.03 0.04 0.09 0.12 0.17 0.20 0.23 0.25 0.27 0.34 0.34 0.29 0.25 0.21 0.17 0.15 0.14 0.13 0.12 0.11 0.09 0.06 0.05 0.06 0.07 0.07 0.07 0.08 0.08 0.09 0.09 0.08 0.07
0.00 0.00 0.00 0.00 0.00 0.00 0.00 0.01 0.01 0.02 0.03 0.03 0.06 0.12 0.13 0.17 0.20 0.21 0.21 0.23 0.28 0.27 0.28 0.27 0.23 0.19 0.17 0.17 0.18 0.16 0.13 0.10 0.09 0.09 0.10 0.09 0.08 0.09 0.10 0.09 0.09 0.08 0.08 0.07
0.00 0.00 0.00 0.00 0.00 0.00 0.00 0.00 0.01 0.01 0.01 0.02 0.07 0.10 0.09 0.11 0.11 0.12 0.13 0.16 0.22 0.26 0.30 0.27 0.22 0.20 0.20 0.21 0.21 0.19 0.18 0.16 0.15 0.13 0.12 0.11 0.09 0.08 0.08 0.07 0.08 0.07 0.06 0.04
0.01 0.02 0.03 0.01 0.01 0.02 0.00 0.00 0.01 0.01 0.02 0.02 0.03 0.03 0.03 0.05 0.07 0.08 0.09 0.14 0.19 0.22 0.22 0.19 0.19 0.22 0.25 0.27 0.27 0.25 0.22 0.18 0.15 0.12 0.10 0.09 0.07 0.06 0.06 0.06 0.05 0.04 0.03 0.03
0.02 0.05 0.10 0.08 0.07 0.04 0.02 0.01 0.01 0.02 0.05 0.03 0.03 0.03 0.02 0.04 0.07 0.08 0.07 0.09 0.13 0.16 0.17 0.19 0.24 0.30 0.33 0.32 0.27 0.21 0.16 0.12 0.10 0.08 0.07 0.05 0.04 0.03 0.03 0.02 0.02 0.02 0.03 0.03
0.02 0.05 0.15 0.18 0.20 0.17 0.12 0.03 0.02 0.04 0.12 0.06 0.04 0.04 0.05 0.07 0.13 0.10 0.07 0.07 0.08 0.11 0.16 0.24 0.30 0.32 0.31 0.26 0.18 0.13 0.11 0.08 0.07 0.05 0.04 0.02 0.01 0.01 0.01 0.02 0.02 0.03 0.03 0.02
0.14 0.14 0.18 0.25 0.33 0.32 0.18 0.08 0.07 0.15 0.18 0.12 0.09 0.09 0.12 0.14 0.16 0.11 0.07 0.08 0.11 0.17 0.23 0.27 0.29 0.27 0.21 0.15 0.11 0.10 0.08 0.06 0.03 0.02 0.01 0.01 0.01 0.01 0.01 0.01 0.02 0.02 0.02 0.02
0.32 0.32 0.32 0.35 0.41 0.40 0.17 0.12 0.16 0.21 0.15 0.14 0.13 0.13 0.15 0.16 0.15 0.15 0.15 0.17 0.20 0.25 0.29 0.30 0.26 0.19 0.13 0.08 0.06 0.06 0.05 0.02 0.01 0.00 0.01 0.01 0.00 0.00 0.00 0.01 0.01 0.02 0.02 0.01
0.38 0.39 0.39 0.42 0.46 0.34 0.18 0.12 0.10 0.11 0.11 0.12 0.16 0.18 0.21 0.22 0.22 0.22 0.24 0.27 0.29 0.29 0.27 0.21 0.15 0.11 0.06 0.03 0.03 0.03 0.02 0.01 0.00 0.01 0.01 0.01 0.00 0.00 0.00 0.01 0.01 0.01 0.01 0.01
0.44 0.36 0.38 0.38 0.38 0.27 0.18 0.11 0.08 0.08 0.10 0.12 0.16 0.23 0.27 0.26 0.24 0.24 0.24 0.24 0.24 0.21 0.15 0.10 0.06 0.04 0.02 0.01 0.01 0.01 0.00 0.00 0.00 0.00 0.01 0.01 0.00 0.00 0.00 0.00 0.00 0.01 0.01 0.01
0.33 0.41 0.54 0.55 0.50 0.38 0.27 0.20 0.16 0.16 0.20 0.23 0.27 0.30 0.29 0.25 0.25 0.23 0.20 0.17 0.14 0.10 0.06 0.04 0.03 0.02 0.01 0.00 0.00 0.00 0.00 0.00 0.00 0.00 0.01 0.01 0.00 0.00 0.00 0.01 0.00 0.01 0.01 0.01
0.15 0.33 0.63 0.74 0.61 0.52 0.50 0.42 0.37 0.41 0.46 0.38 0.30 0.27 0.27 0.24 0.20 0.14 0.11 0.08 0.05 0.04 0.03 0.02 0.01 0.01 0.00 0.00 0.00 0.00 0.00 0.00 0.00 0.01 0.01 0.00 0.00 0.00 0.00 0.01 0.01 0.00 0.00 0.01

GEFSCGP_prec_meanprecacc_048.txt.gz
Total_Precipitation_Accumulation
0.00 0.00 0.00 0.00 0.00 0.00 0.00 0.00 0.00 0.00 0.00 0.00 0.00 0.00 0.00 0.00 0.00 0.00 0.00 0.00 0.01 0.02 0.05 0.12 0.31 0.58 0.76 0.93 0.84 0.70 0.62 0.55 0.46 0.44 0.45 0.51 0.50 0.43 0.37 0.37 0.36 0.39 0.42 0.47
0.00 0.00 0.00 0.00 0.00 0.00 0.00 0.00 0.00 0.00 0.00 0.00 0.00 0.00 0.00 0.00 0.00 0.00 0.00 0.01 0.01 0.02 0.05 0.13 0.27 0.36 0.41 0.55 0.68 0.70 0.62 0.57 0.60 0.69 0.74 0.78 0.76 0.70 0.64 0.62 0.67 0.69 0.67 0.62
0.00 0.00 0.00 0.00 0.00 0.00 0.00 0.00 0.00 0.00 0.00 0.00 0.00 0.00 0.00 0.00 0.00 0.00 0.01 0.01 0.01 0.02 0.05 0.08 0.14 0.22 0.30 0.46 0.65 0.71 0.67 0.71 0.82 0.90 0.99 1.03 0.98 0.86 0.84 0.83 0.86 0.81 0.75 0.67
0.00 0.00 0.00 0.00 0.00 0.00 0.00 0.00 0.00 0.00 0.00 0.00 0.00 0.00 0.00 0.00 0.01 0.01 0.01 0.01 0.01 0.02 0.04 0.06 0.09 0.18 0.33 0.52 0.66 0.71 0.74 0.85 1.00 1.07 1.10 1.12 1.09 1.02 1.00 0.87 0.83 0.75 0.63 0.55
0.00 0.00 0.00 0.00 0.00 0.00 0.00 0.00 0.00 0.00 0.00 0.00 0.00 0.00 0.00 0.00 0.00 0.01 0.01 0.01 0.02 0.02 0.03 0.06 0.10 0.19 0.36 0.54 0.66 0.71 0.79 0.95 1.08 1.13 1.16 1.22 1.19 1.08 0.93 0.76 0.65 0.53 0.41 0.32
0.00 0.00 0.00 0.00 0.00 0.00 0.00 0.00 0.00 0.00 0.00 0.00 0.00 0.00 0.00 0.00 0.00 0.00 0.01 0.02 0.02 0.03 0.04 0.06 0.11 0.19 0.30 0.40 0.53 0.60 0.70 0.89 1.03 1.10 1.11 1.06 0.99 0.82 0.64 0.54 0.46 0.36 0.26 0.19
0.00 0.00 0.00 0.00 0.00 0.00 0.00 0.00 0.00 0.00 0.00 0.00 0.00 0.00 0.00 0.00 0.00 0.00 0.01 0.02 0.03 0.03 0.04 0.07 0.13 0.19 0.27 0.33 0.42 0.52 0.64 0.76 0.88 0.89 0.83 0.72 0.59 0.46 0.40 0.36 0.30 0.22 0.16 0.11
0.00 0.00 0.00 0.00 0.00 0.00 0.00 0.00 0.00 0.00 0.00 0.00 0.00 0.00 0.01 0.01 0.01 0.03 0.03 0.03 0.03 0.04 0.05 0.09 0.17 0.23 0.27 0.33 0.44 0.54 0.64 0.71 0.72 0.64 0.55 0.45 0.36 0.30 0.25 0.19 0.14 0.10 0.07 0.05
0.00 0.00 0.00 0.00 0.00 0.00 0.00 0.00 0.00 0.00 0.00 0.00 0.00 0.00 0.01 0.01 0.02 0.04 0.06 0.05 0.05 0.07 0.10 0.17 0.24 0.28 0.30 0.33 0.40 0.47 0.50 0.50 0.44 0.34 0.25 0.21 0.18 0.15 0.12 0.09 0.07 0.05 0.04 0.03
0.00 0.00 0.00 0.00 0.00 0.00 0.00 0.00 0.00 0.00 0.00 0.00 0.00 0.00 0.01 0.01 0.02 0.03 0.05 0.05 0.07 0.10 0.16 0.23 0.28 0.29 0.27 0.28 0.30 0.30 0.26 0.23 0.19 0.15 0.12 0.11 0.11 0.09 0.07 0.06 0.05 0.04 0.04 0.03
0.00 0.00 0.00 0.00 0.00 0.00 0.00 0.00 0.00 0.00 0.00 0.00 0.00 0.01 0.01 0.01 0.03 0.04 0.07 0.10 0.12 0.16 0.25 0.32 0.32 0.26 0.21 0.18 0.16 0.15 0.13 0.11 0.10 0.09 0.08 0.07 0.06 0.05 0.04 0.04 0.04 0.04 0.04 0.04
0.00 0.00 0.00 0.00 0.00 0.00 0.00 0.00 0.00 0.00 0.00 0.00 0.00 0.02 0.01 0.02 0.05 0.07 0.11 0.12 0.17 0.24 0.30 0.33 0.30 0.22 0.17 0.15 0.13 0.12 0.12 0.11 0.09 0.08 0.07 0.05 0.04 0.04 0.04 0.04 0.04 0.05 0.05 0.06
0.00 0.00 0.00 0.00 0.00 0.00 0.00 0.00 0.00 0.00 0.00 0.00 0.01 0.04 0.04 0.05 0.09 0.11 0.15 0.20 0.30 0.39 0.40 0.37 0.31 0.22 0.16 0.15 0.14 0.13 0.13 0.11 0.08 0.06 0.04 0.04 0.03 0.04 0.05 0.05 0.06 0.07 0.07 0.08
0.00 0.00 0.00 0.00 0.00 0.00 0.00 0.01 0.01 0.01 0.01 0.01 0.02 0.06 0.09 0.13 0.16 0.19 0.25 0.34 0.48 0.49 0.37 0.28 0.22 0.17 0.14 0.14 0.13 0.12 0.11 0.09 0.06 0.05 0.04 0.04 0.05 0.06 0.07 0.08 0.08 0.08 0.09 0.10
0.00 0.00 0.00 0.00 0.00 0.01 0.01 0.02 0.03 0.03 0.04 0.04 0.06 0.11 0.14 0.21 0.23 0.26 0.28 0.30 0.36 0.36 0.30 0.26 0.22 0.17 0.15 0.14 0.13 0.12 0.12 0.09 0.07 0.06 0.06 0.07 0.08 0.08 0.09 0.10 0.11 0.11 0.10 0.08
0.00 0.00 0.00 0.00 0.00 0.00 0.01 0.01 0.01 0.02 0.03 0.04 0.08 0.15 0.17 0.23 0.24 0.25 0.25 0.26 0.30 0.29 0.29 0.28 0.23 0.19 0.17 0.17 0.18 0.16 0.13 0.10 0.09 0.10 0.11 0.11 0.10 0.10 0.11 0.11 0.11 0.10 0.09 0.07
0.00 0.01 0.01 0.00 0.00 0.00 0.00 0.01 0.01 0.01 0.02 0.03 0.09 0.13 0.14 0.17 0.17 0.17 0.17 0.20 0.25 0.28 0.30 0.28 0.23 0.20 0.20 0.22 0.21 0.20 0.18 0.17 0.16 0.15 0.14 0.13 0.11 0.10 0.10 0.09 0.09 0.08 0.06 0.05
0.01 0.03 0.04 0.02 0.02 0.02 0.01 0.01 0.02 0.02 0.04 0.04 0.05 0.06 0.07 0.10 0.12 0.12 0.13 0.16 0.20 0.23 0.22 0.20 0.19 0.22 0.26 0.27 0.28 0.26 0.23 0.19 0.16 0.14 0.13 0.11 0.09 0.08 0.08 0.07 0.05 0.04 0.03 0.03
0.02 0.06 0.11 0.09 0.07 0.05 0.03 0.02 0.02 0.03 0.06 0.05 0.06 0.06 0.05 0.06 0.10 0.09 0.09 0.10 0.14 0.16 0.18 0.20 0.24 0.30 0.34 0.33 0.28 0.22 0.17 0.14 0.12 0.10 0.09 0.07 0.05 0.04 0.03 0.02 0.02 0.02 0.03 0.03
0.02 0.06 0.16 0.19 0.21 0.18 0.13 0.04 0.03 0.05 0.13 0.08 0.06 0.07 0.07 0.08 0.15 0.11 0.07 0.07 0.08 0.11 0.16 0.24 0.31 0.33 0.32 0.27 0.19 0.14 0.12 0.10 0.09 0.07 0.05 0.03 0.02 0.01 0.01 0.02 0.02 0.03 0.03 0.02
0.14 0.14 0.19 0.25 0.33 0.32 0.19 0.09 0.09 0.17 0.20 0.15 0.12 0.12 0.14 0.16 0.17 0.12 0.08 0.08 0.12 0.17 0.23 0.28 0.29 0.28 0.22 0.16 0.12 0.11 0.09 0.07 0.04 0.02 0.01 0.01 0.01 0.01 0.01 0.01 0.02 0.02 0.02 0.02
0.33 0.33 0.33 0.37 0.42 0.41 0.18 0.13 0.18 0.23 0.16 0.16 0.15 0.14 0.16 0.16 0.15 0.15 0.15 0.17 0.21 0.25 0.30 0.30 0.26 0.20 0.13 0.08 0.06 0.06 0.05 0.03 0.01 0.00 0.01 0.01 0.00 0.00 0.00 0.01 0.01 0.02 0.02 0.01
0.40 0.43 0.44 0.46 0.49 0.36 0.20 0.13 0.10 0.12 0.12 0.13 0.17 0.19 0.21 0.22 0.22 0.22 0.24 0.27 0.29 0.30 0.27 0.22 0.16 0.11 0.07 0.04 0.03 0.03 0.02 0.01 0.00 0.01 0.01 0.01 0.00 0.00 0.00 0.01 0.01 0.01 0.01 0.01
0.45 0.38 0.41 0.41 0.40 0.29 0.19 0.12 0.09 0.08 0.10 0.12 0.17 0.24 0.27 0.27 0.24 0.24 0.24 0.25 0.24 0.21 0.16 0.10 0.06 0.04 0.03 0.01 0.01 0.01 0.00 0.00 0.00 0.00 0.01 0.01 0.00 0.00 0.00 0.00 0.00 0.01 0.01 0.01
0.33 0.42 0.56 0.57 0.51 0.38 0.28 0.20 0.16 0.16 0.20 0.23 0.27 0.30 0.30 0.26 0.26 0.24 0.21 0.18 0.14 0.10 0.06 0.04 0.03 0.02 0.01 0.00 0.00 0.00 0.00 0.00 0.00 0.00 0.01 0.01 0.00 0.00 0.00 0.01 0.00 0.01 0.01 0.01
0.15 0.34 0.64 0.74 0.61 0.52 0.50 0.42 0.37 0.41 0.46 0.39 0.31 0.28 0.29 0.26 0.22 0.16 0.11 0.08 0.05 0.04 0.03 0.02 0.01 0.01 0.00 0.00 0.00 0.00 0.00 0.00 0.00 0.01 0.01 0.00 0.00 0.00 0.00 0.01 0.01 0.00 0.00 0.01

GEFSCGP_prec_meanprecacc_054.txt.gz
Total_Precipitation_Accumulation
0.00 0.00 0.00 0.00 0.00 0.00 0.00 0.00 0.00 0.00 0.00 0.00 0.00 0.00 0.00 0.00 0.00 0.00 0.00 0.00 0.01 0.02 0.05 0.12 0.31 0.58 0.77 0.94 0.85 0.70 0.63 0.58 0.54 0.55 0.60 0.71 0.83 0.82 0.70 0.63 0.60 0.61 0.66 0.75
0.00 0.00 0.00 0.00 0.00 0.00 0.00 0.00 0.00 0.00 0.00 0.00 0.00 0.00 0.00 0.00 0.00 0.00 0.00 0.01 0.01 0.02 0.05 0.13 0.27 0.36 0.42 0.57 0.70 0.71 0.64 0.65 0.74 0.91 1.06 1.25 1.34 1.25 1.12 1.04 1.03 1.05 1.03 0.98
0.00 0.00 0.00 0.00 0.00 0.00 0.00 0.00 0.00 0.00 0.00 0.00 0.00 0.00 0.00 0.00 0.00 0.00 0.01 0.01 0.01 0.02 0.05 0.08 0.14 0.22 0.31 0.48 0.68 0.72 0.69 0.80 1.00 1.20 1.48 1.67 1.63 1.51 1.49 1.44 1.41 1.32 1.19 1.09
0.00 0.00 0.00 0.00 0.00 0.00 0.00 0.00 0.00 0.00 0.00 0.00 0.00 0.00 0.00 0.00 0.01 0.01 0.01 0.01 0.01 0.02 0.04 0.06 0.09 0.18 0.34 0.54 0.68 0.73 0.76 0.92 1.17 1.37 1.56 1.68 1.69 1.68 1.70 1.50 1.35 1.20 1.06 0.98
0.00 0.00 0.00 0.00 0.00 0.00 0.00 0.00 0.00 0.00 0.00 0.00 0.00 0.00 0.00 0.00 0.00 0.01 0.01 0.01 0.02 0.02 0.04 0.06 0.10 0.19 0.37 0.55 0.67 0.74 0.81 1.01 1.22 1.38 1.48 1.62 1.74 1.70 1.51 1.22 1.03 0.88 0.78 0.71
0.00 0.00 0.00 0.00 0.00 0.00 0.00 0.00 0.00 0.00 0.00 0.00 0.00 0.00 0.00 0.00 0.00 0.01 0.01 0.02 0.03 0.03 0.04 0.07 0.12 0.19 0.31 0.41 0.54 0.62 0.72 0.95 1.16 1.31 1.37 1.41 1.43 1.28 1.03 0.84 0.71 0.59 0.52 0.46
0.00 0.00 0.00 0.00 0.00 0.00 0.00 0.00 0.00 0.00 0.00 0.00 0.00 0.00 0.00 0.01 0.01 0.01 0.01 0.03 0.04 0.04 0.05 0.08 0.14 0.20 0.29 0.35 0.44 0.55 0.68 0.83 1.00 1.09 1.08 1.00 0.86 0.73 0.64 0.58 0.51 0.41 0.33 0.27
0.00 0.00 0.00 0.00 0.00 0.00 0.00 0.00 0.00 0.00 0.00 0.00 0.00 0.00 0.01 0.02 0.02 0.03 0.04 0.04 0.05 0.06 0.07 0.11 0.18 0.25 0.30 0.36 0.47 0.59 0.70 0.81 0.89 0.83 0.73 0.60 0.51 0.43 0.40 0.33 0.24 0.18 0.13 0.11
0.00 0.00 0.00 0.00 0.00 0.00 0.00 0.00 0.00 0.00 0.00 0.00 0.00 0.00 0.01 0.02 0.03 0.05 0.07 0.07 0.07 0.09 0.12 0.19 0.26 0.30 0.33 0.37 0.44 0.51 0.56 0.59 0.56 0.45 0.36 0.31 0.26 0.21 0.17 0.13 0.09 0.07 0.06 0.04
0.00 0.00 0.00 0.00 0.00 0.00 0.00 0.00 0.00 0.00 0.00 0.00 0.00 0.00 0.01 0.02 0.03 0.05 0.06 0.08 0.10 0.13 0.19 0.26 0.31 0.31 0.30 0.31 0.35 0.34 0.31 0.28 0.24 0.19 0.16 0.14 0.13 0.11 0.09 0.07 0.06 0.06 0.05 0.04
0.00 0.00 0.00 0.00 0.00 0.00 0.00 0.00 0.00 0.00 0.00 0.00 0.00 0.01 0.01 0.02 0.04 0.06 0.09 0.13 0.15 0.19 0.27 0.35 0.34 0.28 0.24 0.21 0.19 0.18 0.15 0.13 0.11 0.10 0.09 0.08 0.07 0.05 0.04 0.04 0.05 0.05 0.05 0.05
0.00 0.00 0.00 0.00 0.00 0.00 0.00 0.00 0.00 0.00 0.00 0.00 0.00 0.02 0.02 0.03 0.06 0.09 0.13 0.15 0.20 0.27 0.33 0.36 0.33 0.25 0.19 0.17 0.15 0.13 0.13 0.12 0.10 0.09 0.07 0.06 0.04 0.04 0.04 0.04 0.05 0.05 0.06 0.07
0.00 0.00 0.00 0.00 0.00 0.00 0.00 0.00 0.00 0.00 0.00 0.00 0.01 0.05 0.05 0.07 0.11 0.13 0.17 0.23 0.34 0.41 0.43 0.39 0.33 0.23 0.17 0.15 0.14 0.14 0.13 0.11 0.08 0.06 0.04 0.04 0.03 0.04 0.05 0.05 0.06 0.07 0.08 0.08
0.00 0.01 0.01 0.01 0.01 0.01 0.01 0.01 0.01 0.01 0.01 0.01 0.03 0.07 0.11 0.16 0.19 0.23 0.28 0.37 0.51 0.52 0.40 0.30 0.23 0.18 0.15 0.14 0.14 0.12 0.11 0.09 0.06 0.05 0.04 0.04 0.05 0.06 0.08 0.08 0.09 0.09 0.09 0.10
0.00 0.01 0.01 0.01 0.01 0.01 0.02 0.03 0.03 0.03 0.04 0.04 0.06 0.12 0.17 0.25 0.28 0.30 0.31 0.34 0.40 0.39 0.33 0.28 0.23 0.18 0.16 0.14 0.13 0.13 0.12 0.09 0.07 0.06 0.06 0.07 0.08 0.09 0.10 0.11 0.12 0.12 0.11 0.09
0.00 0.01 0.01 0.01 0.01 0.01 0.01 0.01 0.02 0.03 0.04 0.05 0.09 0.17 0.22 0.30 0.32 0.33 0.31 0.31 0.35 0.32 0.31 0.29 0.24 0.20 0.18 0.18 0.18 0.16 0.13 0.11 0.09 0.10 0.11 0.11 0.10 0.11 0.12 0.12 0.12 0.11 0.09 0.08
0.00 0.01 0.01 0.01 0.01 0.01 0.01 0.01 0.02 0.02 0.02 0.05 0.12 0.17 0.20 0.26 0.28 0.29 0.28 0.28 0.31 0.32 0.34 0.30 0.24 0.21 0.21 0.22 0.21 0.20 0.18 0.17 0.16 0.15 0.14 0.13 0.12 0.11 0.11 0.10 0.10 0.09 0.07 0.05
0.01 0.03 0.04 0.02 0.03 0.04 0.03 0.02 0.02 0.04 0.05 0.06 0.07 0.09 0.12 0.19 0.24 0.24 0.25 0.28 0.31 0.31 0.28 0.24 0.22 0.23 0.26 0.28 0.28 0.26 0.23 0.19 0.16 0.15 0.14 0.12 0.10 0.09 0.08 0.07 0.06 0.04 0.03 0.03
0.02 0.07 0.12 0.10 0.09 0.08 0.07 0.04 0.03 0.06 0.11 0.08 0.09 0.09 0.10 0.12 0.16 0.16 0.15 0.18 0.21 0.22 0.22 0.23 0.26 0.31 0.35 0.34 0.29 0.22 0.18 0.14 0.13 0.12 0.10 0.08 0.06 0.05 0.03 0.03 0.03 0.03 0.03 0.03
0.03 0.07 0.17 0.21 0.24 0.21 0.17 0.06 0.05 0.10 0.21 0.12 0.11 0.11 0.13 0.15 0.22 0.16 0.12 0.13 0.13 0.14 0.18 0.26 0.32 0.34 0.33 0.29 0.20 0.16 0.14 0.12 0.10 0.08 0.06 0.04 0.02 0.01 0.01 0.02 0.03 0.03 0.03 0.02
0.15 0.16 0.21 0.28 0.37 0.36 0.20 0.10 0.13 0.25 0.26 0.20 0.18 0.17 0.18 0.19 0.21 0.15 0.10 0.11 0.14 0.19 0.25 0.29 0.31 0.29 0.23 0.17 0.13 0.12 0.10 0.08 0.05 0.03 0.01 0.01 0.01 0.01 0.01 0.02 0.02 0.03 0.02 0.02
0.35 0.35 0.36 0.40 0.46 0.46 0.19 0.15 0.24 0.28 0.18 0.20 0.20 0.18 0.19 0.19 0.17 0.16 0.16 0.19 0.22 0.26 0.31 0.31 0.27 0.21 0.14 0.09 0.07 0.07 0.06 0.03 0.01 0.01 0.01 0.01 0.01 0.00 0.01 0.01 0.02 0.02 0.02 0.01
0.41 0.44 0.45 0.49 0.54 0.39 0.21 0.15 0.13 0.14 0.16 0.17 0.21 0.21 0.23 0.23 0.23 0.23 0.25 0.27 0.30 0.30 0.28 0.22 0.17 0.12 0.08 0.04 0.03 0.04 0.03 0.01 0.01 0.01 0.01 0.01 0.01 0.01 0.01 0.01 0.01 0.01 0.01 0.01
0.46 0.38 0.43 0.44 0.44 0.32 0.21 0.14 0.12 0.11 0.13 0.15 0.19 0.25 0.28 0.27 0.25 0.24 0.25 0.25 0.25 0.22 0.16 0.11 0.07 0.05 0.03 0.02 0.01 0.01 0.01 0.01 0.01 0.01 0.01 0.01 0.01 0.01 0.01 0.01 0.01 0.01 0.02 0.02
0.34 0.43 0.58 0.59 0.54 0.40 0.30 0.22 0.17 0.17 0.21 0.24 0.28 0.31 0.30 0.27 0.26 0.25 0.22 0.19 0.15 0.10 0.06 0.04 0.03 0.03 0.02 0.01 0.01 0.01 0.01 0.01 0.01 0.01 0.01 0.01 0.01 0.01 0.01 0.01 0.01 0.01 0.02 0.01
0.16 0.34 0.65 0.76 0.63 0.54 0.52 0.45 0.38 0.41 0.46 0.39 0.31 0.28 0.30 0.27 0.23 0.17 0.12 0.09 0.06 0.04 0.03 0.02 0.02 0.01 0.01 0.00 0.01 0.01 0.01 0.01 0.01 0.01 0.01 0.01 0.01 0.01 0.01 0.01 0.02 0.01 0.00 0.01

GEFSCGP_prec_meanprecacc_060.txt.gz
Total_Precipitation_Accumulation
0.00 0.00 0.00 0.00 0.00 0.00 0.00 0.00 0.00 0.00 0.00 0.00 0.00 0.00 0.00 0.00 0.00 0.00 0.00 0.00 0.01 0.03 0.05 0.12 0.32 0.59 0.78 0.95 0.85 0.72 0.65 0.60 0.55 0.58 0.62 0.74 0.86 0.87 0.76 0.68 0.66 0.67 0.74 0.83
0.00 0.00 0.00 0.00 0.00 0.00 0.00 0.00 0.00 0.00 0.00 0.00 0.00 0.00 0.00 0.00 0.00 0.00 0.00 0.01 0.01 0.03 0.07 0.14 0.27 0.38 0.45 0.59 0.71 0.73 0.67 0.68 0.77 0.94 1.10 1.31 1.43 1.35 1.23 1.15 1.12 1.13 1.12 1.07
0.00 0.00 0.00 0.00 0.00 0.00 0.00 0.00 0.00 0.00 0.00 0.00 0.00 0.00 0.00 0.00 0.00 0.00 0.01 0.01 0.01 0.03 0.06 0.10 0.16 0.25 0.35 0.52 0.70 0.76 0.77 0.88 1.06 1.27 1.57 1.79 1.76 1.65 1.64 1.58 1.54 1.41 1.27 1.16
0.00 0.00 0.00 0.00 0.00 0.00 0.00 0.00 0.00 0.00 0.00 0.00 0.00 0.00 0.00 0.00 0.01 0.01 0.01 0.01 0.01 0.02 0.04 0.07 0.15 0.25 0.38 0.60 0.74 0.82 0.90 1.05 1.29 1.48 1.68 1.82 1.83 1.81 1.83 1.63 1.48 1.30 1.14 1.05
0.00 0.00 0.00 0.00 0.00 0.00 0.00 0.00 0.00 0.00 0.00 0.00 0.00 0.00 0.00 0.00 0.01 0.01 0.01 0.02 0.02 0.03 0.04 0.06 0.12 0.25 0.40 0.59 0.73 0.84 0.95 1.16 1.37 1.53 1.63 1.74 1.85 1.82 1.64 1.36 1.13 0.95 0.84 0.76
0.00 0.00 0.00 0.00 0.00 0.00 0.00 0.00 0.00 0.00 0.00 0.00 0.00 0.00 0.00 0.01 0.01 0.01 0.02 0.02 0.03 0.03 0.04 0.07 0.13 0.21 0.33 0.48 0.64 0.72 0.83 1.08 1.34 1.51 1.56 1.56 1.56 1.41 1.17 0.96 0.79 0.64 0.57 0.50
0.00 0.00 0.00 0.00 0.00 0.00 0.00 0.00 0.00 0.00 0.00 0.00 0.00 0.00 0.01 0.01 0.01 0.01 0.02 0.03 0.04 0.05 0.05 0.08 0.15 0.21 0.31 0.39 0.49 0.61 0.74 0.92 1.12 1.25 1.26 1.17 1.03 0.88 0.77 0.69 0.59 0.46 0.37 0.30
0.00 0.00 0.00 0.00 0.00 0.00 0.00 0.00 0.00 0.00 0.00 0.00 0.00 0.01 0.03 0.02 0.03 0.04 0.05 0.04 0.05 0.06 0.08 0.12 0.20 0.27 0.32 0.39 0.51 0.63 0.74 0.88 0.98 0.95 0.88 0.75 0.66 0.58 0.52 0.42 0.29 0.20 0.15 0.11
0.00 0.00 0.00 0.00 0.00 0.00 0.00 0.00 0.00 0.00 0.00 0.00 0.00 0.01 0.04 0.03 0.04 0.06 0.08 0.07 0.08 0.10 0.14 0.21 0.28 0.32 0.36 0.40 0.47 0.54 0.60 0.65 0.64 0.55 0.48 0.42 0.37 0.30 0.23 0.16 0.11 0.08 0.06 0.05
0.00 0.01 0.00 0.00 0.00 0.00 0.00 0.00 0.00 0.00 0.00 0.00 0.00 0.02 0.03 0.05 0.05 0.07 0.07 0.09 0.11 0.15 0.20 0.28 0.33 0.34 0.33 0.34 0.38 0.38 0.36 0.33 0.30 0.26 0.23 0.20 0.17 0.13 0.10 0.08 0.07 0.06 0.05 0.05
0.00 0.01 0.01 0.00 0.00 0.00 0.00 0.00 0.00 0.00 0.00 0.00 0.01 0.05 0.07 0.09 0.11 0.11 0.13 0.14 0.16 0.20 0.29 0.37 0.37 0.31 0.26 0.23 0.23 0.24 0.21 0.18 0.16 0.15 0.13 0.11 0.09 0.06 0.05 0.04 0.05 0.05 0.05 0.05
0.00 0.00 0.02 0.01 0.00 0.00 0.00 0.00 0.00 0.00 0.00 0.00 0.01 0.10 0.09 0.19 0.26 0.22 0.19 0.17 0.22 0.28 0.34 0.37 0.35 0.27 0.22 0.21 0.19 0.18 0.17 0.16 0.14 0.12 0.09 0.07 0.06 0.04 0.04 0.04 0.05 0.05 0.06 0.07
0.00 0.01 0.03 0.03 0.02 0.01 0.00 0.00 0.00 0.00 0.00 0.00 0.02 0.16 0.18 0.26 0.32 0.26 0.22 0.25 0.36 0.44 0.45 0.42 0.36 0.26 0.20 0.18 0.17 0.16 0.16 0.14 0.10 0.07 0.05 0.04 0.04 0.04 0.05 0.06 0.07 0.07 0.08 0.09
0.01 0.02 0.05 0.13 0.10 0.04 0.02 0.01 0.01 0.01 0.01 0.03 0.05 0.18 0.25 0.30 0.34 0.32 0.34 0.41 0.53 0.55 0.43 0.33 0.27 0.20 0.17 0.16 0.15 0.14 0.12 0.10 0.07 0.05 0.04 0.04 0.05 0.07 0.08 0.09 0.09 0.09 0.10 0.10
0.01 0.01 0.03 0.06 0.06 0.06 0.06 0.05 0.05 0.04 0.05 0.07 0.13 0.26 0.36 0.45 0.50 0.47 0.40 0.40 0.45 0.43 0.37 0.32 0.26 0.21 0.18 0.16 0.15 0.14 0.13 0.10 0.07 0.06 0.06 0.08 0.09 0.09 0.10 0.11 0.12 0.12 0.11 0.09
0.01 0.02 0.03 0.04 0.05 0.06 0.06 0.06 0.05 0.05 0.07 0.10 0.19 0.36 0.50 0.64 0.68 0.58 0.46 0.41 0.44 0.40 0.38 0.35 0.28 0.23 0.20 0.20 0.20 0.18 0.15 0.12 0.10 0.11 0.12 0.12 0.11 0.11 0.13 0.12 0.12 0.11 0.10 0.08
0.02 0.03 0.04 0.04 0.03 0.03 0.07 0.07 0.05 0.07 0.10 0.14 0.24 0.35 0.44 0.53 0.56 0.54 0.49 0.45 0.46 0.45 0.45 0.40 0.33 0.28 0.27 0.27 0.25 0.23 0.21 0.19 0.18 0.16 0.15 0.14 0.12 0.12 0.11 0.10 0.10 0.09 0.07 0.06
0.03 0.06 0.07 0.05 0.09 0.15 0.15 0.08 0.08 0.13 0.13 0.15 0.22 0.26 0.33 0.40 0.41 0.41 0.44 0.48 0.52 0.54 0.51 0.45 0.40 0.39 0.39 0.38 0.35 0.31 0.26 0.21 0.18 0.16 0.14 0.12 0.10 0.09 0.09 0.08 0.06 0.05 0.04 0.04
0.03 0.09 0.17 0.15 0.16 0.20 0.24 0.11 0.09 0.19 0.23 0.19 0.18 0.18 0.21 0.23 0.27 0.28 0.28 0.33 0.40 0.42 0.42 0.41 0.41 0.45 0.47 0.44 0.36 0.27 0.20 0.16 0.13 0.12 0.10 0.08 0.07 0.05 0.04 0.04 0.04 0.04 0.04 0.04
0.03 0.08 0.22 0.28 0.32 0.35 0.34 0.13 0.09 0.18 0.33 0.22 0.22 0.21 0.24 0.27 0.33 0.27 0.23 0.26 0.27 0.28 0.31 0.37 0.42 0.42 0.39 0.33 0.24 0.18 0.15 0.12 0.11 0.08 0.06 0.04 0.03 0.02 0.02 0.03 0.04 0.05 0.04 0.04
0.19 0.20 0.27 0.36 0.47 0.47 0.24 0.12 0.16 0.35 0.39 0.32 0.33 0.33 0.32 0.32 0.33 0.24 0.18 0.20 0.23 0.28 0.33 0.36 0.36 0.33 0.27 0.20 0.15 0.13 0.11 0.09 0.06 0.04 0.02 0.02 0.02 0.01 0.01 0.03 0.05 0.05 0.04 0.04
0.38 0.40 0.43 0.48 0.56 0.56 0.22 0.16 0.27 0.34 0.26 0.29 0.31 0.27 0.27 0.26 0.23 0.21 0.21 0.24 0.27 0.32 0.35 0.35 0.31 0.24 0.16 0.11 0.09 0.09 0.07 0.04 0.02 0.02 0.02 0.02 0.01 0.01 0.01 0.03 0.05 0.05 0.04 0.04
0.43 0.47 0.50 0.56 0.61 0.44 0.23 0.16 0.14 0.17 0.21 0.24 0.27 0.25 0.25 0.26 0.25 0.26 0.29 0.31 0.33 0.33 0.31 0.25 0.19 0.14 0.09 0.06 0.05 0.06 0.04 0.02 0.02 0.02 0.02 0.02 0.02 0.01 0.01 0.03 0.04 0.04 0.04 0.04
0.48 0.40 0.46 0.49 0.50 0.36 0.23 0.16 0.13 0.13 0.16 0.21 0.25 0.29 0.30 0.29 0.27 0.27 0.27 0.28 0.27 0.24 0.19 0.13 0.08 0.06 0.05 0.03 0.03 0.03 0.02 0.01 0.03 0.04 0.03 0.03 0.04 0.04 0.03 0.04 0.03 0.03 0.04 0.03
0.35 0.46 0.62 0.65 0.61 0.45 0.34 0.23 0.19 0.20 0.24 0.27 0.31 0.33 0.32 0.28 0.28 0.26 0.24 0.20 0.17 0.12 0.08 0.06 0.04 0.04 0.03 0.02 0.02 0.02 0.02 0.02 0.03 0.04 0.04 0.04 0.04 0.04 0.05 0.05 0.02 0.01 0.02 0.01
0.16 0.36 0.69 0.82 0.69 0.59 0.56 0.47 0.41 0.45 0.50 0.41 0.33 0.30 0.32 0.29 0.25 0.19 0.14 0.11 0.07 0.05 0.05 0.04 0.03 0.02 0.01 0.01 0.01 0.01 0.01 0.01 0.02 0.03 0.03 0.03 0.02 0.02 0.02 0.04 0.04 0.01 0.01 0.01

GEFSCGP_prec_meanprecacc_066.txt.gz
Total_Precipitation_Accumulation
0.00 0.00 0.00 0.00 0.00 0.00 0.00 0.00 0.00 0.00 0.00 0.00 0.00 0.00 0.00 0.00 0.00 0.00 0.00 0.00 0.01 0.03 0.07 0.16 0.37 0.68 0.86 1.02 0.92 0.81 0.75 0.67 0.61 0.63 0.67 0.78 0.90 0.92 0.80 0.72 0.69 0.71 0.78 0.88
0.00 0.00 0.00 0.00 0.00 0.00 0.00 0.00 0.00 0.00 0.00 0.00 0.00 0.00 0.00 0.00 0.00 0.00 0.00 0.01 0.01 0.03 0.09 0.18 0.34 0.48 0.55 0.69 0.83 0.82 0.74 0.75 0.84 1.02 1.18 1.40 1.52 1.43 1.30 1.23 1.19 1.21 1.21 1.17
0.00 0.00 0.00 0.00 0.00 0.00 0.00 0.00 0.00 0.00 0.00 0.00 0.00 0.00 0.00 0.00 0.00 0.01 0.01 0.01 0.02 0.04 0.09 0.15 0.24 0.39 0.50 0.65 0.84 0.89 0.91 1.04 1.24 1.44 1.74 1.98 1.92 1.79 1.79 1.73 1.69 1.58 1.44 1.31
0.00 0.00 0.00 0.00 0.00 0.00 0.00 0.00 0.00 0.00 0.00 0.00 0.00 0.00 0.00 0.01 0.01 0.01 0.01 0.01 0.02 0.03 0.06 0.12 0.22 0.40 0.61 0.80 0.94 1.04 1.16 1.39 1.67 1.87 2.05 2.13 2.10 2.06 2.07 1.87 1.71 1.52 1.32 1.22
0.00 0.00 0.00 0.00 0.00 0.00 0.00 0.00 0.00 0.00 0.00 0.00 0.00 0.00 0.00 0.01 0.01 0.01 0.02 0.02 0.03 0.04 0.05 0.09 0.17 0.33 0.54 0.77 1.02 1.19 1.32 1.59 1.82 1.98 2.10 2.19 2.26 2.20 2.03 1.69 1.40 1.17 1.05 0.97
0.00 0.00 0.00 0.00 0.00 0.00 0.00 0.00 0.00 0.00 0.00 0.00 0.00 0.00 0.01 0.02 0.01 0.01 0.02 0.03 0.04 0.05 0.06 0.10 0.17 0.26 0.41 0.60 0.85 1.02 1.17 1.54 1.87 2.03 2.05 2.07 2.06 1.88 1.60 1.31 1.07 0.92 0.81 0.72
0.00 0.00 0.00 0.00 0.00 0.00 0.00 0.00 0.00 0.00 0.00 0.00 0.00 0.00 0.04 0.04 0.03 0.03 0.03 0.05 0.07 0.07 0.08 0.11 0.19 0.27 0.39 0.51 0.70 0.91 1.09 1.30 1.56 1.69 1.68 1.64 1.50 1.31 1.17 1.05 0.89 0.71 0.58 0.47
0.00 0.00 0.00 0.00 0.00 0.00 0.00 0.00 0.00 0.00 0.00 0.00 0.00 0.03 0.11 0.07 0.06 0.06 0.07 0.08 0.09 0.10 0.11 0.15 0.24 0.32 0.38 0.48 0.65 0.84 0.99 1.12 1.22 1.22 1.16 1.03 0.94 0.85 0.77 0.66 0.49 0.37 0.28 0.21
0.02 0.01 0.00 0.00 0.00 0.00 0.00 0.00 0.00 0.00 0.00 0.00 0.01 0.08 0.18 0.15 0.13 0.13 0.13 0.12 0.12 0.14 0.17 0.24 0.32 0.36 0.40 0.45 0.54 0.63 0.70 0.76 0.73 0.67 0.63 0.57 0.53 0.45 0.37 0.28 0.20 0.14 0.11 0.08
0.02 0.02 0.00 0.00 0.00 0.00 0.00 0.00 0.00 0.00 0.00 0.00 0.01 0.08 0.17 0.21 0.22 0.20 0.17 0.16 0.17 0.19 0.24 0.31 0.36 0.37 0.36 0.38 0.42 0.42 0.40 0.39 0.37 0.35 0.34 0.31 0.28 0.23 0.19 0.15 0.12 0.10 0.08 0.06
0.02 0.03 0.03 0.01 0.00 0.00 0.00 0.00 0.00 0.00 0.00 0.00 0.02 0.12 0.20 0.29 0.32 0.29 0.27 0.24 0.22 0.25 0.32 0.39 0.40 0.34 0.29 0.26 0.26 0.27 0.25 0.24 0.23 0.22 0.22 0.20 0.17 0.13 0.10 0.08 0.08 0.07 0.07 0.06
0.01 0.02 0.06 0.03 0.01 0.01 0.01 0.00 0.00 0.00 0.00 0.00 0.03 0.19 0.27 0.48 0.56 0.50 0.44 0.34 0.32 0.35 0.40 0.42 0.39 0.30 0.25 0.24 0.23 0.22 0.22 0.22 0.21 0.18 0.15 0.13 0.11 0.09 0.08 0.07 0.07 0.07 0.07 0.07
0.01 0.02 0.06 0.06 0.04 0.02 0.01 0.01 0.00 0.00 0.00 0.01 0.05 0.26 0.36 0.51 0.60 0.50 0.43 0.42 0.48 0.53 0.53 0.49 0.42 0.32 0.24 0.22 0.20 0.20 0.19 0.17 0.13 0.10 0.09 0.08 0.08 0.07 0.07 0.07 0.08 0.09 0.09 0.09
0.01 0.04 0.10 0.20 0.16 0.07 0.03 0.02 0.02 0.02 0.02 0.05 0.11 0.30 0.41 0.51 0.53 0.50 0.50 0.55 0.67 0.67 0.54 0.43 0.36 0.28 0.23 0.21 0.19 0.17 0.15 0.13 0.09 0.07 0.06 0.06 0.07 0.08 0.08 0.09 0.09 0.09 0.10 0.11
0.01 0.04 0.08 0.13 0.09 0.09 0.09 0.08 0.08 0.08 0.09 0.13 0.23 0.39 0.55 0.70 0.76 0.74 0.68 0.64 0.65 0.62 0.54 0.47 0.38 0.31 0.26 0.23 0.20 0.18 0.17 0.13 0.09 0.08 0.07 0.09 0.09 0.10 0.11 0.11 0.12 0.12 0.11 0.09
0.02 0.04 0.08 0.11 0.10 0.10 0.13 0.13 0.12 0.13 0.21 0.27 0.36 0.57 0.77 0.89 0.93 0.87 0.77 0.69 0.67 0.61 0.56 0.51 0.42 0.35 0.31 0.30 0.29 0.25 0.21 0.17 0.14 0.13 0.14 0.13 0.12 0.12 0.13 0.13 0.12 0.11 0.10 0.08
0.03 0.04 0.07 0.10 0.08 0.10 0.23 0.29 0.27 0.27 0.28 0.32 0.38 0.53 0.67 0.74 0.78 0.80 0.78 0.70 0.68 0.64 0.62 0.56 0.48 0.43 0.41 0.39 0.36 0.33 0.29 0.25 0.22 0.20 0.18 0.16 0.13 0.12 0.12 0.10 0.10 0.09 0.07 0.06
0.04 0.07 0.09 0.09 0.13 0.26 0.36 0.27 0.27 0.32 0.26 0.25 0.31 0.36 0.46 0.56 0.58 0.57 0.61 0.66 0.69 0.70 0.66 0.59 0.54 0.52 0.52 0.49 0.44 0.39 0.33 0.26 0.21 0.18 0.16 0.13 0.10 0.09 0.09 0.08 0.06 0.05 0.04 0.04
0.03 0.10 0.18 0.17 0.20 0.30 0.37 0.21 0.19 0.31 0.35 0.30 0.26 0.23 0.26 0.31 0.39 0.42 0.42 0.46 0.54 0.56 0.54 0.52 0.50 0.53 0.54 0.49 0.40 0.31 0.23 0.18 0.15 0.13 0.11 0.09 0.07 0.06 0.04 0.04 0.04 0.04 0.04 0.04
0.03 0.09 0.24 0.30 0.36 0.41 0.39 0.17 0.15 0.29 0.46 0.35 0.32 0.29 0.30 0.33 0.41 0.35 0.31 0.33 0.34 0.35 0.38 0.43 0.47 0.47 0.42 0.35 0.25 0.19 0.15 0.13 0.11 0.09 0.07 0.05 0.03 0.03 0.03 0.03 0.04 0.05 0.04 0.04
0.19 0.21 0.28 0.39 0.52 0.52 0.27 0.14 0.20 0.40 0.47 0.40 0.42 0.43 0.40 0.39 0.39 0.30 0.23 0.25 0.27 0.32 0.36 0.39 0.38 0.34 0.28 0.20 0.15 0.13 0.12 0.10 0.06 0.04 0.02 0.02 0.02 0.01 0.02 0.03 0.05 0.05 0.04 0.05
0.39 0.41 0.44 0.50 0.59 0.58 0.23 0.17 0.29 0.36 0.29 0.33 0.36 0.31 0.31 0.31 0.28 0.26 0.25 0.27 0.29 0.33 0.37 0.36 0.31 0.24 0.17 0.11 0.09 0.09 0.07 0.05 0.02 0.02 0.02 0.02 0.01 0.01 0.01 0.03 0.05 0.05 0.04 0.04
0.43 0.48 0.51 0.57 0.63 0.46 0.24 0.17 0.16 0.19 0.22 0.25 0.28 0.26 0.26 0.27 0.27 0.28 0.31 0.33 0.35 0.34 0.32 0.26 0.19 0.14 0.10 0.07 0.06 0.06 0.04 0.02 0.02 0.02 0.02 0.03 0.02 0.02 0.02 0.03 0.04 0.04 0.04 0.04
0.49 0.41 0.46 0.50 0.52 0.38 0.25 0.17 0.14 0.13 0.17 0.22 0.26 0.29 0.31 0.30 0.28 0.28 0.29 0.30 0.29 0.25 0.19 0.14 0.09 0.07 0.06 0.04 0.04 0.04 0.02 0.02 0.03 0.04 0.04 0.04 0.04 0.04 0.04 0.05 0.03 0.04 0.04 0.03
0.36 0.47 0.63 0.67 0.63 0.47 0.35 0.24 0.19 0.21 0.25 0.28 0.32 0.34 0.33 0.29 0.29 0.27 0.25 0.21 0.17 0.13 0.09 0.06 0.05 0.05 0.03 0.02 0.02 0.02 0.02 0.02 0.04 0.04 0.04 0.04 0.04 0.04 0.05 0.06 0.03 0.02 0.02 0.01
0.16 0.36 0.69 0.83 0.70 0.61 0.57 0.47 0.42 0.46 0.52 0.44 0.34 0.31 0.33 0.29 0.25 0.19 0.15 0.11 0.08 0.06 0.05 0.04 0.03 0.02 0.01 0.01 0.01 0.01 0.01 0.01 0.02 0.03 0.03 0.03 0.03 0.03 0.03 0.05 0.05 0.02 0.01 0.01

GEFSCGP_prec_meanprecacc_072.txt.gz
Total_Precipitation_Accumulation
0.00 0.00 0.00 0.00 0.00 0.00 0.00 0.00 0.00 0.00 0.00 0.00 0.00 0.00 0.00 0.00 0.00 0.00 0.00 0.01 0.01 0.03 0.08 0.17 0.38 0.69 0.87 1.03 0.94 0.83 0.81 0.75 0.71 0.74 0.80 0.93 1.07 1.09 0.99 0.93 0.90 0.91 0.98 1.07
0.00 0.00 0.00 0.00 0.00 0.00 0.00 0.00 0.00 0.00 0.00 0.00 0.00 0.00 0.00 0.00 0.00 0.00 0.01 0.01 0.01 0.04 0.10 0.19 0.35 0.49 0.57 0.71 0.86 0.86 0.81 0.86 0.98 1.21 1.42 1.69 1.84 1.77 1.64 1.54 1.49 1.52 1.51 1.45
0.00 0.00 0.00 0.00 0.00 0.00 0.00 0.00 0.00 0.00 0.00 0.00 0.00 0.00 0.01 0.01 0.01 0.01 0.01 0.01 0.02 0.05 0.11 0.17 0.26 0.41 0.54 0.70 0.89 0.96 1.01 1.20 1.44 1.74 2.14 2.45 2.45 2.31 2.25 2.11 2.05 1.93 1.78 1.65
0.00 0.00 0.00 0.00 0.00 0.00 0.00 0.00 0.00 0.00 0.00 0.00 0.00 0.00 0.01 0.01 0.01 0.02 0.02 0.02 0.03 0.05 0.08 0.15 0.26 0.46 0.68 0.89 1.05 1.17 1.33 1.63 1.99 2.27 2.55 2.74 2.76 2.64 2.57 2.32 2.13 1.92 1.70 1.57
0.00 0.00 0.00 0.00 0.00 0.00 0.00 0.00 0.00 0.00 0.00 0.00 0.00 0.00 0.01 0.02 0.02 0.02 0.03 0.04 0.05 0.06 0.08 0.13 0.22 0.40 0.63 0.89 1.18 1.37 1.52 1.88 2.24 2.45 2.57 2.70 2.83 2.80 2.58 2.18 1.85 1.60 1.41 1.29
0.00 0.00 0.00 0.00 0.00 0.00 0.00 0.00 0.00 0.00 0.00 0.00 0.00 0.00 0.01 0.04 0.03 0.03 0.04 0.05 0.07 0.08 0.10 0.15 0.22 0.34 0.50 0.71 0.99 1.19 1.38 1.84 2.27 2.47 2.54 2.60 2.59 2.38 2.02 1.67 1.40 1.23 1.13 1.03
0.00 0.00 0.00 0.00 0.00 0.00 0.00 0.00 0.00 0.00 0.00 0.00 0.00 0.01 0.06 0.07 0.05 0.04 0.05 0.08 0.10 0.10 0.12 0.17 0.25 0.34 0.47 0.60 0.83 1.07 1.30 1.57 1.89 2.08 2.10 2.08 1.97 1.77 1.60 1.43 1.24 1.06 0.91 0.78
0.01 0.00 0.00 0.00 0.00 0.00 0.00 0.00 0.00 0.00 0.00 0.00 0.01 0.05 0.14 0.10 0.08 0.08 0.09 0.10 0.11 0.13 0.15 0.21 0.32 0.41 0.49 0.59 0.78 1.02 1.20 1.37 1.49 1.52 1.50 1.37 1.25 1.17 1.10 0.96 0.79 0.65 0.51 0.41
0.02 0.01 0.00 0.00 0.00 0.00 0.00 0.00 0.00 0.00 0.00 0.00 0.02 0.12 0.24 0.21 0.16 0.16 0.16 0.14 0.15 0.18 0.21 0.30 0.39 0.45 0.51 0.57 0.67 0.80 0.90 0.98 0.95 0.85 0.81 0.77 0.72 0.65 0.56 0.45 0.34 0.28 0.23 0.17
0.03 0.02 0.01 0.00 0.00 0.00 0.00 0.00 0.00 0.00 0.00 0.00 0.02 0.11 0.23 0.28 0.28 0.25 0.22 0.21 0.21 0.24 0.29 0.36 0.43 0.46 0.47 0.49 0.54 0.55 0.54 0.54 0.51 0.48 0.46 0.43 0.40 0.34 0.29 0.24 0.20 0.17 0.15 0.12
0.03 0.04 0.03 0.01 0.01 0.00 0.00 0.00 0.00 0.00 0.00 0.00 0.02 0.15 0.26 0.37 0.38 0.34 0.33 0.30 0.28 0.30 0.38 0.46 0.47 0.43 0.40 0.38 0.37 0.38 0.38 0.35 0.33 0.33 0.31 0.28 0.24 0.19 0.16 0.14 0.12 0.11 0.09 0.08
0.03 0.03 0.06 0.04 0.02 0.02 0.01 0.01 0.00 0.00 0.00 0.00 0.03 0.22 0.33 0.55 0.63 0.56 0.49 0.40 0.39 0.41 0.45 0.49 0.46 0.39 0.34 0.34 0.34 0.32 0.33 0.31 0.29 0.26 0.24 0.20 0.17 0.13 0.12 0.11 0.11 0.10 0.10 0.10
0.03 0.03 0.07 0.08 0.06 0.03 0.02 0.02 0.01 0.00 0.01 0.01 0.06 0.30 0.42 0.57 0.66 0.56 0.48 0.47 0.55 0.60 0.61 0.57 0.51 0.41 0.34 0.31 0.29 0.27 0.25 0.23 0.18 0.14 0.13 0.13 0.12 0.12 0.12 0.11 0.11 0.11 0.11 0.11
0.02 0.05 0.12 0.22 0.18 0.09 0.04 0.04 0.03 0.02 0.03 0.06 0.13 0.32 0.45 0.56 0.59 0.56 0.56 0.62 0.76 0.77 0.63 0.54 0.46 0.37 0.31 0.28 0.26 0.23 0.21 0.17 0.14 0.10 0.09 0.08 0.09 0.10 0.11 0.11 0.11 0.11 0.11 0.12
0.02 0.05 0.10 0.14 0.11 0.11 0.10 0.09 0.09 0.10 0.11 0.17 0.26 0.42 0.59 0.76 0.82 0.81 0.75 0.72 0.76 0.73 0.65 0.59 0.49 0.42 0.35 0.30 0.25 0.22 0.20 0.15 0.12 0.10 0.10 0.11 0.11 0.11 0.12 0.12 0.13 0.13 0.11 0.09
0.03 0.05 0.09 0.13 0.11 0.11 0.14 0.15 0.15 0.17 0.25 0.33 0.41 0.61 0.84 0.97 0.99 0.93 0.84 0.80 0.79 0.73 0.69 0.63 0.54 0.46 0.40 0.37 0.36 0.31 0.26 0.21 0.18 0.17 0.17 0.16 0.14 0.13 0.14 0.13 0.13 0.11 0.10 0.08
0.03 0.05 0.08 0.12 0.10 0.11 0.24 0.31 0.30 0.31 0.34 0.41 0.46 0.62 0.78 0.85 0.88 0.90 0.87 0.81 0.80 0.78 0.77 0.71 0.62 0.54 0.50 0.47 0.42 0.38 0.33 0.28 0.24 0.21 0.19 0.16 0.14 0.13 0.12 0.10 0.10 0.09 0.07 0.06
0.04 0.07 0.10 0.09 0.15 0.28 0.38 0.29 0.30 0.35 0.29 0.31 0.38 0.44 0.56 0.66 0.68 0.69 0.74 0.78 0.82 0.83 0.78 0.71 0.65 0.62 0.59 0.55 0.49 0.43 0.35 0.27 0.22 0.19 0.16 0.13 0.11 0.10 0.09 0.08 0.06 0.05 0.04 0.04
0.03 0.10 0.19 0.17 0.20 0.31 0.39 0.22 0.21 0.34 0.39 0.33 0.31 0.32 0.34 0.38 0.46 0.53 0.55 0.57 0.67 0.70 0.68 0.64 0.59 0.59 0.58 0.53 0.43 0.32 0.25 0.19 0.15 0.13 0.11 0.09 0.08 0.06 0.04 0.04 0.04 0.04 0.04 0.04
0.03 0.09 0.24 0.30 0.37 0.43 0.41 0.18 0.17 0.31 0.49 0.41 0.39 0.36 0.38 0.41 0.48 0.46 0.42 0.45 0.47 0.48 0.50 0.54 0.55 0.53 0.46 0.38 0.27 0.20 0.16 0.13 0.12 0.10 0.08 0.06 0.04 0.03 0.03 0.04 0.05 0.05 0.04 0.04
0.19 0.21 0.29 0.39 0.52 0.53 0.27 0.15 0.21 0.43 0.49 0.44 0.48 0.48 0.45 0.46 0.47 0.38 0.32 0.36 0.39 0.42 0.45 0.46 0.44 0.39 0.30 0.21 0.16 0.14 0.12 0.10 0.07 0.04 0.02 0.02 0.02 0.02 0.02 0.03 0.05 0.05 0.04 0.05
0.39 0.41 0.44 0.50 0.59 0.59 0.24 0.17 0.31 0.38 0.30 0.35 0.41 0.37 0.37 0.36 0.34 0.33 0.33 0.35 0.37 0.39 0.42 0.40 0.34 0.26 0.18 0.12 0.09 0.10 0.08 0.05 0.02 0.02 0.02 0.02 0.01 0.01 0.01 0.03 0.05 0.05 0.04 0.04
0.43 0.48 0.51 0.57 0.63 0.46 0.24 0.17 0.16 0.19 0.23 0.27 0.30 0.28 0.29 0.30 0.30 0.31 0.34 0.37 0.38 0.37 0.34 0.27 0.20 0.15 0.10 0.07 0.06 0.06 0.04 0.02 0.02 0.02 0.02 0.03 0.02 0.02 0.02 0.03 0.04 0.04 0.04 0.04
0.49 0.41 0.46 0.51 0.52 0.38 0.25 0.17 0.14 0.13 0.17 0.22 0.26 0.30 0.32 0.32 0.30 0.30 0.31 0.32 0.31 0.26 0.20 0.14 0.09 0.07 0.06 0.04 0.04 0.04 0.02 0.02 0.03 0.04 0.04 0.04 0.04 0.04 0.04 0.05 0.03 0.04 0.04 0.04
0.36 0.47 0.63 0.67 0.63 0.47 0.35 0.24 0.19 0.21 0.25 0.29 0.33 0.35 0.34 0.31 0.31 0.29 0.27 0.23 0.18 0.14 0.09 0.07 0.05 0.05 0.03 0.02 0.02 0.02 0.02 0.02 0.04 0.04 0.04 0.04 0.04 0.04 0.05 0.06 0.03 0.02 0.03 0.01
0.16 0.36 0.69 0.83 0.70 0.61 0.57 0.47 0.42 0.46 0.52 0.44 0.36 0.33 0.34 0.31 0.27 0.20 0.16 0.12 0.08 0.06 0.05 0.04 0.03 0.02 0.01 0.01 0.01 0.01 0.01 0.01 0.02 0.03 0.03 0.03 0.03 0.03 0.03 0.05 0.05 0.02 0.01 0.01

GEFSCGP_prec_meanprecacc_078.txt.gz
Total_Precipitation_Accumulation
0.00 0.00 0.00 0.00 0.00 0.00 0.00 0.00 0.00 0.00 0.00 0.00 0.00 0.00 0.00 0.00 0.00 0.00 0.00 0.01 0.01 0.04 0.08 0.18 0.39 0.71 0.89 1.06 0.97 0.87 0.84 0.78 0.74 0.77 0.84 0.97 1.11 1.15 1.07 1.03 1.02 1.05 1.13 1.23
0.00 0.00 0.00 0.00 0.00 0.00 0.00 0.00 0.00 0.00 0.00 0.00 0.00 0.01 0.01 0.01 0.01 0.01 0.01 0.01 0.02 0.04 0.10 0.20 0.37 0.51 0.59 0.74 0.91 0.92 0.87 0.91 1.02 1.25 1.49 1.79 2.01 1.98 1.85 1.73 1.68 1.69 1.68 1.63
0.00 0.00 0.00 0.00 0.00 0.00 0.00 0.00 0.00 0.00 0.00 0.00 0.00 0.01 0.01 0.02 0.01 0.01 0.01 0.02 0.03 0.06 0.11 0.18 0.28 0.45 0.58 0.75 0.95 1.02 1.08 1.31 1.57 1.87 2.30 2.68 2.74 2.67 2.62 2.43 2.33 2.17 1.99 1.86
0.00 0.00 0.00 0.00 0.00 0.00 0.00 0.00 0.00 0.00 0.00 0.00 0.00 0.01 0.02 0.02 0.02 0.02 0.03 0.03 0.04 0.06 0.09 0.16 0.28 0.49 0.72 0.93 1.10 1.23 1.41 1.77 2.18 2.49 2.83 3.06 3.13 3.07 3.00 2.73 2.50 2.20 1.93 1.79
0.00 0.00 0.00 0.00 0.00 0.00 0.00 0.00 0.00 0.00 0.00 0.00 0.00 0.01 0.03 0.03 0.03 0.04 0.05 0.05 0.06 0.07 0.09 0.14 0.24 0.43 0.66 0.92 1.21 1.43 1.59 1.99 2.41 2.70 2.89 3.08 3.22 3.18 2.97 2.57 2.17 1.88 1.68 1.52
0.00 0.00 0.00 0.00 0.00 0.00 0.00 0.00 0.00 0.00 0.00 0.00 0.00 0.01 0.04 0.06 0.05 0.05 0.06 0.07 0.09 0.10 0.12 0.17 0.25 0.36 0.53 0.75 1.04 1.25 1.44 1.94 2.41 2.69 2.84 3.00 3.04 2.84 2.44 2.02 1.70 1.51 1.38 1.26
0.00 0.00 0.00 0.00 0.00 0.00 0.00 0.00 0.00 0.00 0.00 0.00 0.00 0.02 0.09 0.10 0.08 0.06 0.07 0.10 0.12 0.12 0.14 0.19 0.27 0.36 0.50 0.65 0.88 1.13 1.37 1.68 2.05 2.27 2.35 2.37 2.31 2.16 1.99 1.77 1.53 1.31 1.15 1.01
0.01 0.00 0.00 0.00 0.00 0.00 0.00 0.00 0.00 0.00 0.00 0.00 0.02 0.08 0.19 0.14 0.11 0.10 0.11 0.12 0.13 0.15 0.17 0.23 0.34 0.44 0.51 0.63 0.84 1.09 1.28 1.48 1.62 1.68 1.69 1.58 1.49 1.42 1.35 1.21 1.03 0.87 0.70 0.58
0.03 0.01 0.01 0.00 0.00 0.00 0.00 0.00 0.00 0.00 0.00 0.01 0.05 0.15 0.28 0.25 0.19 0.17 0.17 0.16 0.17 0.20 0.23 0.32 0.41 0.47 0.54 0.60 0.72 0.85 0.97 1.08 1.06 0.97 0.93 0.89 0.87 0.81 0.72 0.62 0.50 0.42 0.36 0.28
0.04 0.03 0.01 0.00 0.00 0.01 0.00 0.00 0.00 0.00 0.00 0.01 0.05 0.15 0.27 0.32 0.31 0.27 0.23 0.23 0.24 0.26 0.31 0.38 0.45 0.48 0.51 0.53 0.58 0.60 0.60 0.60 0.59 0.57 0.55 0.54 0.52 0.47 0.43 0.39 0.34 0.30 0.25 0.20
0.04 0.05 0.04 0.02 0.02 0.02 0.01 0.01 0.00 0.00 0.00 0.00 0.04 0.19 0.29 0.39 0.40 0.35 0.34 0.32 0.30 0.32 0.39 0.47 0.49 0.45 0.43 0.41 0.42 0.44 0.45 0.42 0.40 0.40 0.40 0.37 0.34 0.30 0.27 0.25 0.23 0.20 0.16 0.13
0.04 0.04 0.08 0.05 0.03 0.02 0.01 0.01 0.01 0.01 0.00 0.00 0.05 0.26 0.36 0.58 0.65 0.57 0.51 0.42 0.41 0.42 0.47 0.50 0.47 0.41 0.36 0.37 0.38 0.36 0.38 0.39 0.37 0.34 0.31 0.28 0.25 0.22 0.20 0.18 0.16 0.15 0.14 0.14
0.05 0.05 0.09 0.10 0.08 0.05 0.03 0.02 0.02 0.01 0.01 0.02 0.08 0.33 0.44 0.59 0.69 0.58 0.50 0.49 0.57 0.62 0.63 0.59 0.53 0.43 0.36 0.34 0.32 0.31 0.30 0.28 0.23 0.19 0.17 0.18 0.18 0.17 0.17 0.16 0.15 0.15 0.14 0.14
0.04 0.07 0.14 0.25 0.22 0.12 0.08 0.05 0.04 0.04 0.06 0.08 0.17 0.35 0.48 0.59 0.62 0.59 0.59 0.65 0.78 0.80 0.67 0.57 0.50 0.40 0.34 0.30 0.28 0.26 0.24 0.21 0.17 0.13 0.11 0.11 0.13 0.14 0.15 0.14 0.14 0.13 0.13 0.13
0.03 0.08 0.12 0.16 0.12 0.13 0.13 0.11 0.11 0.12 0.14 0.21 0.31 0.45 0.62 0.79 0.86 0.84 0.78 0.76 0.80 0.78 0.71 0.64 0.53 0.46 0.38 0.33 0.28 0.25 0.23 0.18 0.14 0.12 0.12 0.13 0.13 0.13 0.13 0.13 0.13 0.13 0.12 0.10
0.03 0.07 0.11 0.15 0.13 0.12 0.15 0.17 0.17 0.18 0.27 0.37 0.46 0.66 0.90 1.03 1.06 1.00 0.92 0.87 0.88 0.80 0.75 0.68 0.59 0.51 0.45 0.42 0.40 0.35 0.30 0.24 0.21 0.20 0.19 0.17 0.15 0.14 0.14 0.14 0.13 0.12 0.10 0.09
0.03 0.06 0.10 0.15 0.12 0.13 0.27 0.32 0.32 0.33 0.36 0.45 0.52 0.67 0.87 0.99 1.05 1.07 1.02 0.94 0.91 0.86 0.84 0.78 0.69 0.61 0.56 0.52 0.47 0.42 0.37 0.32 0.28 0.24 0.21 0.17 0.14 0.13 0.13 0.11 0.10 0.09 0.07 0.06
0.05 0.08 0.11 0.11 0.17 0.31 0.41 0.31 0.32 0.37 0.32 0.34 0.43 0.51 0.64 0.78 0.84 0.87 0.91 0.92 0.95 0.94 0.90 0.81 0.74 0.70 0.66 0.60 0.53 0.47 0.38 0.30 0.24 0.20 0.17 0.14 0.11 0.10 0.09 0.08 0.07 0.05 0.04 0.04
0.03 0.11 0.19 0.18 0.22 0.33 0.41 0.24 0.23 0.37 0.42 0.35 0.33 0.38 0.44 0.47 0.56 0.69 0.73 0.74 0.82 0.85 0.83 0.76 0.69 0.66 0.64 0.57 0.46 0.34 0.26 0.20 0.17 0.14 0.12 0.11 0.09 0.07 0.05 0.04 0.04 0.05 0.05 0.04
0.03 0.09 0.25 0.31 0.38 0.44 0.43 0.18 0.17 0.34 0.54 0.44 0.43 0.42 0.48 0.52 0.60 0.60 0.58 0.62 0.67 0.68 0.67 0.66 0.64 0.58 0.50 0.40 0.28 0.21 0.17 0.14 0.12 0.10 0.08 0.06 0.04 0.04 0.04 0.04 0.05 0.05 0.05 0.04
0.20 0.21 0.29 0.40 0.53 0.54 0.28 0.15 0.23 0.46 0.54 0.47 0.52 0.54 0.54 0.58 0.59 0.48 0.43 0.49 0.55 0.57 0.58 0.55 0.51 0.45 0.35 0.24 0.17 0.15 0.13 0.11 0.07 0.04 0.03 0.02 0.02 0.02 0.02 0.04 0.05 0.05 0.05 0.05
0.39 0.41 0.44 0.51 0.59 0.59 0.24 0.18 0.34 0.42 0.32 0.39 0.45 0.43 0.45 0.44 0.45 0.43 0.42 0.45 0.47 0.50 0.51 0.48 0.41 0.32 0.21 0.13 0.10 0.10 0.08 0.05 0.03 0.02 0.02 0.02 0.02 0.01 0.01 0.04 0.06 0.06 0.05 0.05
0.43 0.48 0.52 0.57 0.63 0.46 0.24 0.18 0.18 0.22 0.26 0.30 0.34 0.34 0.38 0.39 0.39 0.39 0.41 0.44 0.46 0.44 0.39 0.32 0.24 0.17 0.12 0.08 0.07 0.07 0.05 0.03 0.02 0.02 0.03 0.03 0.02 0.02 0.02 0.03 0.05 0.05 0.05 0.05
0.49 0.41 0.46 0.51 0.52 0.38 0.25 0.17 0.14 0.15 0.19 0.24 0.29 0.33 0.37 0.38 0.36 0.35 0.36 0.37 0.35 0.30 0.23 0.17 0.11 0.08 0.07 0.05 0.05 0.05 0.03 0.02 0.03 0.05 0.04 0.04 0.05 0.05 0.04 0.05 0.04 0.04 0.05 0.05
0.36 0.47 0.63 0.67 0.63 0.47 0.35 0.24 0.19 0.21 0.25 0.29 0.34 0.37 0.36 0.34 0.34 0.32 0.30 0.26 0.21 0.16 0.11 0.08 0.07 0.06 0.04 0.03 0.03 0.02 0.02 0.02 0.04 0.05 0.04 0.05 0.04 0.04 0.06 0.06 0.03 0.02 0.03 0.01
0.16 0.37 0.69 0.83 0.70 0.61 0.57 0.47 0.42 0.46 0.52 0.45 0.37 0.34 0.36 0.32 0.28 0.22 0.18 0.14 0.10 0.07 0.06 0.05 0.04 0.03 0.02 0.02 0.01 0.01 0.01 0.01 0.03 0.04 0.04 0.04 0.03 0.03 0.03 0.05 0.05 0.02 0.01 0.01

GEFSCGP_prec_meanprecacc_084.txt.gz
Total_Precipitation_Accumulation
0.00 0.00 0.00 0.00 0.00 0.00 0.00 0.00 0.00 0.00 0.00 0.00 0.01 0.01 0.01 0.01 0.01 0.02 0.03 0.02 0.05 0.08 0.15 0.30 0.58 0.83 0.94 1.10 1.02 0.93 0.90 0.83 0.78 0.82 0.89 1.02 1.17 1.22 1.15 1.11 1.09 1.12 1.20 1.31
0.00 0.00 0.00 0.00 0.00 0.00 0.00 0.00 0.00 0.00 0.00 0.00 0.01 0.01 0.02 0.01 0.02 0.04 0.07 0.06 0.07 0.13 0.22 0.37 0.55 0.70 0.73 0.84 1.01 1.02 0.96 0.98 1.07 1.31 1.56 1.87 2.09 2.07 1.97 1.85 1.79 1.79 1.76 1.70
0.00 0.00 0.00 0.00 0.00 0.00 0.00 0.00 0.00 0.00 0.00 0.01 0.01 0.02 0.03 0.03 0.02 0.03 0.05 0.07 0.09 0.13 0.21 0.37 0.45 0.58 0.73 0.96 1.15 1.21 1.24 1.43 1.68 1.97 2.39 2.78 2.84 2.78 2.75 2.56 2.46 2.29 2.08 1.94
0.00 0.00 0.00 0.00 0.00 0.00 0.00 0.00 0.00 0.00 0.00 0.00 0.01 0.05 0.08 0.06 0.04 0.03 0.05 0.05 0.07 0.09 0.14 0.25 0.41 0.60 0.80 1.08 1.30 1.45 1.63 1.96 2.33 2.63 2.95 3.20 3.27 3.22 3.15 2.88 2.63 2.32 2.05 1.89
0.00 0.00 0.00 0.00 0.00 0.00 0.00 0.00 0.00 0.00 0.00 0.00 0.00 0.05 0.15 0.13 0.08 0.06 0.06 0.06 0.07 0.09 0.11 0.17 0.29 0.49 0.72 1.01 1.33 1.58 1.77 2.18 2.60 2.90 3.08 3.28 3.41 3.37 3.16 2.73 2.30 2.01 1.81 1.64
0.00 0.00 0.00 0.00 0.00 0.00 0.00 0.00 0.00 0.01 0.00 0.00 0.00 0.04 0.17 0.25 0.16 0.08 0.08 0.09 0.10 0.11 0.13 0.19 0.27 0.39 0.59 0.83 1.11 1.35 1.58 2.09 2.59 2.93 3.11 3.25 3.29 3.06 2.66 2.24 1.88 1.66 1.51 1.38
0.01 0.01 0.01 0.00 0.00 0.00 0.00 0.00 0.01 0.01 0.00 0.00 0.01 0.06 0.23 0.30 0.20 0.11 0.09 0.12 0.13 0.13 0.15 0.20 0.29 0.38 0.54 0.73 1.00 1.24 1.48 1.82 2.21 2.45 2.53 2.57 2.51 2.35 2.18 1.97 1.71 1.47 1.28 1.11
0.03 0.03 0.02 0.01 0.00 0.00 0.00 0.00 0.01 0.02 0.01 0.01 0.05 0.16 0.29 0.22 0.17 0.13 0.13 0.13 0.15 0.16 0.18 0.25 0.36 0.46 0.55 0.68 0.92 1.21 1.38 1.57 1.75 1.82 1.85 1.74 1.67 1.58 1.49 1.32 1.13 0.96 0.79 0.66
0.07 0.06 0.03 0.01 0.00 0.00 0.00 0.00 0.00 0.01 0.01 0.05 0.14 0.26 0.36 0.30 0.23 0.19 0.19 0.18 0.19 0.22 0.25 0.34 0.43 0.49 0.57 0.64 0.76 0.91 1.03 1.15 1.15 1.07 1.04 1.02 0.99 0.93 0.83 0.70 0.57 0.48 0.41 0.34
0.06 0.05 0.03 0.01 0.01 0.01 0.00 0.00 0.01 0.01 0.02 0.08 0.16 0.28 0.39 0.39 0.34 0.29 0.26 0.25 0.25 0.27 0.32 0.39 0.47 0.50 0.53 0.55 0.61 0.64 0.65 0.66 0.65 0.64 0.62 0.62 0.61 0.56 0.51 0.47 0.43 0.38 0.32 0.26
0.06 0.07 0.06 0.02 0.03 0.04 0.02 0.01 0.01 0.01 0.01 0.05 0.19 0.45 0.55 0.57 0.48 0.42 0.39 0.33 0.31 0.33 0.41 0.49 0.50 0.47 0.45 0.44 0.45 0.47 0.48 0.46 0.45 0.46 0.45 0.43 0.40 0.36 0.34 0.32 0.29 0.26 0.21 0.17
0.07 0.06 0.12 0.08 0.05 0.05 0.03 0.02 0.02 0.02 0.01 0.02 0.17 0.60 0.70 0.86 0.79 0.64 0.55 0.43 0.41 0.43 0.48 0.51 0.49 0.43 0.39 0.40 0.41 0.41 0.42 0.43 0.42 0.39 0.36 0.33 0.30 0.27 0.24 0.22 0.20 0.18 0.17 0.16
0.08 0.10 0.17 0.19 0.15 0.09 0.05 0.03 0.02 0.01 0.02 0.04 0.17 0.59 0.73 0.82 0.82 0.64 0.53 0.51 0.58 0.63 0.64 0.61 0.55 0.46 0.39 0.37 0.36 0.34 0.33 0.31 0.27 0.22 0.21 0.21 0.22 0.21 0.20 0.19 0.18 0.17 0.16 0.15
0.06 0.15 0.27 0.39 0.35 0.19 0.12 0.07 0.04 0.05 0.10 0.15 0.29 0.55 0.67 0.76 0.70 0.63 0.62 0.68 0.80 0.82 0.69 0.59 0.52 0.44 0.38 0.35 0.32 0.30 0.27 0.24 0.19 0.16 0.14 0.14 0.16 0.17 0.18 0.17 0.16 0.15 0.14 0.14
0.06 0.15 0.20 0.21 0.16 0.16 0.18 0.14 0.12 0.13 0.17 0.29 0.45 0.59 0.74 0.93 0.95 0.89 0.82 0.80 0.83 0.81 0.75 0.67 0.57 0.50 0.42 0.36 0.31 0.27 0.25 0.21 0.16 0.14 0.14 0.15 0.15 0.15 0.16 0.16 0.15 0.14 0.13 0.11
0.05 0.12 0.15 0.20 0.16 0.15 0.19 0.19 0.18 0.20 0.29 0.42 0.54 0.77 1.00 1.12 1.16 1.09 1.00 0.94 0.93 0.86 0.81 0.73 0.63 0.54 0.47 0.44 0.42 0.37 0.32 0.26 0.23 0.22 0.21 0.19 0.16 0.15 0.16 0.15 0.15 0.13 0.12 0.09
0.04 0.08 0.15 0.19 0.15 0.18 0.34 0.35 0.34 0.35 0.38 0.49 0.59 0.78 0.97 1.08 1.16 1.19 1.14 1.05 1.02 0.97 0.93 0.85 0.74 0.65 0.60 0.55 0.50 0.45 0.39 0.34 0.30 0.26 0.23 0.19 0.16 0.15 0.14 0.12 0.12 0.12 0.09 0.07
0.05 0.08 0.14 0.15 0.23 0.40 0.48 0.33 0.34 0.41 0.35 0.37 0.48 0.56 0.71 0.88 0.94 0.98 1.03 1.06 1.09 1.09 1.03 0.91 0.80 0.75 0.71 0.64 0.57 0.49 0.40 0.32 0.26 0.22 0.19 0.16 0.13 0.12 0.11 0.10 0.08 0.07 0.06 0.06
0.03 0.11 0.22 0.22 0.29 0.42 0.46 0.26 0.25 0.42 0.48 0.38 0.37 0.42 0.48 0.53 0.66 0.82 0.86 0.86 0.94 0.96 0.94 0.87 0.78 0.73 0.70 0.62 0.50 0.37 0.28 0.22 0.18 0.15 0.13 0.11 0.09 0.07 0.06 0.06 0.06 0.06 0.06 0.06
0.03 0.09 0.26 0.34 0.44 0.52 0.46 0.19 0.18 0.38 0.63 0.49 0.46 0.46 0.53 0.58 0.69 0.70 0.67 0.70 0.76 0.78 0.77 0.76 0.74 0.68 0.58 0.46 0.32 0.23 0.19 0.16 0.13 0.11 0.09 0.07 0.05 0.04 0.05 0.06 0.07 0.06 0.06 0.06
0.20 0.22 0.30 0.42 0.57 0.58 0.28 0.15 0.24 0.53 0.62 0.51 0.56 0.60 0.62 0.68 0.68 0.56 0.50 0.57 0.63 0.66 0.67 0.64 0.59 0.53 0.43 0.31 0.22 0.19 0.15 0.12 0.08 0.05 0.03 0.03 0.03 0.03 0.03 0.05 0.07 0.07 0.07 0.08
0.39 0.43 0.46 0.53 0.63 0.62 0.24 0.18 0.36 0.46 0.35 0.41 0.49 0.48 0.51 0.50 0.49 0.49 0.50 0.55 0.56 0.58 0.59 0.55 0.48 0.39 0.28 0.19 0.15 0.15 0.12 0.06 0.03 0.02 0.03 0.03 0.02 0.01 0.02 0.05 0.08 0.08 0.08 0.08
0.44 0.49 0.52 0.58 0.65 0.48 0.25 0.19 0.19 0.24 0.28 0.32 0.38 0.38 0.42 0.46 0.45 0.45 0.48 0.54 0.56 0.53 0.47 0.38 0.30 0.24 0.18 0.13 0.10 0.10 0.07 0.03 0.02 0.03 0.04 0.04 0.03 0.03 0.02 0.04 0.07 0.07 0.08 0.08
0.50 0.42 0.47 0.51 0.53 0.38 0.25 0.18 0.16 0.17 0.21 0.26 0.31 0.37 0.41 0.45 0.45 0.44 0.44 0.45 0.43 0.39 0.30 0.22 0.16 0.13 0.11 0.08 0.07 0.06 0.04 0.02 0.04 0.06 0.05 0.05 0.06 0.06 0.05 0.06 0.04 0.04 0.06 0.06
0.37 0.47 0.64 0.68 0.64 0.48 0.35 0.24 0.20 0.22 0.26 0.30 0.35 0.39 0.39 0.38 0.40 0.40 0.38 0.33 0.27 0.20 0.15 0.11 0.10 0.09 0.07 0.05 0.04 0.03 0.03 0.03 0.05 0.06 0.06 0.06 0.06 0.06 0.07 0.07 0.03 0.02 0.03 0.02
0.17 0.37 0.71 0.84 0.71 0.61 0.57 0.48 0.42 0.47 0.53 0.46 0.38 0.36 0.38 0.34 0.31 0.25 0.21 0.16 0.12 0.10 0.09 0.07 0.06 0.05 0.03 0.03 0.02 0.02 0.01 0.02 0.05 0.06 0.05 0.05 0.04 0.04 0.03 0.06 0.07 0.02 0.01 0.01

GEFSCGP_prec_meanprecacc_090.txt.gz
Total_Precipitation_Accumulation
0.00 0.00 0.00 0.00 0.00 0.00 0.00 0.00 0.00 0.00 0.00 0.00 0.01 0.03 0.03 0.03 0.03 0.04 0.05 0.05 0.10 0.16 0.26 0.54 0.98 1.50 1.82 1.91 1.71 1.64 1.51 1.35 1.16 1.08 1.08 1.20 1.36 1.40 1.37 1.33 1.26 1.28 1.34 1.44
0.00 0.00 0.00 0.00 0.00 0.00 0.00 0.00 0.00 0.01 0.00 0.01 0.02 0.03 0.05 0.05 0.05 0.07 0.11 0.11 0.15 0.23 0.34 0.64 0.96 1.27 1.49 1.70 1.80 1.78 1.55 1.53 1.57 1.68 1.88 2.15 2.34 2.30 2.19 2.10 2.04 2.01 1.96 1.89
0.00 0.00 0.00 0.00 0.00 0.00 0.00 0.00 0.01 0.02 0.02 0.02 0.02 0.06 0.08 0.08 0.09 0.08 0.11 0.15 0.19 0.25 0.39 0.62 0.75 0.92 1.15 1.46 1.70 1.77 1.80 1.98 2.26 2.52 2.89 3.22 3.17 3.02 2.98 2.78 2.71 2.54 2.31 2.14
0.00 0.00 0.00 0.00 0.00 0.00 0.00 0.00 0.00 0.01 0.02 0.02 0.02 0.09 0.13 0.12 0.12 0.12 0.12 0.13 0.18 0.24 0.31 0.49 0.67 0.82 1.01 1.36 1.69 1.90 2.09 2.39 2.80 3.13 3.40 3.60 3.61 3.52 3.43 3.12 2.84 2.52 2.22 2.04
0.00 0.00 0.00 0.00 0.00 0.00 0.00 0.01 0.01 0.01 0.01 0.02 0.03 0.09 0.24 0.22 0.16 0.14 0.13 0.12 0.14 0.21 0.25 0.35 0.49 0.65 0.87 1.19 1.57 1.87 2.12 2.56 3.00 3.38 3.59 3.75 3.83 3.71 3.43 2.93 2.45 2.12 1.90 1.72
0.00 0.00 0.00 0.00 0.00 0.00 0.00 0.00 0.01 0.01 0.02 0.03 0.03 0.09 0.28 0.39 0.26 0.15 0.13 0.13 0.15 0.17 0.22 0.32 0.43 0.54 0.74 0.97 1.28 1.57 1.84 2.40 2.96 3.39 3.66 3.82 3.81 3.51 3.00 2.47 2.03 1.76 1.59 1.44
0.01 0.01 0.01 0.00 0.00 0.00 0.00 0.00 0.01 0.02 0.02 0.03 0.03 0.11 0.34 0.44 0.34 0.20 0.15 0.17 0.19 0.17 0.20 0.27 0.39 0.48 0.67 0.90 1.16 1.43 1.71 2.07 2.47 2.76 2.89 2.96 2.94 2.77 2.55 2.23 1.88 1.58 1.37 1.18
0.04 0.03 0.02 0.01 0.01 0.00 0.00 0.01 0.02 0.03 0.02 0.03 0.09 0.26 0.44 0.41 0.33 0.24 0.20 0.18 0.19 0.19 0.21 0.27 0.40 0.51 0.61 0.77 1.01 1.32 1.54 1.71 1.89 2.02 2.10 2.01 1.96 1.89 1.77 1.54 1.28 1.05 0.85 0.70
0.07 0.07 0.03 0.01 0.00 0.01 0.01 0.01 0.01 0.02 0.02 0.07 0.21 0.39 0.58 0.51 0.38 0.28 0.25 0.23 0.23 0.24 0.27 0.36 0.45 0.53 0.61 0.69 0.82 0.98 1.11 1.22 1.24 1.18 1.17 1.17 1.15 1.09 0.97 0.82 0.65 0.54 0.45 0.36
0.08 0.07 0.04 0.02 0.01 0.01 0.01 0.01 0.02 0.03 0.05 0.11 0.23 0.41 0.68 0.76 0.59 0.44 0.35 0.30 0.29 0.30 0.35 0.41 0.48 0.52 0.55 0.59 0.65 0.68 0.70 0.71 0.71 0.71 0.70 0.69 0.69 0.65 0.60 0.54 0.49 0.43 0.36 0.28
0.07 0.08 0.07 0.03 0.04 0.06 0.04 0.03 0.03 0.04 0.05 0.11 0.27 0.60 0.82 0.96 0.84 0.66 0.54 0.43 0.36 0.36 0.43 0.50 0.52 0.49 0.47 0.47 0.49 0.51 0.52 0.51 0.50 0.51 0.50 0.48 0.45 0.41 0.39 0.38 0.35 0.31 0.26 0.20
0.08 0.08 0.13 0.10 0.07 0.06 0.05 0.05 0.05 0.07 0.10 0.12 0.30 0.85 0.98 1.19 1.10 0.89 0.71 0.54 0.46 0.45 0.49 0.52 0.50 0.45 0.41 0.43 0.45 0.45 0.46 0.47 0.46 0.43 0.40 0.37 0.33 0.30 0.27 0.26 0.25 0.22 0.20 0.18
0.08 0.11 0.19 0.22 0.18 0.12 0.09 0.06 0.08 0.08 0.10 0.15 0.32 0.89 1.09 1.14 1.08 0.82 0.64 0.58 0.62 0.66 0.66 0.62 0.56 0.47 0.41 0.40 0.39 0.37 0.37 0.35 0.30 0.25 0.23 0.23 0.24 0.23 0.23 0.22 0.20 0.19 0.18 0.17
0.07 0.17 0.31 0.45 0.41 0.23 0.18 0.11 0.08 0.10 0.16 0.21 0.38 0.71 0.89 1.00 0.89 0.75 0.69 0.73 0.83 0.84 0.71 0.60 0.54 0.46 0.41 0.38 0.35 0.33 0.30 0.26 0.21 0.17 0.16 0.16 0.17 0.18 0.19 0.18 0.17 0.16 0.15 0.15
0.07 0.18 0.23 0.24 0.18 0.19 0.21 0.17 0.15 0.16 0.20 0.33 0.51 0.66 0.82 1.04 1.09 1.00 0.88 0.84 0.87 0.84 0.77 0.70 0.59 0.53 0.45 0.38 0.33 0.30 0.28 0.23 0.18 0.15 0.15 0.16 0.16 0.16 0.17 0.17 0.17 0.16 0.14 0.12
0.06 0.14 0.17 0.21 0.18 0.17 0.22 0.23 0.22 0.22 0.31 0.45 0.58 0.83 1.09 1.22 1.24 1.17 1.06 1.00 0.99 0.91 0.85 0.78 0.67 0.57 0.50 0.46 0.44 0.39 0.34 0.28 0.24 0.23 0.22 0.20 0.17 0.16 0.16 0.16 0.16 0.15 0.13 0.11
0.06 0.12 0.19 0.23 0.18 0.23 0.43 0.41 0.37 0.37 0.41 0.52 0.63 0.82 1.03 1.15 1.23 1.27 1.21 1.11 1.07 1.01 0.98 0.90 0.79 0.69 0.63 0.57 0.52 0.46 0.41 0.36 0.32 0.29 0.24 0.20 0.16 0.15 0.15 0.13 0.13 0.12 0.10 0.08
0.06 0.11 0.17 0.19 0.27 0.48 0.58 0.38 0.36 0.43 0.37 0.39 0.50 0.59 0.74 0.91 0.98 1.03 1.10 1.13 1.15 1.13 1.07 0.95 0.85 0.80 0.76 0.68 0.60 0.51 0.41 0.33 0.28 0.23 0.20 0.16 0.14 0.13 0.12 0.10 0.09 0.07 0.06 0.06
0.04 0.12 0.24 0.26 0.35 0.51 0.53 0.28 0.26 0.43 0.49 0.40 0.39 0.44 0.52 0.56 0.69 0.86 0.91 0.93 1.03 1.05 1.01 0.92 0.82 0.77 0.74 0.66 0.54 0.41 0.31 0.25 0.20 0.16 0.14 0.12 0.10 0.07 0.06 0.06 0.06 0.06 0.06 0.07
0.04 0.10 0.28 0.36 0.48 0.58 0.50 0.20 0.18 0.39 0.64 0.51 0.49 0.48 0.56 0.61 0.73 0.75 0.72 0.76 0.84 0.86 0.83 0.81 0.78 0.71 0.61 0.50 0.36 0.26 0.21 0.17 0.14 0.12 0.09 0.07 0.05 0.05 0.05 0.06 0.07 0.07 0.07 0.06
0.21 0.23 0.31 0.43 0.60 0.60 0.29 0.15 0.24 0.54 0.64 0.52 0.57 0.62 0.65 0.72 0.72 0.60 0.56 0.64 0.71 0.73 0.73 0.69 0.64 0.57 0.46 0.33 0.24 0.20 0.17 0.13 0.08 0.05 0.04 0.04 0.03 0.03 0.03 0.05 0.07 0.07 0.07 0.08
0.40 0.43 0.46 0.54 0.64 0.63 0.25 0.18 0.37 0.46 0.35 0.42 0.51 0.50 0.53 0.52 0.52 0.52 0.53 0.60 0.63 0.67 0.67 0.61 0.53 0.42 0.31 0.21 0.17 0.16 0.13 0.07 0.03 0.02 0.03 0.03 0.02 0.01 0.02 0.05 0.08 0.08 0.09 0.09
0.44 0.49 0.53 0.58 0.65 0.48 0.25 0.19 0.19 0.24 0.29 0.33 0.40 0.39 0.43 0.47 0.47 0.47 0.51 0.57 0.60 0.58 0.52 0.43 0.34 0.27 0.21 0.15 0.12 0.11 0.08 0.04 0.03 0.03 0.04 0.04 0.03 0.03 0.03 0.04 0.07 0.07 0.08 0.08
0.50 0.42 0.47 0.51 0.53 0.39 0.26 0.18 0.16 0.17 0.22 0.26 0.32 0.38 0.42 0.47 0.47 0.46 0.46 0.47 0.47 0.43 0.34 0.26 0.19 0.17 0.14 0.10 0.08 0.07 0.04 0.02 0.04 0.06 0.05 0.06 0.07 0.07 0.06 0.06 0.04 0.04 0.06 0.06
0.37 0.48 0.64 0.68 0.64 0.48 0.35 0.25 0.20 0.22 0.26 0.31 0.36 0.39 0.40 0.39 0.42 0.43 0.42 0.37 0.30 0.23 0.18 0.14 0.12 0.11 0.08 0.06 0.05 0.04 0.03 0.03 0.06 0.06 0.06 0.07 0.06 0.06 0.07 0.07 0.03 0.02 0.03 0.02
0.17 0.37 0.71 0.84 0.71 0.61 0.57 0.48 0.42 0.47 0.53 0.46 0.38 0.36 0.38 0.35 0.32 0.26 0.23 0.18 0.14 0.11 0.10 0.08 0.07 0.06 0.04 0.04 0.03 0.02 0.01 0.02 0.05 0.06 0.05 0.05 0.04 0.04 0.04 0.07 0.07 0.02 0.01 0.01

GEFSCGP_prec_meanprecacc_096.txt.gz
Total_Precipitation_Accumulation
0.00 0.00 0.00 0.00 0.00 0.00 0.00 0.00 0.00 0.00 0.00 0.01 0.02 0.04 0.06 0.06 0.06 0.07 0.09 0.09 0.15 0.21 0.32 0.64 1.10 1.62 1.95 2.06 1.98 1.96 1.84 1.67 1.53 1.48 1.48 1.61 1.75 1.77 1.71 1.68 1.61 1.62 1.68 1.75
0.00 0.00 0.00 0.00 0.00 0.00 0.00 0.00 0.00 0.01 0.01 0.02 0.03 0.07 0.09 0.10 0.10 0.12 0.16 0.16 0.20 0.27 0.39 0.70 1.04 1.39 1.68 1.91 2.01 1.99 1.87 1.92 2.03 2.22 2.44 2.60 2.74 2.70 2.60 2.53 2.47 2.43 2.36 2.25
0.00 0.00 0.00 0.00 0.00 0.00 0.00 0.00 0.01 0.02 0.04 0.05 0.05 0.11 0.13 0.14 0.15 0.15 0.17 0.21 0.25 0.30 0.43 0.67 0.82 1.01 1.31 1.64 1.87 1.96 2.11 2.46 2.78 3.14 3.61 3.87 3.67 3.45 3.37 3.17 3.09 2.91 2.66 2.47
0.00 0.00 0.00 0.00 0.00 0.00 0.00 0.00 0.01 0.02 0.03 0.05 0.06 0.13 0.20 0.19 0.18 0.17 0.18 0.20 0.23 0.29 0.35 0.54 0.73 0.90 1.14 1.50 1.84 2.09 2.40 2.84 3.34 3.74 4.08 4.30 4.23 4.01 3.83 3.45 3.14 2.78 2.46 2.27
0.00 0.00 0.00 0.00 0.00 0.00 0.00 0.01 0.01 0.01 0.02 0.03 0.06 0.13 0.29 0.28 0.20 0.18 0.18 0.17 0.19 0.25 0.29 0.39 0.54 0.72 0.99 1.34 1.72 2.04 2.37 2.89 3.38 3.80 4.11 4.33 4.40 4.22 3.83 3.22 2.67 2.33 2.09 1.91
0.00 0.00 0.01 0.00 0.00 0.00 0.00 0.01 0.02 0.03 0.03 0.04 0.05 0.11 0.33 0.45 0.32 0.19 0.17 0.19 0.20 0.21 0.27 0.36 0.49 0.64 0.87 1.13 1.44 1.71 2.02 2.65 3.25 3.69 4.02 4.31 4.29 3.94 3.38 2.77 2.25 1.94 1.75 1.60
0.01 0.01 0.01 0.01 0.00 0.00 0.00 0.01 0.02 0.03 0.03 0.03 0.04 0.14 0.37 0.50 0.40 0.25 0.20 0.23 0.23 0.22 0.25 0.32 0.45 0.58 0.83 1.06 1.33 1.62 1.92 2.30 2.74 3.07 3.22 3.35 3.35 3.13 2.87 2.52 2.13 1.77 1.53 1.32
0.04 0.03 0.02 0.01 0.01 0.01 0.01 0.01 0.03 0.04 0.03 0.03 0.11 0.29 0.47 0.47 0.40 0.29 0.24 0.22 0.23 0.24 0.26 0.33 0.46 0.58 0.71 0.89 1.14 1.47 1.72 1.94 2.14 2.28 2.40 2.32 2.24 2.13 2.00 1.76 1.49 1.24 1.00 0.82
0.07 0.07 0.03 0.01 0.01 0.01 0.01 0.01 0.01 0.02 0.03 0.08 0.24 0.42 0.62 0.59 0.47 0.34 0.29 0.26 0.26 0.28 0.31 0.40 0.50 0.58 0.67 0.78 0.94 1.11 1.24 1.38 1.44 1.38 1.35 1.35 1.31 1.23 1.09 0.93 0.75 0.61 0.50 0.41
0.08 0.07 0.04 0.02 0.02 0.01 0.01 0.01 0.02 0.03 0.05 0.12 0.25 0.45 0.72 0.82 0.67 0.50 0.40 0.36 0.33 0.34 0.38 0.45 0.52 0.57 0.61 0.66 0.79 0.84 0.84 0.84 0.87 0.90 0.86 0.82 0.79 0.75 0.69 0.62 0.56 0.50 0.41 0.33
0.07 0.08 0.07 0.03 0.05 0.06 0.04 0.04 0.03 0.04 0.05 0.12 0.28 0.63 0.85 1.02 0.91 0.72 0.61 0.52 0.45 0.42 0.48 0.55 0.55 0.53 0.52 0.53 0.57 0.59 0.61 0.60 0.58 0.60 0.62 0.60 0.54 0.49 0.46 0.44 0.42 0.37 0.31 0.26
0.08 0.08 0.14 0.10 0.07 0.07 0.05 0.05 0.06 0.07 0.10 0.13 0.31 0.87 1.01 1.23 1.16 0.95 0.79 0.65 0.60 0.56 0.55 0.56 0.53 0.47 0.45 0.47 0.50 0.51 0.53 0.52 0.51 0.48 0.46 0.43 0.39 0.35 0.33 0.32 0.30 0.26 0.23 0.21
0.08 0.11 0.19 0.22 0.19 0.13 0.10 0.07 0.09 0.08 0.11 0.16 0.33 0.91 1.13 1.19 1.13 0.87 0.71 0.67 0.74 0.79 0.75 0.67 0.60 0.50 0.43 0.42 0.42 0.42 0.43 0.40 0.34 0.29 0.28 0.27 0.27 0.26 0.26 0.26 0.24 0.22 0.20 0.19
0.07 0.18 0.31 0.45 0.41 0.24 0.19 0.12 0.09 0.11 0.17 0.22 0.38 0.72 0.92 1.04 0.94 0.80 0.74 0.79 0.91 0.95 0.82 0.68 0.59 0.50 0.44 0.40 0.38 0.35 0.34 0.30 0.25 0.21 0.18 0.19 0.20 0.20 0.21 0.20 0.19 0.18 0.17 0.16
0.07 0.18 0.23 0.24 0.19 0.20 0.22 0.18 0.15 0.16 0.20 0.33 0.52 0.67 0.83 1.05 1.13 1.06 0.95 0.89 0.93 0.91 0.86 0.77 0.65 0.57 0.47 0.41 0.35 0.32 0.30 0.25 0.20 0.18 0.18 0.18 0.18 0.18 0.18 0.18 0.18 0.17 0.15 0.12
0.07 0.14 0.18 0.22 0.19 0.18 0.23 0.23 0.22 0.23 0.32 0.46 0.59 0.84 1.10 1.24 1.27 1.20 1.12 1.05 1.04 0.95 0.89 0.83 0.72 0.62 0.54 0.49 0.46 0.40 0.36 0.30 0.26 0.25 0.24 0.22 0.19 0.17 0.17 0.17 0.16 0.15 0.14 0.11
0.07 0.12 0.19 0.24 0.19 0.24 0.44 0.42 0.39 0.38 0.42 0.54 0.64 0.83 1.05 1.17 1.26 1.29 1.24 1.16 1.10 1.04 1.01 0.94 0.82 0.72 0.66 0.60 0.54 0.48 0.42 0.37 0.34 0.30 0.26 0.21 0.17 0.17 0.15 0.13 0.13 0.12 0.10 0.08
0.07 0.12 0.17 0.20 0.28 0.49 0.59 0.38 0.37 0.44 0.38 0.40 0.51 0.60 0.76 0.95 1.03 1.09 1.15 1.19 1.21 1.17 1.11 0.99 0.88 0.82 0.78 0.71 0.63 0.53 0.43 0.35 0.29 0.25 0.21 0.18 0.15 0.14 0.12 0.11 0.09 0.08 0.07 0.07
0.05 0.13 0.25 0.26 0.36 0.52 0.54 0.29 0.27 0.44 0.50 0.40 0.41 0.45 0.53 0.58 0.72 0.91 0.96 0.98 1.09 1.11 1.06 0.96 0.85 0.80 0.76 0.68 0.57 0.44 0.34 0.26 0.22 0.18 0.15 0.13 0.11 0.08 0.06 0.06 0.06 0.06 0.07 0.07
0.04 0.11 0.29 0.36 0.48 0.58 0.51 0.20 0.19 0.39 0.64 0.51 0.50 0.50 0.58 0.63 0.75 0.79 0.76 0.80 0.89 0.93 0.91 0.87 0.83 0.76 0.66 0.53 0.39 0.30 0.24 0.19 0.17 0.14 0.11 0.08 0.06 0.05 0.05 0.06 0.07 0.07 0.07 0.06
0.21 0.23 0.31 0.43 0.60 0.60 0.29 0.15 0.24 0.54 0.64 0.52 0.57 0.64 0.69 0.74 0.75 0.63 0.59 0.67 0.76 0.79 0.80 0.76 0.69 0.63 0.51 0.37 0.27 0.22 0.19 0.15 0.11 0.07 0.05 0.05 0.04 0.03 0.03 0.05 0.07 0.07 0.07 0.08
0.40 0.43 0.47 0.54 0.64 0.63 0.25 0.18 0.37 0.46 0.35 0.42 0.51 0.50 0.56 0.55 0.54 0.54 0.56 0.64 0.70 0.73 0.73 0.67 0.59 0.48 0.35 0.24 0.20 0.18 0.14 0.08 0.04 0.03 0.04 0.04 0.03 0.02 0.02 0.05 0.08 0.08 0.09 0.09
0.44 0.49 0.53 0.59 0.65 0.48 0.25 0.19 0.19 0.24 0.29 0.33 0.40 0.39 0.43 0.48 0.49 0.49 0.54 0.61 0.67 0.65 0.57 0.46 0.37 0.30 0.23 0.18 0.15 0.14 0.09 0.04 0.03 0.04 0.04 0.04 0.04 0.03 0.03 0.04 0.07 0.07 0.08 0.08
0.50 0.42 0.47 0.51 0.53 0.39 0.26 0.18 0.16 0.17 0.22 0.26 0.33 0.39 0.43 0.48 0.49 0.49 0.49 0.50 0.50 0.47 0.38 0.28 0.22 0.20 0.17 0.12 0.10 0.08 0.05 0.03 0.04 0.06 0.05 0.06 0.07 0.07 0.06 0.06 0.04 0.04 0.06 0.06
0.37 0.48 0.64 0.68 0.64 0.48 0.35 0.25 0.20 0.22 0.27 0.31 0.37 0.41 0.41 0.41 0.45 0.45 0.45 0.39 0.33 0.26 0.20 0.16 0.15 0.14 0.11 0.09 0.08 0.05 0.04 0.03 0.06 0.06 0.06 0.07 0.06 0.06 0.08 0.07 0.03 0.02 0.03 0.02
0.17 0.37 0.71 0.84 0.71 0.61 0.57 0.48 0.42 0.47 0.53 0.46 0.39 0.38 0.40 0.37 0.34 0.29 0.25 0.21 0.16 0.12 0.10 0.09 0.08 0.07 0.06 0.06 0.05 0.04 0.03 0.02 0.05 0.06 0.06 0.05 0.04 0.04 0.04 0.07 0.07 0.02 0.01 0.01

GEFSCGP_prec_meanprecacc_102.txt.gz
Total_Precipitation_Accumulation
0.00 0.00 0.00 0.00 0.00 0.00 0.00 0.00 0.00 0.00 0.01 0.01 0.03 0.05 0.07 0.07 0.08 0.09 0.11 0.12 0.17 0.24 0.35 0.67 1.14 1.67 2.01 2.14 2.08 2.08 1.97 1.81 1.68 1.64 1.65 1.79 1.97 2.02 1.93 1.89 1.83 1.84 1.89 1.95
0.00 0.00 0.00 0.00 0.00 0.00 0.00 0.00 0.00 0.01 0.02 0.03 0.05 0.08 0.11 0.12 0.12 0.15 0.19 0.19 0.23 0.31 0.42 0.75 1.08 1.43 1.73 1.96 2.08 2.08 1.97 2.06 2.20 2.40 2.63 2.82 2.98 2.93 2.83 2.75 2.67 2.63 2.59 2.46
0.00 0.00 0.00 0.00 0.00 0.00 0.00 0.00 0.01 0.03 0.04 0.06 0.08 0.14 0.16 0.17 0.19 0.19 0.21 0.24 0.29 0.34 0.46 0.71 0.85 1.04 1.35 1.69 1.92 2.04 2.19 2.58 2.97 3.36 3.87 4.17 3.99 3.73 3.65 3.43 3.32 3.13 2.89 2.71
0.00 0.00 0.00 0.00 0.00 0.00 0.00 0.00 0.01 0.02 0.03 0.07 0.08 0.17 0.23 0.23 0.22 0.22 0.23 0.25 0.28 0.32 0.38 0.56 0.75 0.92 1.17 1.54 1.89 2.16 2.49 2.96 3.50 3.91 4.31 4.60 4.60 4.37 4.17 3.76 3.39 3.00 2.66 2.48
0.00 0.00 0.00 0.00 0.00 0.00 0.00 0.01 0.01 0.01 0.02 0.04 0.08 0.16 0.33 0.34 0.25 0.22 0.22 0.22 0.23 0.28 0.32 0.41 0.56 0.75 1.01 1.37 1.77 2.12 2.46 2.99 3.50 3.93 4.26 4.51 4.62 4.46 4.12 3.53 2.99 2.60 2.32 2.12
0.00 0.00 0.01 0.00 0.00 0.00 0.00 0.01 0.02 0.03 0.04 0.06 0.06 0.15 0.38 0.52 0.38 0.25 0.22 0.23 0.24 0.25 0.29 0.39 0.51 0.66 0.89 1.16 1.49 1.81 2.13 2.76 3.35 3.80 4.15 4.46 4.47 4.17 3.64 3.06 2.57 2.27 2.04 1.82
0.01 0.01 0.01 0.01 0.00 0.00 0.00 0.01 0.04 0.05 0.05 0.05 0.06 0.17 0.42 0.54 0.46 0.31 0.24 0.26 0.26 0.24 0.27 0.35 0.48 0.61 0.86 1.09 1.38 1.71 2.03 2.41 2.84 3.19 3.36 3.51 3.56 3.38 3.13 2.78 2.37 2.04 1.81 1.59
0.04 0.03 0.02 0.01 0.01 0.01 0.01 0.01 0.04 0.05 0.04 0.06 0.15 0.34 0.50 0.51 0.45 0.35 0.28 0.25 0.25 0.26 0.28 0.35 0.48 0.61 0.75 0.93 1.20 1.55 1.81 2.05 2.25 2.39 2.52 2.48 2.43 2.32 2.19 1.95 1.67 1.43 1.20 1.02
0.07 0.07 0.03 0.01 0.01 0.01 0.01 0.02 0.02 0.03 0.03 0.11 0.30 0.46 0.64 0.63 0.54 0.39 0.32 0.29 0.29 0.31 0.33 0.42 0.53 0.61 0.71 0.83 0.99 1.17 1.31 1.46 1.52 1.47 1.44 1.48 1.46 1.38 1.23 1.07 0.87 0.73 0.61 0.51
0.08 0.07 0.04 0.02 0.02 0.02 0.02 0.02 0.03 0.05 0.07 0.15 0.29 0.50 0.76 0.86 0.78 0.62 0.47 0.40 0.36 0.37 0.41 0.47 0.56 0.61 0.66 0.71 0.84 0.90 0.89 0.90 0.95 1.01 0.99 0.94 0.93 0.89 0.83 0.76 0.68 0.60 0.50 0.40
0.07 0.08 0.07 0.04 0.05 0.07 0.04 0.04 0.04 0.05 0.07 0.14 0.32 0.68 0.89 1.06 0.97 0.84 0.71 0.57 0.49 0.46 0.51 0.58 0.59 0.57 0.57 0.58 0.62 0.64 0.65 0.66 0.67 0.71 0.73 0.71 0.63 0.57 0.55 0.55 0.53 0.47 0.39 0.32
0.08 0.08 0.14 0.10 0.08 0.07 0.05 0.05 0.07 0.10 0.13 0.16 0.35 0.91 1.03 1.27 1.21 1.02 0.85 0.69 0.64 0.60 0.59 0.60 0.56 0.52 0.50 0.53 0.56 0.56 0.58 0.58 0.58 0.56 0.54 0.53 0.46 0.41 0.39 0.38 0.38 0.34 0.31 0.28
0.08 0.12 0.20 0.23 0.20 0.13 0.11 0.08 0.09 0.10 0.14 0.20 0.37 0.95 1.16 1.23 1.19 0.93 0.76 0.71 0.79 0.84 0.79 0.71 0.64 0.55 0.50 0.48 0.49 0.48 0.47 0.44 0.39 0.34 0.33 0.35 0.34 0.33 0.34 0.31 0.30 0.30 0.28 0.26
0.07 0.18 0.31 0.46 0.42 0.25 0.20 0.13 0.10 0.12 0.21 0.26 0.41 0.74 0.94 1.08 0.98 0.85 0.80 0.85 0.97 1.01 0.87 0.73 0.66 0.58 0.54 0.50 0.45 0.41 0.38 0.33 0.28 0.25 0.22 0.24 0.26 0.26 0.26 0.26 0.24 0.23 0.22 0.21
0.07 0.19 0.24 0.25 0.19 0.20 0.22 0.18 0.16 0.17 0.22 0.36 0.54 0.69 0.86 1.09 1.16 1.10 1.00 0.95 1.01 1.00 0.94 0.84 0.74 0.67 0.59 0.52 0.43 0.38 0.34 0.28 0.23 0.21 0.21 0.22 0.22 0.21 0.21 0.22 0.22 0.20 0.17 0.14
0.07 0.14 0.18 0.22 0.19 0.18 0.23 0.24 0.23 0.24 0.33 0.48 0.61 0.86 1.13 1.27 1.30 1.24 1.16 1.10 1.10 1.01 0.95 0.89 0.80 0.70 0.61 0.57 0.53 0.45 0.39 0.32 0.28 0.28 0.27 0.25 0.21 0.20 0.20 0.19 0.19 0.18 0.15 0.12
0.07 0.12 0.20 0.25 0.20 0.25 0.45 0.42 0.39 0.39 0.43 0.55 0.67 0.85 1.07 1.20 1.30 1.34 1.28 1.23 1.19 1.09 1.06 0.99 0.88 0.78 0.71 0.65 0.58 0.51 0.44 0.39 0.35 0.32 0.28 0.24 0.20 0.19 0.17 0.15 0.15 0.15 0.12 0.09
0.07 0.13 0.19 0.22 0.30 0.51 0.60 0.39 0.37 0.45 0.39 0.41 0.53 0.62 0.77 0.97 1.07 1.15 1.22 1.29 1.32 1.25 1.17 1.05 0.94 0.88 0.83 0.74 0.65 0.56 0.46 0.37 0.31 0.27 0.23 0.20 0.17 0.17 0.14 0.12 0.11 0.09 0.08 0.08
0.05 0.15 0.28 0.29 0.38 0.53 0.54 0.29 0.27 0.45 0.51 0.41 0.41 0.46 0.54 0.59 0.76 0.99 1.05 1.08 1.19 1.19 1.14 1.03 0.92 0.84 0.80 0.72 0.60 0.47 0.37 0.29 0.24 0.20 0.17 0.14 0.13 0.11 0.08 0.08 0.08 0.08 0.08 0.08
0.04 0.11 0.30 0.39 0.50 0.59 0.51 0.20 0.19 0.40 0.65 0.51 0.51 0.51 0.59 0.64 0.78 0.84 0.83 0.87 0.96 0.99 0.98 0.93 0.89 0.81 0.70 0.58 0.44 0.35 0.28 0.22 0.19 0.17 0.14 0.10 0.09 0.08 0.08 0.08 0.09 0.08 0.09 0.08
0.21 0.24 0.32 0.44 0.61 0.60 0.30 0.15 0.25 0.55 0.65 0.52 0.58 0.65 0.70 0.76 0.77 0.68 0.64 0.72 0.81 0.85 0.86 0.81 0.73 0.67 0.55 0.42 0.32 0.26 0.22 0.18 0.13 0.09 0.08 0.07 0.07 0.06 0.05 0.08 0.09 0.09 0.10 0.11
0.41 0.44 0.48 0.54 0.65 0.64 0.25 0.19 0.37 0.47 0.36 0.42 0.51 0.51 0.57 0.57 0.56 0.59 0.61 0.69 0.75 0.79 0.77 0.71 0.62 0.51 0.38 0.28 0.22 0.20 0.16 0.10 0.05 0.04 0.05 0.06 0.05 0.04 0.04 0.07 0.10 0.10 0.11 0.11
0.44 0.50 0.53 0.59 0.66 0.48 0.25 0.19 0.19 0.24 0.29 0.33 0.40 0.40 0.45 0.51 0.52 0.53 0.59 0.66 0.72 0.70 0.60 0.49 0.40 0.33 0.26 0.20 0.17 0.16 0.10 0.05 0.04 0.05 0.06 0.07 0.06 0.06 0.05 0.06 0.08 0.09 0.10 0.09
0.50 0.42 0.47 0.51 0.53 0.39 0.26 0.18 0.16 0.17 0.22 0.26 0.33 0.39 0.44 0.50 0.52 0.52 0.53 0.54 0.54 0.52 0.42 0.32 0.25 0.23 0.20 0.15 0.12 0.10 0.06 0.04 0.05 0.08 0.08 0.08 0.09 0.09 0.07 0.07 0.05 0.05 0.07 0.07
0.37 0.48 0.64 0.68 0.64 0.48 0.36 0.25 0.20 0.22 0.27 0.31 0.38 0.42 0.42 0.42 0.47 0.48 0.48 0.42 0.36 0.30 0.25 0.19 0.18 0.17 0.14 0.11 0.09 0.06 0.05 0.04 0.07 0.08 0.08 0.08 0.08 0.08 0.09 0.08 0.04 0.02 0.03 0.02
0.17 0.37 0.71 0.84 0.71 0.61 0.57 0.48 0.42 0.47 0.53 0.46 0.39 0.39 0.42 0.39 0.36 0.31 0.27 0.23 0.18 0.15 0.13 0.10 0.09 0.09 0.08 0.08 0.06 0.05 0.03 0.03 0.07 0.08 0.07 0.07 0.06 0.05 0.05 0.07 0.07 0.02 0.01 0.01

GEFSCGP_prec_meanprecacc_108.txt.gz
Total_Precipitation_Accumulation
0.00 0.00 0.00 0.00 0.00 0.00 0.00 0.00 0.01 0.00 0.01 0.01 0.03 0.05 0.08 0.09 0.10 0.13 0.17 0.20 0.22 0.28 0.40 0.71 1.17 1.73 2.09 2.27 2.27 2.30 2.21 2.11 2.00 1.94 1.93 2.08 2.27 2.33 2.29 2.27 2.17 2.12 2.14 2.22
0.00 0.00 0.00 0.00 0.00 0.00 0.00 0.00 0.01 0.01 0.02 0.03 0.05 0.09 0.13 0.14 0.15 0.20 0.28 0.30 0.29 0.34 0.46 0.79 1.14 1.49 1.79 2.05 2.22 2.28 2.18 2.30 2.47 2.67 2.90 3.11 3.30 3.27 3.16 3.08 2.99 2.88 2.81 2.72
0.00 0.00 0.00 0.00 0.00 0.00 0.00 0.00 0.01 0.03 0.04 0.06 0.08 0.16 0.19 0.20 0.23 0.24 0.27 0.34 0.35 0.37 0.49 0.76 0.93 1.11 1.41 1.78 2.02 2.16 2.35 2.74 3.16 3.60 4.14 4.47 4.30 4.02 3.89 3.62 3.50 3.31 3.06 2.92
0.00 0.00 0.00 0.00 0.00 0.00 0.01 0.01 0.01 0.02 0.03 0.08 0.09 0.20 0.29 0.31 0.32 0.32 0.34 0.35 0.35 0.36 0.41 0.60 0.82 0.99 1.22 1.61 1.97 2.25 2.61 3.10 3.67 4.11 4.54 4.81 4.82 4.58 4.35 3.90 3.53 3.12 2.79 2.62
0.00 0.00 0.00 0.00 0.00 0.00 0.01 0.02 0.01 0.01 0.02 0.05 0.09 0.20 0.40 0.45 0.38 0.36 0.34 0.31 0.28 0.30 0.34 0.44 0.59 0.80 1.07 1.44 1.84 2.20 2.55 3.10 3.61 4.08 4.42 4.66 4.75 4.60 4.25 3.65 3.12 2.75 2.46 2.26
0.00 0.00 0.01 0.00 0.00 0.00 0.00 0.01 0.02 0.03 0.04 0.07 0.07 0.17 0.46 0.65 0.52 0.37 0.33 0.31 0.29 0.28 0.31 0.41 0.54 0.69 0.95 1.23 1.56 1.90 2.24 2.88 3.48 3.95 4.31 4.59 4.58 4.28 3.75 3.16 2.69 2.42 2.21 2.02
0.02 0.01 0.01 0.01 0.00 0.00 0.00 0.02 0.08 0.10 0.10 0.10 0.08 0.21 0.52 0.63 0.55 0.44 0.36 0.33 0.30 0.27 0.29 0.36 0.50 0.63 0.89 1.15 1.43 1.79 2.11 2.52 2.98 3.33 3.50 3.64 3.68 3.50 3.23 2.87 2.48 2.16 1.95 1.75
0.05 0.04 0.02 0.01 0.01 0.01 0.01 0.03 0.09 0.13 0.12 0.12 0.21 0.42 0.62 0.59 0.56 0.48 0.37 0.30 0.28 0.27 0.30 0.37 0.51 0.64 0.78 0.98 1.25 1.61 1.88 2.12 2.33 2.47 2.61 2.58 2.53 2.43 2.30 2.05 1.76 1.52 1.31 1.15
0.08 0.07 0.04 0.01 0.01 0.01 0.01 0.02 0.03 0.06 0.07 0.16 0.40 0.59 0.80 0.73 0.69 0.52 0.40 0.33 0.32 0.34 0.36 0.44 0.55 0.64 0.74 0.87 1.05 1.22 1.36 1.52 1.57 1.52 1.50 1.55 1.55 1.49 1.37 1.21 1.02 0.86 0.70 0.59
0.08 0.07 0.05 0.02 0.02 0.02 0.02 0.02 0.04 0.09 0.13 0.23 0.39 0.66 0.95 1.00 0.91 0.70 0.53 0.44 0.40 0.40 0.44 0.50 0.59 0.63 0.69 0.76 0.91 0.95 0.95 0.95 1.00 1.05 1.04 1.00 0.99 0.97 0.93 0.87 0.80 0.70 0.57 0.46
0.07 0.09 0.08 0.04 0.05 0.07 0.05 0.05 0.05 0.10 0.13 0.25 0.48 0.86 1.02 1.15 1.06 0.92 0.79 0.62 0.53 0.50 0.55 0.61 0.62 0.59 0.59 0.62 0.66 0.69 0.70 0.70 0.71 0.76 0.78 0.76 0.69 0.64 0.63 0.63 0.60 0.55 0.48 0.40
0.08 0.09 0.15 0.11 0.08 0.07 0.05 0.06 0.08 0.15 0.20 0.24 0.48 1.09 1.11 1.34 1.29 1.10 0.94 0.74 0.68 0.64 0.63 0.63 0.59 0.55 0.54 0.57 0.60 0.59 0.62 0.62 0.63 0.61 0.60 0.58 0.51 0.46 0.45 0.45 0.44 0.41 0.39 0.36
0.08 0.13 0.24 0.29 0.25 0.16 0.11 0.08 0.10 0.12 0.18 0.26 0.47 1.11 1.24 1.30 1.27 1.00 0.84 0.77 0.83 0.88 0.84 0.75 0.68 0.59 0.53 0.53 0.54 0.52 0.52 0.49 0.43 0.39 0.37 0.40 0.39 0.37 0.39 0.37 0.35 0.36 0.36 0.34
0.07 0.19 0.37 0.57 0.50 0.27 0.21 0.13 0.10 0.13 0.24 0.31 0.48 0.82 1.01 1.13 1.03 0.92 0.85 0.88 1.01 1.04 0.91 0.77 0.70 0.62 0.59 0.54 0.50 0.46 0.44 0.39 0.34 0.30 0.27 0.29 0.30 0.29 0.31 0.31 0.30 0.29 0.29 0.28
0.07 0.20 0.25 0.26 0.20 0.21 0.23 0.19 0.16 0.17 0.23 0.39 0.58 0.74 0.91 1.13 1.19 1.15 1.03 0.98 1.04 1.03 0.97 0.87 0.78 0.71 0.63 0.58 0.51 0.46 0.41 0.35 0.30 0.29 0.28 0.28 0.27 0.25 0.26 0.26 0.27 0.26 0.23 0.19
0.07 0.15 0.20 0.23 0.19 0.18 0.23 0.24 0.23 0.24 0.33 0.49 0.64 0.91 1.17 1.31 1.33 1.27 1.19 1.11 1.12 1.05 0.99 0.94 0.85 0.76 0.67 0.64 0.62 0.55 0.48 0.39 0.35 0.34 0.34 0.31 0.27 0.24 0.25 0.23 0.23 0.22 0.20 0.17
0.08 0.14 0.27 0.30 0.20 0.26 0.48 0.43 0.40 0.40 0.43 0.57 0.71 0.91 1.11 1.24 1.34 1.39 1.34 1.28 1.24 1.13 1.09 1.05 0.95 0.85 0.78 0.72 0.65 0.61 0.53 0.46 0.42 0.39 0.33 0.29 0.23 0.22 0.20 0.18 0.18 0.18 0.16 0.13
0.08 0.15 0.25 0.28 0.34 0.58 0.65 0.39 0.38 0.46 0.40 0.42 0.55 0.64 0.80 1.01 1.10 1.18 1.26 1.34 1.38 1.31 1.23 1.11 1.02 0.95 0.90 0.81 0.72 0.63 0.52 0.42 0.36 0.31 0.28 0.23 0.20 0.19 0.17 0.16 0.15 0.13 0.13 0.13
0.05 0.17 0.32 0.34 0.48 0.61 0.60 0.30 0.28 0.46 0.53 0.42 0.43 0.47 0.55 0.60 0.78 1.02 1.09 1.13 1.26 1.27 1.21 1.11 1.00 0.93 0.86 0.77 0.65 0.53 0.43 0.34 0.28 0.24 0.21 0.18 0.16 0.13 0.12 0.12 0.13 0.13 0.13 0.13
0.05 0.13 0.35 0.45 0.63 0.69 0.59 0.21 0.19 0.42 0.70 0.52 0.52 0.52 0.59 0.65 0.80 0.88 0.87 0.91 1.02 1.07 1.05 1.00 0.95 0.87 0.76 0.64 0.50 0.41 0.34 0.26 0.22 0.20 0.17 0.14 0.12 0.11 0.12 0.13 0.14 0.14 0.14 0.14
0.22 0.25 0.37 0.50 0.70 0.68 0.33 0.16 0.25 0.59 0.70 0.53 0.59 0.67 0.71 0.78 0.81 0.70 0.67 0.77 0.87 0.92 0.92 0.86 0.78 0.71 0.59 0.48 0.38 0.33 0.29 0.24 0.15 0.11 0.10 0.10 0.10 0.10 0.08 0.12 0.14 0.15 0.16 0.17
0.41 0.46 0.51 0.57 0.70 0.72 0.26 0.19 0.39 0.49 0.36 0.42 0.52 0.52 0.59 0.58 0.57 0.60 0.64 0.74 0.81 0.84 0.82 0.76 0.67 0.55 0.42 0.31 0.27 0.25 0.20 0.13 0.08 0.07 0.08 0.09 0.09 0.06 0.06 0.12 0.15 0.15 0.17 0.17
0.45 0.51 0.55 0.61 0.70 0.51 0.25 0.19 0.20 0.24 0.29 0.34 0.41 0.41 0.46 0.52 0.53 0.54 0.61 0.69 0.76 0.73 0.64 0.54 0.45 0.37 0.29 0.23 0.20 0.19 0.13 0.08 0.06 0.09 0.12 0.12 0.10 0.09 0.07 0.08 0.11 0.12 0.14 0.14
0.52 0.42 0.48 0.52 0.53 0.39 0.26 0.18 0.16 0.17 0.22 0.27 0.33 0.40 0.44 0.51 0.53 0.53 0.55 0.56 0.57 0.55 0.45 0.36 0.29 0.27 0.23 0.17 0.14 0.12 0.07 0.05 0.08 0.13 0.14 0.12 0.13 0.13 0.10 0.09 0.06 0.07 0.09 0.10
0.40 0.49 0.64 0.69 0.64 0.48 0.36 0.25 0.20 0.22 0.27 0.31 0.38 0.42 0.42 0.43 0.49 0.50 0.50 0.45 0.39 0.33 0.28 0.23 0.23 0.21 0.17 0.13 0.11 0.08 0.06 0.06 0.11 0.13 0.11 0.11 0.10 0.10 0.11 0.09 0.04 0.03 0.04 0.02
0.18 0.39 0.72 0.85 0.71 0.61 0.57 0.48 0.42 0.47 0.53 0.46 0.39 0.40 0.43 0.39 0.38 0.33 0.29 0.26 0.21 0.18 0.15 0.13 0.13 0.12 0.11 0.09 0.08 0.06 0.05 0.05 0.10 0.12 0.10 0.09 0.08 0.07 0.07 0.09 0.08 0.02 0.01 0.01

GEFSCGP_prec_meanprecacc_114.txt.gz
Total_Precipitation_Accumulation
0.00 0.00 0.00 0.00 0.00 0.00 0.00 0.00 0.01 0.01 0.01 0.01 0.03 0.07 0.10 0.11 0.12 0.14 0.19 0.27 0.32 0.34 0.43 0.75 1.21 1.77 2.17 2.37 2.41 2.48 2.45 2.44 2.39 2.36 2.41 2.59 2.75 2.78 2.73 2.70 2.67 2.65 2.61 2.61
0.00 0.00 0.00 0.00 0.00 0.00 0.00 0.00 0.01 0.02 0.02 0.03 0.05 0.11 0.17 0.18 0.19 0.23 0.32 0.34 0.34 0.38 0.49 0.83 1.17 1.54 1.86 2.12 2.31 2.42 2.35 2.53 2.74 3.03 3.38 3.66 3.83 3.73 3.59 3.49 3.35 3.27 3.20 3.09
0.00 0.00 0.00 0.00 0.00 0.00 0.00 0.00 0.01 0.04 0.06 0.07 0.09 0.18 0.23 0.25 0.28 0.31 0.35 0.41 0.42 0.43 0.55 0.82 0.98 1.17 1.48 1.84 2.09 2.25 2.44 2.86 3.32 3.80 4.42 4.83 4.71 4.43 4.26 3.95 3.79 3.54 3.29 3.19
0.00 0.00 0.00 0.00 0.00 0.00 0.01 0.01 0.02 0.03 0.04 0.08 0.09 0.22 0.33 0.38 0.41 0.41 0.42 0.41 0.42 0.42 0.47 0.65 0.88 1.06 1.29 1.68 2.05 2.33 2.69 3.20 3.79 4.26 4.70 5.00 5.04 4.84 4.60 4.14 3.73 3.29 2.96 2.78
0.00 0.00 0.00 0.01 0.00 0.00 0.01 0.02 0.03 0.02 0.02 0.05 0.10 0.22 0.45 0.51 0.46 0.44 0.42 0.38 0.34 0.34 0.38 0.48 0.64 0.85 1.13 1.53 1.96 2.31 2.63 3.19 3.72 4.19 4.53 4.77 4.88 4.75 4.44 3.83 3.26 2.88 2.59 2.36
0.00 0.00 0.01 0.01 0.00 0.00 0.00 0.01 0.03 0.03 0.04 0.09 0.09 0.21 0.53 0.74 0.65 0.51 0.48 0.41 0.36 0.32 0.35 0.44 0.56 0.72 0.99 1.31 1.66 2.00 2.33 2.98 3.61 4.08 4.42 4.68 4.67 4.39 3.90 3.34 2.84 2.55 2.33 2.11
0.02 0.02 0.02 0.01 0.00 0.00 0.01 0.02 0.09 0.11 0.12 0.12 0.11 0.28 0.62 0.75 0.68 0.57 0.51 0.42 0.35 0.30 0.31 0.39 0.52 0.64 0.91 1.21 1.50 1.85 2.18 2.58 3.04 3.40 3.58 3.72 3.76 3.60 3.36 3.02 2.62 2.29 2.08 1.88
0.06 0.05 0.03 0.02 0.01 0.01 0.01 0.03 0.10 0.15 0.15 0.16 0.25 0.52 0.79 0.76 0.69 0.62 0.54 0.42 0.36 0.32 0.33 0.39 0.53 0.66 0.80 1.03 1.32 1.66 1.93 2.18 2.38 2.53 2.68 2.66 2.62 2.55 2.46 2.18 1.86 1.61 1.40 1.25
0.08 0.08 0.04 0.01 0.01 0.01 0.02 0.03 0.04 0.07 0.09 0.19 0.47 0.69 0.93 0.86 0.85 0.74 0.63 0.52 0.43 0.38 0.38 0.46 0.59 0.68 0.77 0.90 1.11 1.28 1.42 1.57 1.63 1.59 1.58 1.63 1.64 1.58 1.47 1.32 1.11 0.92 0.75 0.65
0.08 0.07 0.05 0.03 0.02 0.02 0.02 0.03 0.05 0.10 0.16 0.27 0.46 0.75 1.06 1.11 1.05 0.83 0.67 0.56 0.46 0.44 0.46 0.52 0.62 0.69 0.73 0.79 0.95 1.05 1.06 1.03 1.05 1.10 1.09 1.06 1.05 1.03 0.99 0.92 0.84 0.73 0.61 0.50
0.08 0.09 0.08 0.05 0.06 0.08 0.06 0.06 0.06 0.12 0.17 0.31 0.56 0.98 1.11 1.26 1.20 1.00 0.85 0.66 0.56 0.53 0.56 0.63 0.63 0.61 0.61 0.64 0.67 0.71 0.76 0.79 0.80 0.82 0.83 0.81 0.74 0.69 0.66 0.66 0.62 0.57 0.49 0.42
0.09 0.09 0.16 0.12 0.09 0.08 0.06 0.07 0.10 0.18 0.24 0.28 0.53 1.16 1.17 1.42 1.38 1.18 0.99 0.77 0.70 0.67 0.66 0.65 0.61 0.57 0.56 0.60 0.62 0.62 0.64 0.65 0.67 0.67 0.64 0.62 0.54 0.50 0.48 0.47 0.46 0.42 0.40 0.38
0.09 0.13 0.25 0.30 0.26 0.17 0.12 0.09 0.11 0.14 0.20 0.27 0.50 1.17 1.31 1.35 1.33 1.07 0.88 0.80 0.86 0.90 0.87 0.78 0.71 0.63 0.59 0.58 0.58 0.55 0.54 0.51 0.46 0.42 0.41 0.43 0.42 0.40 0.42 0.39 0.37 0.38 0.37 0.35
0.08 0.22 0.39 0.59 0.52 0.29 0.22 0.14 0.12 0.15 0.25 0.32 0.50 0.86 1.07 1.18 1.09 0.97 0.89 0.91 1.02 1.06 0.92 0.79 0.72 0.65 0.62 0.58 0.53 0.49 0.47 0.42 0.38 0.34 0.30 0.32 0.32 0.32 0.33 0.33 0.32 0.30 0.30 0.29
0.08 0.22 0.28 0.27 0.21 0.22 0.24 0.20 0.17 0.18 0.23 0.40 0.60 0.77 0.95 1.16 1.23 1.18 1.05 0.99 1.05 1.04 0.98 0.89 0.79 0.72 0.65 0.60 0.53 0.48 0.43 0.37 0.33 0.32 0.32 0.31 0.30 0.29 0.29 0.29 0.30 0.27 0.24 0.21
0.09 0.17 0.22 0.25 0.21 0.21 0.25 0.25 0.24 0.25 0.35 0.50 0.66 0.94 1.22 1.35 1.37 1.30 1.20 1.12 1.13 1.06 1.01 0.96 0.87 0.77 0.68 0.65 0.63 0.58 0.51 0.43 0.39 0.38 0.38 0.34 0.31 0.29 0.29 0.27 0.26 0.24 0.22 0.19
0.11 0.18 0.31 0.33 0.23 0.30 0.51 0.45 0.41 0.41 0.44 0.58 0.74 0.95 1.16 1.28 1.38 1.41 1.35 1.30 1.27 1.17 1.13 1.07 0.97 0.86 0.80 0.74 0.67 0.63 0.56 0.50 0.45 0.42 0.37 0.33 0.27 0.26 0.24 0.21 0.21 0.20 0.17 0.15
0.12 0.20 0.30 0.33 0.40 0.68 0.71 0.41 0.39 0.47 0.41 0.44 0.58 0.67 0.83 1.04 1.14 1.22 1.28 1.35 1.40 1.33 1.25 1.13 1.04 0.98 0.93 0.84 0.74 0.65 0.55 0.46 0.40 0.36 0.32 0.26 0.23 0.22 0.20 0.18 0.17 0.15 0.14 0.14
0.09 0.19 0.37 0.40 0.56 0.72 0.66 0.32 0.29 0.48 0.56 0.44 0.44 0.48 0.56 0.61 0.79 1.03 1.11 1.14 1.27 1.29 1.24 1.13 1.02 0.95 0.89 0.80 0.68 0.56 0.47 0.38 0.32 0.29 0.25 0.21 0.18 0.15 0.14 0.14 0.15 0.15 0.15 0.15
0.08 0.15 0.40 0.54 0.74 0.82 0.63 0.24 0.21 0.43 0.72 0.54 0.53 0.52 0.60 0.65 0.81 0.89 0.88 0.92 1.03 1.08 1.07 1.03 0.98 0.90 0.79 0.67 0.53 0.45 0.38 0.30 0.26 0.23 0.20 0.17 0.15 0.13 0.14 0.16 0.16 0.15 0.16 0.15
0.26 0.29 0.43 0.60 0.79 0.77 0.36 0.18 0.26 0.61 0.73 0.55 0.60 0.67 0.72 0.79 0.81 0.70 0.67 0.78 0.89 0.94 0.95 0.89 0.82 0.74 0.62 0.50 0.41 0.36 0.31 0.26 0.18 0.13 0.12 0.11 0.13 0.12 0.11 0.14 0.16 0.17 0.18 0.18
0.48 0.52 0.57 0.64 0.77 0.79 0.29 0.20 0.40 0.50 0.37 0.43 0.52 0.53 0.59 0.58 0.57 0.61 0.64 0.74 0.82 0.86 0.85 0.79 0.69 0.57 0.44 0.34 0.29 0.28 0.21 0.14 0.09 0.09 0.09 0.10 0.10 0.08 0.07 0.13 0.16 0.16 0.18 0.18
0.54 0.58 0.60 0.67 0.75 0.54 0.27 0.20 0.20 0.24 0.29 0.34 0.41 0.41 0.46 0.52 0.53 0.54 0.62 0.70 0.77 0.74 0.66 0.56 0.47 0.40 0.31 0.24 0.22 0.21 0.15 0.08 0.07 0.11 0.13 0.13 0.11 0.10 0.08 0.10 0.13 0.14 0.15 0.15
0.63 0.50 0.54 0.57 0.57 0.41 0.27 0.19 0.16 0.17 0.22 0.27 0.34 0.40 0.44 0.51 0.53 0.53 0.55 0.57 0.58 0.56 0.47 0.38 0.32 0.29 0.25 0.18 0.15 0.13 0.08 0.06 0.09 0.14 0.15 0.13 0.15 0.14 0.11 0.10 0.07 0.08 0.10 0.10
0.50 0.57 0.71 0.74 0.69 0.51 0.38 0.26 0.21 0.22 0.27 0.31 0.38 0.42 0.42 0.43 0.49 0.50 0.50 0.46 0.40 0.34 0.29 0.25 0.25 0.23 0.18 0.14 0.12 0.08 0.07 0.06 0.12 0.13 0.12 0.12 0.11 0.11 0.12 0.09 0.05 0.03 0.04 0.03
0.25 0.44 0.76 0.89 0.74 0.63 0.58 0.49 0.43 0.47 0.53 0.47 0.39 0.40 0.43 0.40 0.38 0.34 0.30 0.27 0.22 0.19 0.17 0.15 0.15 0.14 0.12 0.10 0.08 0.06 0.05 0.05 0.11 0.13 0.11 0.10 0.09 0.08 0.07 0.09 0.08 0.02 0.01 0.01

GEFSCGP_prec_meanprecacc_120.txt.gz
Total_Precipitation_Accumulation
0.00 0.00 0.00 0.00 0.00 0.00 0.00 0.00 0.01 0.01 0.01 0.01 0.03 0.08 0.12 0.12 0.13 0.15 0.20 0.29 0.33 0.35 0.44 0.76 1.22 1.80 2.22 2.45 2.49 2.57 2.53 2.54 2.57 2.57 2.61 2.80 3.00 3.06 3.01 3.02 3.00 2.92 2.86 2.89
0.00 0.00 0.00 0.00 0.00 0.00 0.00 0.00 0.01 0.02 0.03 0.04 0.05 0.12 0.18 0.19 0.20 0.25 0.34 0.37 0.36 0.40 0.50 0.84 1.19 1.57 1.91 2.20 2.38 2.49 2.44 2.62 2.85 3.17 3.55 3.87 4.09 4.00 3.84 3.75 3.63 3.52 3.44 3.35
0.00 0.00 0.00 0.00 0.00 0.00 0.00 0.00 0.01 0.04 0.06 0.07 0.09 0.19 0.24 0.26 0.30 0.33 0.38 0.44 0.44 0.45 0.57 0.83 1.01 1.22 1.52 1.88 2.13 2.31 2.52 2.94 3.41 3.90 4.53 4.98 4.91 4.62 4.45 4.16 4.04 3.77 3.49 3.41
0.00 0.00 0.00 0.00 0.00 0.00 0.01 0.01 0.02 0.03 0.05 0.09 0.10 0.22 0.35 0.40 0.42 0.43 0.44 0.43 0.44 0.44 0.49 0.68 0.91 1.11 1.35 1.73 2.09 2.39 2.76 3.27 3.87 4.35 4.80 5.11 5.15 4.95 4.71 4.26 3.89 3.48 3.11 2.92
0.00 0.00 0.00 0.01 0.00 0.00 0.01 0.02 0.03 0.02 0.02 0.05 0.11 0.22 0.46 0.52 0.47 0.46 0.44 0.40 0.37 0.36 0.40 0.50 0.67 0.89 1.19 1.59 2.02 2.38 2.71 3.26 3.81 4.31 4.66 4.88 4.98 4.86 4.54 3.93 3.37 3.00 2.70 2.47
0.00 0.00 0.01 0.01 0.00 0.00 0.00 0.01 0.03 0.04 0.04 0.09 0.09 0.21 0.53 0.74 0.66 0.53 0.49 0.43 0.38 0.35 0.37 0.46 0.58 0.74 1.03 1.37 1.73 2.07 2.43 3.06 3.70 4.21 4.56 4.80 4.80 4.51 4.00 3.43 2.92 2.64 2.42 2.19
0.02 0.02 0.02 0.01 0.01 0.01 0.01 0.02 0.09 0.12 0.12 0.12 0.11 0.28 0.63 0.76 0.70 0.59 0.52 0.45 0.40 0.34 0.34 0.41 0.54 0.66 0.93 1.25 1.54 1.89 2.25 2.66 3.12 3.50 3.73 3.88 3.88 3.67 3.42 3.08 2.68 2.36 2.17 1.96
0.06 0.05 0.03 0.02 0.01 0.01 0.01 0.03 0.10 0.15 0.15 0.16 0.25 0.52 0.80 0.77 0.70 0.64 0.56 0.47 0.42 0.37 0.37 0.42 0.55 0.68 0.81 1.04 1.33 1.67 1.95 2.22 2.43 2.59 2.78 2.78 2.74 2.67 2.55 2.25 1.93 1.68 1.47 1.34
0.08 0.08 0.04 0.02 0.01 0.01 0.02 0.03 0.04 0.07 0.09 0.19 0.47 0.69 0.94 0.87 0.87 0.76 0.66 0.59 0.52 0.45 0.43 0.50 0.61 0.69 0.79 0.92 1.12 1.29 1.43 1.59 1.65 1.63 1.64 1.70 1.73 1.69 1.57 1.41 1.21 0.98 0.81 0.73
0.09 0.07 0.06 0.03 0.02 0.02 0.03 0.03 0.05 0.10 0.16 0.27 0.46 0.75 1.06 1.12 1.07 0.85 0.69 0.58 0.49 0.47 0.48 0.54 0.63 0.71 0.76 0.81 0.98 1.07 1.08 1.05 1.08 1.13 1.13 1.10 1.11 1.11 1.07 1.00 0.91 0.79 0.67 0.56
0.08 0.10 0.08 0.05 0.06 0.08 0.06 0.06 0.07 0.12 0.17 0.31 0.56 0.99 1.11 1.27 1.22 1.02 0.87 0.68 0.57 0.55 0.58 0.64 0.65 0.63 0.63 0.66 0.70 0.75 0.80 0.83 0.84 0.85 0.85 0.84 0.78 0.73 0.72 0.73 0.69 0.62 0.55 0.48
0.09 0.10 0.16 0.12 0.09 0.09 0.07 0.08 0.10 0.19 0.24 0.28 0.53 1.16 1.18 1.43 1.38 1.20 1.01 0.79 0.72 0.70 0.68 0.66 0.63 0.59 0.58 0.62 0.65 0.65 0.67 0.67 0.69 0.69 0.66 0.64 0.58 0.53 0.53 0.52 0.51 0.46 0.43 0.42
0.09 0.14 0.26 0.31 0.26 0.17 0.12 0.09 0.12 0.14 0.20 0.27 0.50 1.17 1.31 1.35 1.34 1.08 0.90 0.82 0.87 0.91 0.88 0.79 0.72 0.64 0.60 0.61 0.61 0.58 0.56 0.52 0.47 0.44 0.44 0.47 0.46 0.44 0.46 0.43 0.40 0.41 0.40 0.38
0.08 0.22 0.40 0.60 0.52 0.29 0.23 0.15 0.12 0.15 0.26 0.32 0.50 0.86 1.07 1.19 1.10 0.98 0.90 0.92 1.03 1.06 0.93 0.79 0.73 0.66 0.63 0.60 0.56 0.51 0.47 0.43 0.40 0.36 0.34 0.36 0.37 0.36 0.37 0.37 0.35 0.33 0.32 0.31
0.09 0.23 0.29 0.28 0.22 0.22 0.24 0.20 0.17 0.19 0.24 0.40 0.60 0.77 0.96 1.17 1.24 1.19 1.06 1.01 1.06 1.05 0.99 0.89 0.79 0.73 0.66 0.62 0.55 0.50 0.45 0.38 0.35 0.35 0.35 0.35 0.34 0.33 0.33 0.33 0.33 0.30 0.26 0.23
0.10 0.18 0.22 0.25 0.22 0.22 0.26 0.26 0.24 0.25 0.35 0.50 0.67 0.94 1.22 1.36 1.38 1.30 1.21 1.13 1.14 1.07 1.01 0.96 0.87 0.78 0.69 0.67 0.64 0.59 0.53 0.44 0.40 0.41 0.41 0.37 0.33 0.33 0.33 0.31 0.29 0.26 0.24 0.21
0.12 0.19 0.32 0.34 0.24 0.31 0.52 0.45 0.41 0.41 0.44 0.59 0.74 0.95 1.16 1.29 1.38 1.42 1.36 1.31 1.27 1.17 1.13 1.08 0.99 0.88 0.81 0.75 0.69 0.65 0.58 0.51 0.47 0.45 0.41 0.36 0.30 0.29 0.28 0.25 0.25 0.22 0.19 0.17
0.14 0.21 0.31 0.34 0.40 0.68 0.71 0.41 0.39 0.47 0.41 0.44 0.58 0.68 0.84 1.05 1.15 1.23 1.30 1.38 1.42 1.35 1.25 1.13 1.05 0.99 0.94 0.86 0.76 0.68 0.57 0.48 0.42 0.38 0.34 0.29 0.26 0.25 0.23 0.22 0.21 0.17 0.17 0.18
0.10 0.21 0.39 0.41 0.56 0.72 0.66 0.33 0.30 0.49 0.56 0.45 0.44 0.48 0.57 0.62 0.81 1.06 1.14 1.16 1.30 1.31 1.26 1.15 1.04 0.98 0.91 0.83 0.71 0.59 0.50 0.40 0.34 0.31 0.27 0.24 0.20 0.18 0.17 0.17 0.17 0.17 0.18 0.19
0.09 0.17 0.42 0.56 0.76 0.82 0.64 0.24 0.22 0.44 0.73 0.55 0.54 0.53 0.60 0.65 0.81 0.90 0.89 0.93 1.04 1.10 1.09 1.05 0.99 0.92 0.81 0.69 0.56 0.47 0.41 0.33 0.28 0.25 0.22 0.19 0.17 0.16 0.18 0.19 0.19 0.17 0.18 0.18
0.28 0.31 0.45 0.62 0.81 0.78 0.37 0.19 0.27 0.62 0.73 0.56 0.61 0.68 0.72 0.79 0.81 0.70 0.68 0.78 0.90 0.95 0.96 0.91 0.83 0.75 0.64 0.52 0.43 0.38 0.34 0.29 0.20 0.16 0.15 0.14 0.15 0.15 0.13 0.17 0.20 0.20 0.20 0.21
0.50 0.54 0.59 0.66 0.79 0.80 0.30 0.21 0.41 0.51 0.37 0.43 0.53 0.53 0.60 0.59 0.58 0.61 0.65 0.75 0.83 0.88 0.86 0.80 0.71 0.59 0.46 0.36 0.32 0.30 0.24 0.16 0.11 0.11 0.12 0.13 0.13 0.11 0.10 0.16 0.20 0.20 0.21 0.21
0.57 0.60 0.62 0.69 0.77 0.55 0.28 0.22 0.22 0.25 0.29 0.34 0.41 0.41 0.46 0.52 0.53 0.54 0.62 0.70 0.78 0.75 0.67 0.57 0.48 0.42 0.33 0.25 0.23 0.22 0.16 0.10 0.08 0.12 0.14 0.14 0.13 0.12 0.10 0.12 0.15 0.16 0.18 0.17
0.65 0.52 0.56 0.59 0.60 0.43 0.28 0.20 0.17 0.18 0.22 0.27 0.34 0.40 0.44 0.51 0.53 0.53 0.55 0.57 0.59 0.56 0.48 0.39 0.33 0.31 0.27 0.19 0.16 0.14 0.09 0.07 0.10 0.15 0.15 0.14 0.16 0.15 0.12 0.11 0.09 0.09 0.11 0.11
0.52 0.59 0.74 0.78 0.72 0.53 0.38 0.26 0.21 0.22 0.27 0.31 0.38 0.42 0.42 0.43 0.49 0.50 0.50 0.46 0.40 0.35 0.30 0.26 0.26 0.25 0.20 0.16 0.12 0.09 0.07 0.07 0.12 0.14 0.12 0.12 0.12 0.12 0.13 0.10 0.06 0.04 0.05 0.03
0.27 0.46 0.78 0.91 0.75 0.64 0.59 0.49 0.43 0.48 0.54 0.47 0.40 0.40 0.43 0.40 0.38 0.34 0.30 0.27 0.23 0.20 0.18 0.16 0.16 0.15 0.13 0.11 0.09 0.07 0.06 0.06 0.11 0.13 0.11 0.10 0.09 0.08 0.08 0.10 0.09 0.03 0.01 0.01

GEFSCGP_prec_meanprecacc_126.txt.gz
Total_Precipitation_Accumulation
0.00 0.00 0.00 0.00 0.00 0.00 0.00 0.00 0.01 0.01 0.01 0.01 0.03 0.08 0.12 0.13 0.13 0.16 0.21 0.29 0.34 0.36 0.45 0.77 1.23 1.81 2.23 2.47 2.52 2.60 2.56 2.58 2.62 2.63 2.67 2.86 3.06 3.14 3.12 3.18 3.16 3.04 2.98 3.00
0.00 0.00 0.00 0.00 0.00 0.00 0.00 0.00 0.01 0.03 0.03 0.04 0.05 0.12 0.18 0.19 0.20 0.25 0.34 0.37 0.37 0.41 0.51 0.84 1.19 1.57 1.93 2.22 2.40 2.51 2.46 2.64 2.89 3.21 3.61 3.93 4.15 4.08 3.96 3.89 3.80 3.67 3.57 3.47
0.00 0.00 0.00 0.00 0.00 0.00 0.00 0.00 0.01 0.04 0.06 0.07 0.09 0.20 0.24 0.26 0.30 0.33 0.38 0.44 0.45 0.46 0.58 0.84 1.02 1.23 1.53 1.89 2.15 2.33 2.54 2.96 3.43 3.92 4.57 5.03 4.98 4.68 4.53 4.25 4.15 3.91 3.63 3.55
0.00 0.00 0.00 0.00 0.00 0.00 0.01 0.01 0.02 0.03 0.05 0.09 0.10 0.23 0.35 0.40 0.43 0.44 0.45 0.44 0.44 0.45 0.50 0.69 0.92 1.12 1.36 1.74 2.11 2.41 2.78 3.28 3.89 4.37 4.83 5.14 5.19 5.00 4.76 4.32 3.96 3.58 3.25 3.06
0.00 0.00 0.00 0.01 0.00 0.00 0.01 0.02 0.03 0.02 0.02 0.05 0.11 0.23 0.46 0.53 0.48 0.47 0.44 0.41 0.37 0.38 0.41 0.52 0.68 0.90 1.20 1.61 2.04 2.40 2.73 3.29 3.84 4.35 4.71 4.93 5.05 4.94 4.61 4.00 3.43 3.07 2.78 2.57
0.00 0.00 0.01 0.01 0.00 0.00 0.00 0.01 0.03 0.04 0.04 0.09 0.09 0.22 0.54 0.75 0.66 0.54 0.50 0.43 0.39 0.36 0.39 0.47 0.60 0.75 1.04 1.39 1.75 2.11 2.45 3.10 3.74 4.26 4.64 4.88 4.91 4.63 4.08 3.51 2.99 2.69 2.47 2.25
0.02 0.02 0.02 0.01 0.01 0.01 0.01 0.02 0.09 0.12 0.12 0.12 0.11 0.28 0.63 0.76 0.70 0.60 0.54 0.46 0.41 0.36 0.38 0.44 0.56 0.67 0.94 1.26 1.56 1.91 2.27 2.71 3.19 3.57 3.79 3.94 3.96 3.78 3.49 3.14 2.73 2.41 2.21 2.00
0.06 0.05 0.03 0.02 0.01 0.01 0.01 0.03 0.11 0.16 0.16 0.16 0.25 0.52 0.80 0.77 0.71 0.65 0.57 0.49 0.45 0.43 0.44 0.48 0.58 0.69 0.81 1.05 1.34 1.68 1.97 2.25 2.48 2.64 2.82 2.82 2.78 2.71 2.59 2.29 1.97 1.71 1.50 1.37
0.08 0.08 0.04 0.02 0.01 0.01 0.02 0.03 0.04 0.07 0.09 0.19 0.47 0.69 0.94 0.87 0.87 0.76 0.67 0.60 0.54 0.51 0.50 0.55 0.63 0.70 0.81 0.94 1.14 1.32 1.45 1.61 1.67 1.65 1.66 1.71 1.75 1.72 1.61 1.44 1.23 1.00 0.84 0.75
0.09 0.07 0.06 0.03 0.02 0.02 0.03 0.03 0.05 0.10 0.16 0.28 0.47 0.76 1.07 1.13 1.07 0.86 0.70 0.59 0.50 0.49 0.50 0.55 0.65 0.72 0.78 0.84 1.01 1.10 1.10 1.07 1.10 1.15 1.15 1.12 1.13 1.13 1.11 1.05 0.94 0.81 0.69 0.59
0.08 0.10 0.08 0.05 0.06 0.08 0.06 0.06 0.07 0.13 0.17 0.32 0.57 0.99 1.11 1.28 1.22 1.02 0.87 0.68 0.58 0.55 0.59 0.65 0.66 0.64 0.65 0.68 0.72 0.78 0.82 0.85 0.85 0.86 0.87 0.86 0.80 0.75 0.74 0.76 0.73 0.65 0.57 0.50
0.09 0.10 0.16 0.12 0.09 0.09 0.07 0.08 0.10 0.20 0.25 0.29 0.54 1.17 1.18 1.43 1.39 1.20 1.01 0.79 0.72 0.71 0.69 0.66 0.63 0.60 0.60 0.64 0.68 0.69 0.70 0.69 0.71 0.70 0.68 0.66 0.59 0.56 0.56 0.55 0.54 0.49 0.46 0.45
0.09 0.14 0.26 0.31 0.27 0.17 0.12 0.09 0.12 0.14 0.21 0.29 0.51 1.19 1.31 1.36 1.34 1.08 0.91 0.82 0.87 0.92 0.89 0.80 0.72 0.64 0.61 0.63 0.64 0.60 0.58 0.54 0.48 0.45 0.45 0.49 0.47 0.46 0.49 0.46 0.44 0.46 0.44 0.42
0.08 0.22 0.40 0.60 0.53 0.29 0.23 0.15 0.12 0.15 0.26 0.33 0.51 0.86 1.07 1.19 1.10 0.98 0.90 0.92 1.04 1.07 0.94 0.80 0.73 0.66 0.64 0.61 0.57 0.53 0.49 0.45 0.41 0.37 0.35 0.38 0.39 0.38 0.40 0.41 0.39 0.38 0.36 0.35
0.09 0.23 0.29 0.28 0.22 0.22 0.24 0.20 0.17 0.19 0.24 0.41 0.61 0.78 0.96 1.17 1.24 1.19 1.07 1.01 1.06 1.05 0.99 0.90 0.80 0.73 0.67 0.63 0.56 0.51 0.46 0.40 0.37 0.37 0.36 0.37 0.37 0.36 0.36 0.36 0.36 0.33 0.29 0.25
0.10 0.18 0.23 0.26 0.22 0.22 0.26 0.26 0.25 0.25 0.35 0.50 0.67 0.94 1.22 1.36 1.38 1.30 1.21 1.14 1.14 1.07 1.02 0.97 0.88 0.79 0.71 0.69 0.66 0.60 0.54 0.46 0.42 0.44 0.44 0.40 0.37 0.37 0.38 0.35 0.32 0.29 0.26 0.23
0.12 0.20 0.32 0.34 0.24 0.31 0.53 0.45 0.42 0.42 0.45 0.59 0.75 0.95 1.16 1.29 1.39 1.42 1.36 1.31 1.28 1.18 1.14 1.09 1.00 0.89 0.82 0.77 0.70 0.67 0.60 0.53 0.49 0.48 0.44 0.39 0.33 0.33 0.32 0.29 0.27 0.24 0.21 0.19
0.14 0.22 0.32 0.34 0.41 0.70 0.72 0.41 0.39 0.48 0.41 0.44 0.58 0.68 0.84 1.05 1.15 1.23 1.31 1.38 1.43 1.35 1.27 1.16 1.08 1.02 0.96 0.87 0.78 0.70 0.59 0.50 0.45 0.41 0.38 0.32 0.28 0.29 0.27 0.26 0.24 0.20 0.20 0.22
0.10 0.22 0.41 0.43 0.58 0.74 0.67 0.33 0.30 0.50 0.57 0.45 0.44 0.49 0.57 0.62 0.81 1.06 1.14 1.17 1.31 1.33 1.28 1.18 1.08 1.01 0.94 0.86 0.74 0.62 0.53 0.43 0.37 0.34 0.31 0.27 0.23 0.21 0.21 0.21 0.22 0.21 0.23 0.27
0.09 0.18 0.44 0.58 0.78 0.84 0.65 0.25 0.22 0.45 0.76 0.55 0.54 0.54 0.60 0.65 0.81 0.90 0.89 0.94 1.05 1.11 1.10 1.07 1.03 0.95 0.83 0.72 0.58 0.51 0.47 0.38 0.31 0.28 0.25 0.23 0.21 0.20 0.22 0.24 0.24 0.21 0.24 0.28
0.30 0.33 0.47 0.64 0.83 0.80 0.38 0.19 0.28 0.67 0.77 0.56 0.61 0.69 0.72 0.79 0.82 0.70 0.68 0.79 0.90 0.96 0.98 0.93 0.86 0.78 0.67 0.55 0.46 0.41 0.38 0.33 0.23 0.18 0.17 0.18 0.19 0.19 0.17 0.23 0.25 0.24 0.25 0.26
0.52 0.57 0.61 0.68 0.82 0.84 0.31 0.22 0.44 0.54 0.38 0.44 0.53 0.53 0.60 0.59 0.58 0.61 0.65 0.75 0.83 0.89 0.88 0.82 0.73 0.62 0.49 0.39 0.35 0.34 0.28 0.20 0.14 0.14 0.15 0.16 0.16 0.14 0.13 0.20 0.23 0.23 0.26 0.26
0.59 0.63 0.65 0.72 0.80 0.57 0.29 0.22 0.22 0.25 0.30 0.35 0.42 0.41 0.46 0.52 0.53 0.55 0.62 0.71 0.79 0.76 0.68 0.59 0.50 0.44 0.35 0.28 0.27 0.27 0.20 0.13 0.11 0.14 0.17 0.17 0.15 0.15 0.14 0.16 0.18 0.19 0.22 0.22
0.68 0.54 0.59 0.62 0.62 0.44 0.29 0.20 0.17 0.18 0.22 0.27 0.34 0.40 0.44 0.51 0.53 0.53 0.56 0.58 0.59 0.57 0.49 0.41 0.36 0.34 0.30 0.22 0.19 0.17 0.11 0.09 0.12 0.18 0.18 0.16 0.18 0.19 0.15 0.14 0.12 0.12 0.14 0.15
0.54 0.61 0.76 0.80 0.74 0.54 0.39 0.27 0.22 0.23 0.27 0.32 0.39 0.42 0.42 0.43 0.49 0.51 0.51 0.47 0.41 0.36 0.32 0.28 0.28 0.27 0.22 0.18 0.14 0.11 0.09 0.09 0.15 0.17 0.14 0.14 0.13 0.14 0.15 0.12 0.08 0.06 0.06 0.05
0.29 0.48 0.80 0.93 0.77 0.65 0.60 0.50 0.43 0.48 0.54 0.47 0.40 0.40 0.43 0.40 0.38 0.34 0.30 0.28 0.24 0.21 0.19 0.18 0.18 0.17 0.14 0.13 0.11 0.08 0.07 0.07 0.13 0.14 0.12 0.11 0.10 0.09 0.09 0.11 0.10 0.03 0.02 0.02

GEFSCGP_prec_meanprecacc_132.txt.gz
Total_Precipitation_Accumulation
0.00 0.00 0.00 0.00 0.00 0.00 0.00 0.00 0.01 0.01 0.02 0.02 0.04 0.09 0.12 0.13 0.15 0.20 0.24 0.31 0.36 0.38 0.47 0.78 1.24 1.81 2.24 2.48 2.54 2.62 2.59 2.61 2.66 2.68 2.74 2.92 3.12 3.19 3.18 3.24 3.23 3.11 3.05 3.09
0.00 0.00 0.00 0.00 0.00 0.01 0.01 0.00 0.01 0.03 0.04 0.04 0.08 0.14 0.19 0.20 0.21 0.27 0.38 0.39 0.39 0.43 0.54 0.86 1.20 1.59 1.94 2.24 2.42 2.54 2.49 2.68 2.92 3.26 3.69 4.02 4.23 4.14 4.03 3.96 3.86 3.73 3.63 3.54
0.00 0.00 0.00 0.00 0.00 0.01 0.01 0.01 0.02 0.04 0.06 0.08 0.11 0.22 0.26 0.27 0.31 0.34 0.40 0.46 0.46 0.48 0.60 0.86 1.02 1.23 1.54 1.90 2.17 2.35 2.57 2.99 3.46 3.97 4.66 5.13 5.05 4.74 4.58 4.31 4.21 3.99 3.70 3.62
0.00 0.00 0.00 0.00 0.01 0.01 0.01 0.01 0.03 0.04 0.05 0.09 0.10 0.26 0.41 0.42 0.44 0.45 0.47 0.46 0.46 0.46 0.51 0.70 0.93 1.13 1.37 1.75 2.11 2.42 2.80 3.32 3.93 4.41 4.87 5.19 5.23 5.04 4.82 4.37 4.01 3.62 3.30 3.11
0.00 0.00 0.01 0.01 0.01 0.01 0.01 0.02 0.03 0.02 0.02 0.06 0.11 0.25 0.53 0.59 0.55 0.53 0.49 0.44 0.40 0.39 0.42 0.52 0.69 0.90 1.21 1.61 2.04 2.41 2.75 3.32 3.88 4.40 4.76 4.97 5.09 4.99 4.68 4.07 3.49 3.12 2.84 2.62
0.00 0.00 0.01 0.01 0.00 0.00 0.00 0.01 0.03 0.04 0.05 0.10 0.11 0.25 0.66 0.90 0.79 0.63 0.56 0.47 0.41 0.37 0.39 0.48 0.60 0.76 1.05 1.39 1.76 2.12 2.47 3.12 3.77 4.30 4.69 4.92 4.95 4.68 4.14 3.56 3.04 2.74 2.52 2.29
0.02 0.02 0.02 0.01 0.01 0.01 0.01 0.02 0.11 0.16 0.17 0.19 0.16 0.31 0.70 0.81 0.76 0.68 0.59 0.49 0.42 0.37 0.39 0.44 0.57 0.68 0.94 1.26 1.57 1.93 2.30 2.73 3.21 3.60 3.83 3.98 4.00 3.82 3.53 3.17 2.76 2.44 2.24 2.03
0.06 0.05 0.04 0.02 0.01 0.01 0.01 0.04 0.13 0.20 0.21 0.23 0.32 0.60 0.87 0.80 0.72 0.67 0.59 0.50 0.45 0.43 0.46 0.50 0.60 0.69 0.82 1.05 1.35 1.70 2.00 2.29 2.52 2.67 2.85 2.86 2.80 2.74 2.61 2.31 1.98 1.73 1.52 1.39
0.09 0.09 0.05 0.02 0.01 0.01 0.02 0.04 0.04 0.09 0.11 0.23 0.51 0.75 1.00 0.90 0.88 0.77 0.68 0.61 0.55 0.51 0.51 0.56 0.65 0.71 0.81 0.95 1.15 1.34 1.48 1.65 1.71 1.67 1.68 1.73 1.76 1.74 1.62 1.46 1.24 1.02 0.85 0.76
0.09 0.08 0.06 0.03 0.02 0.02 0.03 0.03 0.05 0.12 0.19 0.32 0.51 0.82 1.16 1.21 1.11 0.87 0.70 0.59 0.50 0.49 0.51 0.55 0.65 0.72 0.78 0.84 1.01 1.12 1.13 1.10 1.13 1.17 1.17 1.13 1.15 1.14 1.12 1.06 0.96 0.83 0.71 0.60
0.08 0.10 0.09 0.05 0.06 0.08 0.06 0.07 0.08 0.14 0.19 0.36 0.63 1.07 1.18 1.34 1.26 1.04 0.88 0.68 0.58 0.56 0.59 0.65 0.66 0.64 0.66 0.68 0.73 0.79 0.84 0.87 0.87 0.88 0.90 0.88 0.81 0.76 0.75 0.77 0.75 0.68 0.60 0.53
0.09 0.10 0.17 0.13 0.10 0.09 0.07 0.08 0.11 0.22 0.27 0.32 0.59 1.24 1.22 1.47 1.43 1.22 1.03 0.80 0.72 0.71 0.69 0.67 0.63 0.60 0.61 0.65 0.68 0.69 0.71 0.70 0.73 0.73 0.71 0.70 0.61 0.57 0.57 0.57 0.56 0.51 0.48 0.47
0.09 0.14 0.28 0.35 0.30 0.19 0.13 0.10 0.12 0.15 0.23 0.31 0.57 1.26 1.34 1.37 1.35 1.10 0.92 0.83 0.87 0.92 0.89 0.80 0.73 0.65 0.62 0.64 0.65 0.61 0.58 0.54 0.50 0.47 0.47 0.51 0.50 0.48 0.51 0.49 0.48 0.50 0.46 0.44
0.08 0.23 0.44 0.70 0.63 0.34 0.25 0.16 0.12 0.16 0.28 0.36 0.55 0.93 1.13 1.22 1.15 1.05 0.94 0.94 1.04 1.07 0.94 0.80 0.74 0.67 0.64 0.62 0.58 0.53 0.49 0.46 0.42 0.38 0.36 0.40 0.42 0.42 0.43 0.45 0.43 0.42 0.39 0.37
0.09 0.24 0.30 0.29 0.24 0.23 0.25 0.21 0.18 0.19 0.24 0.42 0.64 0.83 1.02 1.23 1.33 1.27 1.10 1.02 1.07 1.06 1.00 0.91 0.81 0.74 0.68 0.65 0.57 0.52 0.48 0.41 0.38 0.39 0.39 0.39 0.41 0.40 0.40 0.41 0.41 0.36 0.32 0.29
0.11 0.18 0.23 0.26 0.22 0.22 0.27 0.27 0.25 0.26 0.36 0.51 0.69 0.98 1.26 1.42 1.44 1.34 1.23 1.14 1.15 1.09 1.04 0.98 0.90 0.80 0.72 0.70 0.68 0.62 0.56 0.48 0.44 0.46 0.47 0.44 0.41 0.41 0.42 0.40 0.36 0.32 0.29 0.26
0.13 0.21 0.35 0.36 0.24 0.32 0.57 0.49 0.44 0.43 0.46 0.61 0.78 0.99 1.19 1.33 1.42 1.44 1.37 1.31 1.29 1.20 1.16 1.11 1.02 0.92 0.85 0.78 0.72 0.68 0.61 0.54 0.51 0.50 0.47 0.43 0.38 0.36 0.35 0.32 0.32 0.28 0.25 0.24
0.15 0.23 0.35 0.36 0.44 0.76 0.76 0.43 0.42 0.50 0.44 0.47 0.61 0.71 0.87 1.06 1.16 1.24 1.32 1.39 1.44 1.37 1.28 1.18 1.10 1.04 0.99 0.89 0.80 0.71 0.60 0.52 0.48 0.46 0.42 0.35 0.32 0.33 0.31 0.30 0.30 0.27 0.27 0.28
0.11 0.23 0.43 0.45 0.63 0.79 0.71 0.36 0.32 0.53 0.61 0.47 0.48 0.53 0.63 0.64 0.81 1.07 1.15 1.18 1.32 1.34 1.30 1.20 1.10 1.03 0.96 0.87 0.76 0.64 0.56 0.46 0.40 0.38 0.34 0.29 0.25 0.25 0.26 0.26 0.28 0.29 0.31 0.35
0.10 0.19 0.47 0.61 0.83 0.93 0.74 0.28 0.25 0.49 0.86 0.61 0.58 0.58 0.66 0.68 0.85 0.93 0.91 0.94 1.06 1.12 1.12 1.08 1.04 0.96 0.86 0.74 0.61 0.54 0.51 0.44 0.36 0.31 0.28 0.26 0.25 0.25 0.27 0.29 0.30 0.28 0.31 0.37
0.34 0.37 0.51 0.69 0.89 0.89 0.44 0.21 0.31 0.76 0.89 0.62 0.66 0.75 0.77 0.83 0.85 0.72 0.69 0.80 0.91 0.98 0.99 0.94 0.88 0.81 0.71 0.59 0.50 0.46 0.44 0.39 0.27 0.20 0.20 0.22 0.24 0.24 0.21 0.27 0.30 0.30 0.31 0.34
0.58 0.62 0.67 0.75 0.91 0.95 0.36 0.25 0.50 0.64 0.44 0.48 0.57 0.57 0.63 0.61 0.59 0.62 0.65 0.76 0.84 0.90 0.89 0.84 0.76 0.66 0.54 0.44 0.41 0.40 0.33 0.25 0.17 0.17 0.18 0.19 0.19 0.16 0.16 0.25 0.29 0.30 0.35 0.33
0.64 0.70 0.74 0.81 0.90 0.65 0.33 0.26 0.26 0.29 0.34 0.38 0.43 0.43 0.47 0.53 0.54 0.55 0.63 0.72 0.80 0.77 0.70 0.62 0.53 0.47 0.39 0.33 0.34 0.32 0.24 0.16 0.13 0.18 0.21 0.20 0.18 0.17 0.16 0.20 0.23 0.26 0.32 0.32
0.73 0.60 0.65 0.70 0.69 0.47 0.31 0.22 0.19 0.20 0.24 0.29 0.35 0.41 0.45 0.52 0.55 0.55 0.57 0.59 0.61 0.60 0.52 0.44 0.38 0.37 0.33 0.26 0.24 0.21 0.15 0.12 0.16 0.22 0.22 0.20 0.22 0.22 0.18 0.17 0.15 0.17 0.21 0.23
0.60 0.67 0.83 0.88 0.79 0.57 0.42 0.29 0.24 0.24 0.28 0.32 0.39 0.43 0.43 0.44 0.49 0.51 0.52 0.48 0.43 0.39 0.35 0.31 0.32 0.31 0.26 0.21 0.17 0.14 0.12 0.13 0.19 0.21 0.18 0.17 0.17 0.18 0.19 0.16 0.11 0.08 0.08 0.07
0.33 0.53 0.88 1.00 0.80 0.68 0.63 0.51 0.44 0.48 0.54 0.48 0.41 0.41 0.44 0.40 0.38 0.35 0.31 0.29 0.25 0.23 0.22 0.21 0.21 0.20 0.18 0.16 0.13 0.11 0.10 0.10 0.17 0.19 0.16 0.14 0.12 0.12 0.11 0.13 0.11 0.05 0.03 0.03

GEFSCGP_prec_meanprecacc_138.txt.gz
Total_Precipitation_Accumulation
0.00 0.00 0.00 0.00 0.01 0.01 0.00 0.00 0.01 0.02 0.03 0.04 0.08 0.14 0.18 0.20 0.20 0.29 0.37 0.41 0.40 0.42 0.52 0.83 1.28 1.85 2.28 2.51 2.57 2.66 2.64 2.67 2.72 2.73 2.78 2.96 3.15 3.23 3.22 3.31 3.33 3.19 3.09 3.12
0.00 0.00 0.01 0.01 0.01 0.01 0.01 0.01 0.02 0.04 0.05 0.06 0.12 0.21 0.26 0.29 0.29 0.37 0.51 0.51 0.46 0.47 0.57 0.91 1.27 1.64 1.97 2.26 2.44 2.56 2.53 2.72 2.96 3.30 3.72 4.05 4.25 4.17 4.06 4.00 3.91 3.78 3.66 3.57
0.00 0.01 0.01 0.01 0.00 0.02 0.02 0.01 0.04 0.06 0.08 0.10 0.16 0.31 0.34 0.39 0.42 0.45 0.49 0.55 0.54 0.50 0.63 0.89 1.08 1.32 1.58 1.93 2.19 2.37 2.60 3.03 3.49 4.00 4.69 5.16 5.08 4.76 4.61 4.34 4.24 4.01 3.72 3.65
0.00 0.00 0.01 0.02 0.02 0.03 0.02 0.02 0.04 0.05 0.06 0.12 0.15 0.36 0.56 0.57 0.65 0.62 0.59 0.54 0.53 0.50 0.54 0.72 0.96 1.17 1.40 1.77 2.14 2.44 2.82 3.34 3.95 4.44 4.90 5.21 5.25 5.06 4.84 4.40 4.04 3.65 3.32 3.14
0.00 0.01 0.03 0.05 0.02 0.01 0.01 0.02 0.03 0.03 0.03 0.08 0.14 0.29 0.64 0.78 0.81 0.79 0.65 0.55 0.46 0.43 0.45 0.54 0.70 0.93 1.22 1.63 2.07 2.43 2.77 3.34 3.90 4.42 4.78 4.99 5.11 5.01 4.69 4.09 3.51 3.15 2.86 2.64
0.00 0.01 0.02 0.02 0.01 0.01 0.01 0.01 0.03 0.04 0.06 0.12 0.13 0.29 0.74 1.03 0.95 0.80 0.71 0.61 0.49 0.41 0.41 0.49 0.60 0.76 1.05 1.40 1.77 2.14 2.49 3.14 3.78 4.31 4.70 4.94 4.97 4.69 4.16 3.57 3.06 2.77 2.54 2.31
0.02 0.02 0.02 0.01 0.01 0.01 0.01 0.03 0.12 0.18 0.20 0.23 0.19 0.35 0.76 0.88 0.85 0.82 0.72 0.61 0.49 0.42 0.42 0.46 0.57 0.68 0.94 1.27 1.58 1.93 2.30 2.74 3.22 3.61 3.85 4.00 4.02 3.84 3.54 3.18 2.77 2.45 2.25 2.04
0.08 0.06 0.04 0.02 0.01 0.01 0.02 0.04 0.15 0.23 0.26 0.29 0.37 0.68 1.00 0.89 0.82 0.77 0.70 0.59 0.50 0.46 0.48 0.51 0.60 0.70 0.82 1.05 1.35 1.70 2.00 2.29 2.53 2.69 2.87 2.88 2.83 2.76 2.63 2.33 1.99 1.74 1.52 1.39
0.10 0.10 0.05 0.02 0.01 0.02 0.03 0.05 0.05 0.11 0.14 0.31 0.60 0.83 1.12 1.03 1.02 0.88 0.76 0.67 0.58 0.54 0.52 0.57 0.66 0.71 0.81 0.95 1.15 1.35 1.48 1.67 1.74 1.70 1.71 1.75 1.78 1.75 1.63 1.47 1.25 1.02 0.85 0.76
0.09 0.09 0.07 0.04 0.02 0.03 0.03 0.04 0.06 0.14 0.23 0.39 0.62 0.94 1.29 1.35 1.25 1.00 0.79 0.65 0.54 0.52 0.52 0.57 0.66 0.73 0.79 0.85 1.02 1.13 1.13 1.12 1.16 1.19 1.19 1.15 1.16 1.15 1.13 1.07 0.97 0.83 0.71 0.60
0.08 0.10 0.09 0.06 0.07 0.09 0.07 0.07 0.08 0.15 0.22 0.40 0.69 1.14 1.25 1.44 1.36 1.17 1.02 0.77 0.65 0.60 0.62 0.67 0.67 0.65 0.66 0.69 0.73 0.79 0.84 0.87 0.88 0.89 0.91 0.89 0.81 0.77 0.75 0.77 0.75 0.68 0.60 0.53
0.10 0.10 0.17 0.13 0.11 0.10 0.08 0.09 0.12 0.24 0.29 0.35 0.62 1.29 1.28 1.55 1.53 1.31 1.13 0.89 0.81 0.77 0.72 0.68 0.64 0.61 0.61 0.66 0.69 0.69 0.71 0.71 0.73 0.73 0.71 0.71 0.63 0.58 0.57 0.57 0.56 0.52 0.48 0.48
0.09 0.15 0.29 0.37 0.32 0.20 0.14 0.11 0.13 0.17 0.25 0.34 0.61 1.32 1.42 1.47 1.48 1.21 1.01 0.95 1.01 1.01 0.94 0.83 0.75 0.67 0.63 0.64 0.65 0.61 0.58 0.54 0.50 0.47 0.47 0.52 0.53 0.50 0.52 0.49 0.48 0.50 0.47 0.44
0.08 0.23 0.44 0.73 0.66 0.36 0.26 0.17 0.13 0.17 0.29 0.38 0.59 0.99 1.20 1.30 1.23 1.16 1.08 1.08 1.17 1.15 0.99 0.85 0.80 0.72 0.68 0.63 0.58 0.53 0.50 0.46 0.42 0.39 0.37 0.40 0.43 0.43 0.44 0.45 0.44 0.42 0.40 0.38
0.09 0.24 0.30 0.30 0.25 0.25 0.26 0.22 0.19 0.21 0.26 0.45 0.68 0.90 1.10 1.31 1.40 1.39 1.25 1.15 1.16 1.12 1.05 0.97 0.87 0.78 0.70 0.66 0.58 0.53 0.48 0.41 0.38 0.39 0.39 0.40 0.42 0.40 0.41 0.42 0.41 0.37 0.33 0.30
0.11 0.20 0.24 0.27 0.24 0.24 0.29 0.29 0.27 0.28 0.38 0.54 0.73 1.05 1.35 1.51 1.52 1.43 1.32 1.21 1.20 1.12 1.07 1.02 0.92 0.81 0.73 0.72 0.69 0.63 0.57 0.48 0.44 0.47 0.48 0.44 0.42 0.42 0.43 0.41 0.37 0.32 0.30 0.27
0.14 0.22 0.37 0.38 0.26 0.36 0.61 0.53 0.48 0.48 0.49 0.64 0.83 1.08 1.28 1.43 1.49 1.49 1.40 1.35 1.32 1.23 1.19 1.14 1.03 0.92 0.86 0.80 0.73 0.68 0.61 0.55 0.51 0.51 0.48 0.44 0.39 0.37 0.36 0.33 0.33 0.28 0.27 0.26
0.18 0.27 0.39 0.39 0.48 0.82 0.82 0.48 0.47 0.56 0.48 0.51 0.66 0.79 0.95 1.13 1.22 1.29 1.36 1.43 1.47 1.39 1.30 1.19 1.11 1.05 1.00 0.90 0.80 0.71 0.61 0.53 0.48 0.47 0.43 0.36 0.33 0.34 0.32 0.31 0.31 0.28 0.29 0.32
0.13 0.27 0.49 0.50 0.69 0.86 0.78 0.44 0.37 0.58 0.69 0.53 0.54 0.61 0.72 0.75 0.92 1.18 1.21 1.21 1.35 1.36 1.30 1.20 1.10 1.03 0.96 0.88 0.77 0.65 0.57 0.47 0.41 0.39 0.35 0.30 0.26 0.27 0.27 0.27 0.30 0.31 0.33 0.37
0.10 0.21 0.50 0.64 0.88 1.03 0.83 0.35 0.29 0.54 0.95 0.67 0.63 0.65 0.74 0.78 0.94 1.01 0.94 0.96 1.07 1.13 1.12 1.09 1.04 0.96 0.86 0.75 0.62 0.55 0.52 0.45 0.36 0.32 0.29 0.26 0.26 0.27 0.28 0.30 0.32 0.29 0.32 0.38
0.36 0.40 0.55 0.72 0.94 0.97 0.50 0.24 0.33 0.82 0.98 0.69 0.71 0.78 0.80 0.87 0.88 0.75 0.70 0.81 0.92 0.98 0.99 0.95 0.88 0.83 0.73 0.61 0.51 0.47 0.45 0.40 0.27 0.21 0.21 0.22 0.25 0.25 0.23 0.28 0.32 0.31 0.32 0.36
0.62 0.66 0.71 0.79 0.97 1.03 0.41 0.28 0.53 0.69 0.50 0.55 0.61 0.60 0.65 0.63 0.61 0.63 0.66 0.76 0.85 0.90 0.90 0.85 0.78 0.67 0.55 0.44 0.41 0.40 0.34 0.25 0.17 0.17 0.19 0.20 0.20 0.17 0.17 0.26 0.30 0.31 0.35 0.34
0.68 0.75 0.79 0.87 0.96 0.70 0.38 0.30 0.29 0.35 0.41 0.43 0.46 0.44 0.49 0.54 0.55 0.56 0.63 0.72 0.80 0.78 0.71 0.64 0.54 0.48 0.40 0.34 0.34 0.32 0.24 0.17 0.14 0.18 0.22 0.21 0.19 0.18 0.17 0.21 0.24 0.26 0.33 0.33
0.79 0.67 0.69 0.75 0.75 0.52 0.36 0.26 0.22 0.23 0.28 0.31 0.36 0.42 0.47 0.53 0.55 0.55 0.57 0.60 0.62 0.62 0.54 0.46 0.40 0.38 0.34 0.27 0.24 0.22 0.15 0.13 0.16 0.23 0.23 0.21 0.22 0.23 0.19 0.18 0.16 0.18 0.22 0.24
0.65 0.71 0.86 0.92 0.84 0.62 0.46 0.32 0.26 0.26 0.29 0.33 0.40 0.44 0.44 0.44 0.50 0.51 0.52 0.50 0.45 0.41 0.37 0.33 0.33 0.32 0.27 0.21 0.18 0.15 0.13 0.13 0.20 0.22 0.19 0.18 0.18 0.19 0.20 0.16 0.11 0.09 0.09 0.08
0.36 0.56 0.90 1.03 0.82 0.70 0.65 0.53 0.45 0.49 0.55 0.48 0.41 0.41 0.45 0.41 0.39 0.35 0.32 0.30 0.26 0.24 0.23 0.22 0.22 0.21 0.18 0.16 0.14 0.11 0.10 0.10 0.17 0.19 0.16 0.14 0.13 0.12 0.11 0.14 0.12 0.06 0.04 0.04

GEFSCGP_prec_meanprecacc_144.txt.gz
Total_Precipitation_Accumulation
0.00 0.00 0.00 0.00 0.01 0.01 0.00 0.00 0.01 0.03 0.04 0.05 0.09 0.16 0.22 0.27 0.26 0.34 0.41 0.46 0.45 0.49 0.56 0.88 1.35 1.93 2.38 2.60 2.63 2.72 2.69 2.71 2.76 2.78 2.84 3.04 3.22 3.28 3.28 3.38 3.40 3.24 3.15 3.18
0.00 0.00 0.01 0.01 0.01 0.01 0.01 0.01 0.02 0.04 0.05 0.07 0.14 0.25 0.34 0.40 0.39 0.42 0.55 0.54 0.49 0.50 0.60 0.95 1.32 1.71 2.06 2.33 2.49 2.61 2.57 2.77 3.03 3.36 3.78 4.11 4.30 4.22 4.11 4.07 3.98 3.84 3.73 3.64
0.00 0.01 0.01 0.01 0.00 0.02 0.02 0.01 0.04 0.07 0.08 0.11 0.18 0.38 0.44 0.49 0.53 0.55 0.57 0.62 0.60 0.55 0.67 0.92 1.12 1.38 1.69 2.01 2.27 2.43 2.65 3.08 3.55 4.06 4.75 5.21 5.12 4.79 4.64 4.38 4.29 4.06 3.77 3.70
0.00 0.00 0.01 0.02 0.02 0.03 0.02 0.02 0.04 0.06 0.07 0.13 0.17 0.40 0.60 0.66 0.75 0.70 0.67 0.63 0.62 0.58 0.60 0.77 1.00 1.21 1.43 1.81 2.17 2.48 2.86 3.38 3.99 4.49 4.95 5.26 5.30 5.09 4.87 4.44 4.08 3.69 3.36 3.17
0.00 0.01 0.03 0.05 0.02 0.01 0.01 0.02 0.03 0.03 0.04 0.09 0.15 0.31 0.67 0.83 0.86 0.83 0.72 0.64 0.54 0.49 0.50 0.57 0.73 0.95 1.25 1.66 2.09 2.46 2.80 3.36 3.92 4.44 4.82 5.03 5.15 5.05 4.73 4.13 3.56 3.18 2.89 2.68
0.00 0.01 0.02 0.02 0.01 0.01 0.01 0.01 0.03 0.04 0.06 0.13 0.14 0.30 0.78 1.06 0.97 0.83 0.77 0.70 0.58 0.48 0.47 0.52 0.63 0.78 1.07 1.41 1.80 2.17 2.51 3.16 3.80 4.33 4.72 4.96 4.99 4.73 4.20 3.61 3.10 2.80 2.57 2.34
0.03 0.03 0.03 0.02 0.01 0.01 0.01 0.03 0.12 0.18 0.20 0.23 0.20 0.36 0.77 0.89 0.87 0.84 0.76 0.68 0.58 0.50 0.47 0.48 0.59 0.68 0.95 1.28 1.60 1.97 2.33 2.76 3.23 3.62 3.86 4.01 4.04 3.86 3.57 3.21 2.80 2.48 2.27 2.06
0.08 0.07 0.05 0.02 0.02 0.02 0.02 0.04 0.15 0.23 0.27 0.30 0.38 0.68 1.01 0.89 0.83 0.80 0.74 0.64 0.55 0.51 0.51 0.53 0.62 0.71 0.83 1.07 1.37 1.73 2.02 2.30 2.53 2.70 2.88 2.88 2.84 2.77 2.64 2.34 2.00 1.75 1.53 1.40
0.10 0.10 0.06 0.02 0.01 0.02 0.03 0.05 0.06 0.11 0.15 0.31 0.60 0.84 1.12 1.04 1.04 0.90 0.79 0.70 0.61 0.57 0.55 0.59 0.68 0.73 0.82 0.96 1.17 1.37 1.50 1.68 1.75 1.71 1.72 1.77 1.79 1.76 1.64 1.48 1.26 1.03 0.85 0.76
0.09 0.09 0.07 0.04 0.03 0.03 0.04 0.04 0.06 0.14 0.24 0.40 0.63 0.95 1.30 1.37 1.26 1.02 0.81 0.68 0.58 0.57 0.57 0.60 0.68 0.75 0.80 0.86 1.04 1.15 1.15 1.14 1.18 1.20 1.20 1.16 1.17 1.16 1.14 1.08 0.97 0.84 0.72 0.61
0.08 0.10 0.09 0.06 0.07 0.09 0.07 0.08 0.09 0.15 0.22 0.40 0.69 1.15 1.26 1.45 1.37 1.18 1.04 0.80 0.69 0.66 0.67 0.70 0.69 0.67 0.67 0.69 0.74 0.80 0.85 0.90 0.92 0.91 0.92 0.90 0.82 0.77 0.76 0.78 0.76 0.69 0.61 0.53
0.10 0.10 0.17 0.13 0.11 0.10 0.08 0.09 0.12 0.24 0.29 0.35 0.63 1.30 1.28 1.55 1.54 1.33 1.15 0.92 0.84 0.81 0.76 0.72 0.66 0.63 0.62 0.66 0.70 0.70 0.72 0.72 0.74 0.74 0.72 0.72 0.63 0.58 0.58 0.57 0.57 0.52 0.49 0.48
0.10 0.15 0.29 0.37 0.32 0.21 0.15 0.11 0.13 0.17 0.25 0.34 0.61 1.33 1.43 1.49 1.50 1.24 1.04 0.97 1.04 1.05 0.98 0.86 0.76 0.68 0.64 0.65 0.66 0.62 0.59 0.55 0.50 0.48 0.47 0.52 0.53 0.51 0.53 0.50 0.48 0.50 0.47 0.44
0.09 0.23 0.45 0.73 0.66 0.36 0.26 0.18 0.14 0.18 0.30 0.39 0.60 0.99 1.21 1.31 1.25 1.17 1.10 1.10 1.20 1.19 1.03 0.88 0.82 0.73 0.69 0.64 0.59 0.54 0.50 0.46 0.43 0.39 0.37 0.40 0.44 0.44 0.45 0.46 0.45 0.43 0.40 0.38
0.10 0.25 0.31 0.30 0.25 0.25 0.26 0.23 0.20 0.22 0.28 0.47 0.69 0.90 1.10 1.32 1.42 1.41 1.27 1.18 1.19 1.16 1.08 1.00 0.89 0.80 0.72 0.68 0.60 0.53 0.49 0.42 0.38 0.40 0.40 0.40 0.42 0.41 0.42 0.43 0.42 0.38 0.34 0.31
0.12 0.20 0.26 0.29 0.25 0.25 0.30 0.30 0.28 0.30 0.40 0.55 0.74 1.06 1.36 1.53 1.54 1.46 1.35 1.25 1.25 1.17 1.11 1.04 0.93 0.83 0.76 0.74 0.71 0.64 0.57 0.49 0.45 0.47 0.48 0.45 0.43 0.43 0.44 0.42 0.38 0.34 0.32 0.29
0.16 0.23 0.38 0.40 0.28 0.37 0.63 0.55 0.50 0.50 0.51 0.66 0.85 1.09 1.30 1.45 1.53 1.53 1.45 1.39 1.37 1.27 1.23 1.17 1.05 0.93 0.87 0.81 0.75 0.71 0.63 0.56 0.52 0.52 0.49 0.45 0.40 0.39 0.38 0.34 0.33 0.30 0.29 0.28
0.19 0.28 0.40 0.41 0.50 0.85 0.85 0.51 0.51 0.59 0.51 0.53 0.67 0.80 0.96 1.15 1.24 1.32 1.39 1.46 1.51 1.42 1.32 1.20 1.12 1.05 1.00 0.91 0.82 0.73 0.63 0.55 0.50 0.47 0.44 0.37 0.35 0.36 0.34 0.32 0.32 0.29 0.31 0.33
0.14 0.29 0.51 0.53 0.72 0.89 0.81 0.48 0.40 0.61 0.73 0.56 0.56 0.64 0.75 0.77 0.95 1.21 1.23 1.23 1.36 1.37 1.31 1.21 1.11 1.04 0.97 0.89 0.77 0.66 0.58 0.48 0.42 0.41 0.37 0.32 0.28 0.28 0.28 0.28 0.30 0.32 0.34 0.39
0.12 0.23 0.52 0.66 0.91 1.06 0.85 0.37 0.31 0.56 0.98 0.69 0.66 0.67 0.77 0.82 0.98 1.07 0.99 0.98 1.08 1.14 1.13 1.10 1.06 0.97 0.87 0.76 0.63 0.56 0.53 0.47 0.38 0.33 0.30 0.27 0.27 0.28 0.29 0.31 0.33 0.30 0.33 0.39
0.38 0.42 0.56 0.74 0.96 0.99 0.51 0.25 0.35 0.85 1.01 0.72 0.75 0.81 0.82 0.89 0.92 0.79 0.75 0.85 0.96 1.01 1.01 0.96 0.89 0.84 0.74 0.62 0.52 0.48 0.46 0.41 0.28 0.21 0.21 0.23 0.25 0.26 0.23 0.30 0.33 0.32 0.33 0.36
0.63 0.68 0.73 0.81 0.99 1.04 0.43 0.29 0.56 0.72 0.52 0.58 0.66 0.65 0.69 0.65 0.62 0.65 0.69 0.80 0.88 0.93 0.91 0.86 0.78 0.68 0.56 0.45 0.42 0.41 0.34 0.26 0.18 0.17 0.19 0.20 0.21 0.18 0.18 0.27 0.31 0.32 0.37 0.35
0.69 0.77 0.81 0.89 0.98 0.71 0.39 0.31 0.31 0.36 0.42 0.45 0.48 0.47 0.52 0.57 0.57 0.58 0.66 0.75 0.82 0.79 0.72 0.64 0.55 0.49 0.40 0.34 0.34 0.33 0.25 0.17 0.14 0.19 0.22 0.21 0.19 0.19 0.17 0.21 0.24 0.27 0.34 0.34
0.80 0.69 0.71 0.76 0.76 0.53 0.38 0.27 0.23 0.24 0.29 0.32 0.37 0.44 0.49 0.55 0.57 0.57 0.59 0.62 0.64 0.63 0.55 0.46 0.40 0.39 0.35 0.28 0.25 0.22 0.15 0.13 0.16 0.23 0.24 0.22 0.23 0.24 0.19 0.18 0.17 0.18 0.22 0.24
0.66 0.72 0.88 0.93 0.86 0.63 0.47 0.32 0.27 0.26 0.30 0.34 0.41 0.46 0.45 0.45 0.51 0.53 0.53 0.50 0.46 0.42 0.38 0.34 0.34 0.33 0.28 0.22 0.19 0.15 0.13 0.13 0.20 0.22 0.19 0.18 0.18 0.19 0.20 0.16 0.12 0.10 0.10 0.09
0.37 0.56 0.90 1.03 0.82 0.70 0.65 0.53 0.46 0.49 0.55 0.49 0.42 0.42 0.45 0.41 0.39 0.35 0.32 0.30 0.27 0.24 0.23 0.23 0.23 0.22 0.19 0.17 0.14 0.12 0.10 0.11 0.17 0.20 0.16 0.15 0.13 0.12 0.12 0.14 0.12 0.07 0.05 0.05

GEFSCGP_prec_meanprecacc_150.txt.gz
Total_Precipitation_Accumulation
0.00 0.00 0.00 0.00 0.01 0.01 0.00 0.01 0.02 0.03 0.04 0.06 0.11 0.19 0.24 0.29 0.28 0.35 0.42 0.48 0.47 0.50 0.59 0.91 1.37 1.95 2.43 2.66 2.67 2.74 2.71 2.74 2.80 2.80 2.88 3.07 3.24 3.30 3.30 3.40 3.43 3.28 3.20 3.23
0.00 0.00 0.01 0.01 0.01 0.01 0.01 0.01 0.02 0.04 0.06 0.08 0.15 0.28 0.37 0.43 0.43 0.46 0.58 0.57 0.51 0.52 0.62 0.96 1.34 1.73 2.10 2.40 2.58 2.69 2.63 2.82 3.06 3.39 3.80 4.13 4.32 4.23 4.13 4.08 4.00 3.87 3.77 3.68
0.00 0.01 0.01 0.01 0.00 0.02 0.02 0.01 0.04 0.07 0.08 0.12 0.19 0.40 0.48 0.51 0.57 0.60 0.62 0.65 0.62 0.57 0.69 0.94 1.13 1.39 1.70 2.05 2.35 2.55 2.74 3.14 3.59 4.09 4.77 5.23 5.13 4.80 4.65 4.40 4.30 4.09 3.82 3.74
0.00 0.00 0.01 0.02 0.02 0.03 0.02 0.02 0.04 0.06 0.07 0.14 0.17 0.43 0.64 0.68 0.79 0.76 0.71 0.66 0.65 0.60 0.63 0.79 1.01 1.22 1.44 1.83 2.22 2.56 2.93 3.43 4.03 4.51 4.97 5.28 5.32 5.12 4.90 4.47 4.11 3.72 3.40 3.22
0.00 0.01 0.03 0.05 0.02 0.01 0.01 0.02 0.03 0.03 0.04 0.10 0.16 0.32 0.69 0.85 0.91 0.90 0.77 0.67 0.56 0.52 0.53 0.60 0.75 0.97 1.26 1.68 2.12 2.49 2.85 3.40 3.95 4.46 4.83 5.04 5.17 5.07 4.76 4.16 3.58 3.21 2.92 2.71
0.00 0.01 0.02 0.02 0.01 0.01 0.01 0.01 0.03 0.05 0.07 0.14 0.15 0.31 0.79 1.07 1.01 0.87 0.80 0.73 0.61 0.53 0.54 0.57 0.65 0.80 1.08 1.44 1.82 2.20 2.54 3.19 3.83 4.35 4.73 4.97 5.01 4.75 4.22 3.63 3.12 2.82 2.59 2.37
0.03 0.03 0.04 0.02 0.01 0.01 0.01 0.03 0.13 0.19 0.21 0.24 0.20 0.36 0.78 0.90 0.88 0.87 0.79 0.71 0.61 0.55 0.53 0.52 0.61 0.70 0.96 1.30 1.62 1.98 2.35 2.79 3.26 3.65 3.88 4.03 4.06 3.87 3.59 3.23 2.82 2.49 2.29 2.08
0.09 0.08 0.06 0.03 0.02 0.02 0.02 0.05 0.15 0.24 0.27 0.30 0.38 0.69 1.02 0.90 0.83 0.82 0.77 0.66 0.57 0.53 0.53 0.56 0.63 0.72 0.85 1.08 1.38 1.75 2.05 2.34 2.56 2.72 2.90 2.90 2.85 2.78 2.65 2.35 2.02 1.76 1.54 1.41
0.11 0.12 0.06 0.03 0.02 0.02 0.03 0.05 0.06 0.11 0.15 0.31 0.60 0.84 1.13 1.04 1.04 0.91 0.79 0.70 0.62 0.59 0.57 0.63 0.71 0.75 0.85 0.98 1.18 1.38 1.52 1.71 1.78 1.73 1.74 1.78 1.80 1.77 1.65 1.49 1.27 1.04 0.86 0.77
0.09 0.09 0.08 0.05 0.03 0.03 0.04 0.04 0.07 0.15 0.24 0.40 0.63 0.95 1.31 1.37 1.27 1.02 0.82 0.68 0.59 0.59 0.61 0.65 0.72 0.78 0.84 0.89 1.06 1.17 1.18 1.17 1.20 1.22 1.21 1.18 1.19 1.18 1.15 1.09 0.98 0.85 0.72 0.61
0.08 0.10 0.10 0.07 0.08 0.10 0.08 0.08 0.09 0.16 0.23 0.41 0.70 1.15 1.27 1.46 1.38 1.18 1.05 0.81 0.70 0.67 0.69 0.73 0.72 0.69 0.70 0.72 0.76 0.83 0.87 0.93 0.94 0.93 0.94 0.92 0.85 0.79 0.77 0.79 0.77 0.70 0.61 0.54
0.10 0.10 0.17 0.14 0.11 0.10 0.08 0.09 0.13 0.25 0.31 0.36 0.64 1.31 1.28 1.56 1.54 1.34 1.16 0.92 0.85 0.83 0.79 0.74 0.69 0.65 0.64 0.68 0.71 0.71 0.73 0.74 0.77 0.76 0.74 0.73 0.65 0.59 0.59 0.58 0.57 0.53 0.50 0.48
0.10 0.15 0.29 0.37 0.33 0.21 0.15 0.11 0.13 0.17 0.26 0.35 0.63 1.34 1.44 1.49 1.51 1.24 1.05 0.98 1.05 1.07 1.00 0.88 0.78 0.69 0.65 0.67 0.68 0.63 0.60 0.56 0.51 0.49 0.49 0.54 0.55 0.52 0.54 0.51 0.49 0.51 0.48 0.45
0.09 0.24 0.45 0.74 0.67 0.36 0.27 0.18 0.14 0.18 0.31 0.40 0.61 1.01 1.23 1.32 1.25 1.18 1.10 1.11 1.20 1.20 1.05 0.90 0.84 0.75 0.70 0.65 0.61 0.56 0.52 0.48 0.44 0.40 0.38 0.42 0.45 0.46 0.47 0.48 0.46 0.43 0.40 0.39
0.10 0.26 0.32 0.31 0.25 0.25 0.26 0.23 0.21 0.23 0.29 0.48 0.71 0.93 1.12 1.33 1.43 1.41 1.28 1.18 1.20 1.18 1.11 1.02 0.91 0.81 0.73 0.69 0.62 0.55 0.50 0.43 0.40 0.41 0.41 0.42 0.44 0.43 0.44 0.45 0.44 0.38 0.34 0.31
0.12 0.21 0.27 0.31 0.26 0.26 0.31 0.31 0.29 0.31 0.42 0.58 0.77 1.09 1.37 1.53 1.55 1.46 1.35 1.26 1.26 1.19 1.13 1.06 0.95 0.85 0.77 0.75 0.72 0.66 0.59 0.51 0.47 0.49 0.50 0.46 0.45 0.45 0.47 0.44 0.40 0.35 0.33 0.30
0.16 0.24 0.40 0.42 0.30 0.40 0.66 0.58 0.52 0.52 0.53 0.68 0.88 1.11 1.31 1.47 1.54 1.55 1.45 1.40 1.38 1.28 1.24 1.19 1.08 0.96 0.88 0.82 0.76 0.72 0.66 0.59 0.54 0.53 0.50 0.46 0.42 0.41 0.40 0.36 0.35 0.32 0.31 0.29
0.20 0.29 0.42 0.44 0.53 0.90 0.90 0.54 0.52 0.61 0.53 0.54 0.69 0.81 0.98 1.18 1.26 1.33 1.40 1.48 1.52 1.44 1.34 1.23 1.14 1.07 1.01 0.92 0.83 0.75 0.65 0.57 0.52 0.49 0.45 0.39 0.37 0.38 0.35 0.33 0.34 0.32 0.33 0.34
0.15 0.30 0.53 0.55 0.75 0.92 0.84 0.51 0.42 0.64 0.76 0.58 0.58 0.65 0.77 0.80 0.97 1.23 1.26 1.25 1.38 1.39 1.33 1.23 1.12 1.05 0.99 0.92 0.80 0.68 0.60 0.50 0.44 0.43 0.39 0.34 0.30 0.30 0.30 0.30 0.32 0.33 0.36 0.40
0.12 0.24 0.53 0.68 0.93 1.08 0.87 0.38 0.32 0.59 1.02 0.70 0.66 0.68 0.78 0.85 1.02 1.10 1.02 1.01 1.10 1.16 1.15 1.12 1.08 0.99 0.89 0.78 0.65 0.58 0.55 0.48 0.39 0.35 0.31 0.29 0.28 0.29 0.30 0.32 0.34 0.31 0.34 0.40
0.39 0.43 0.58 0.75 0.98 1.01 0.52 0.26 0.37 0.90 1.05 0.74 0.76 0.82 0.83 0.91 0.95 0.82 0.78 0.88 0.99 1.04 1.05 1.00 0.93 0.86 0.76 0.64 0.54 0.50 0.47 0.42 0.29 0.22 0.22 0.24 0.26 0.27 0.25 0.31 0.34 0.33 0.34 0.38
0.65 0.70 0.75 0.82 1.01 1.07 0.45 0.32 0.59 0.76 0.55 0.59 0.66 0.66 0.70 0.66 0.64 0.67 0.72 0.85 0.94 0.97 0.96 0.90 0.81 0.69 0.57 0.46 0.43 0.42 0.36 0.27 0.18 0.18 0.20 0.22 0.22 0.18 0.18 0.28 0.32 0.33 0.38 0.36
0.71 0.79 0.83 0.92 1.02 0.75 0.41 0.33 0.33 0.38 0.45 0.47 0.50 0.50 0.55 0.59 0.59 0.61 0.70 0.80 0.87 0.83 0.76 0.67 0.57 0.50 0.41 0.35 0.36 0.34 0.26 0.18 0.15 0.20 0.24 0.23 0.20 0.20 0.18 0.23 0.26 0.28 0.35 0.35
0.85 0.72 0.74 0.82 0.81 0.57 0.39 0.28 0.25 0.25 0.31 0.34 0.40 0.48 0.54 0.60 0.61 0.61 0.63 0.66 0.67 0.65 0.57 0.49 0.43 0.42 0.37 0.29 0.26 0.23 0.16 0.14 0.18 0.25 0.25 0.23 0.24 0.25 0.21 0.20 0.18 0.19 0.23 0.25
0.69 0.75 0.91 0.96 0.89 0.65 0.48 0.33 0.28 0.29 0.33 0.38 0.46 0.50 0.49 0.49 0.54 0.56 0.56 0.53 0.48 0.43 0.39 0.35 0.36 0.35 0.30 0.24 0.20 0.16 0.14 0.15 0.22 0.23 0.20 0.19 0.20 0.21 0.21 0.17 0.12 0.10 0.11 0.09
0.38 0.58 0.92 1.05 0.84 0.71 0.66 0.54 0.47 0.51 0.57 0.52 0.46 0.44 0.46 0.42 0.40 0.36 0.33 0.31 0.27 0.25 0.24 0.23 0.24 0.23 0.20 0.18 0.15 0.13 0.11 0.12 0.19 0.21 0.17 0.16 0.14 0.13 0.12 0.14 0.13 0.07 0.05 0.06

GEFSCGP_prec_meanprecacc_156.txt.gz
Total_Precipitation_Accumulation
0.01 0.02 0.01 0.02 0.04 0.04 0.04 0.02 0.05 0.07 0.06 0.08 0.12 0.20 0.29 0.40 0.37 0.44 0.47 0.51 0.50 0.53 0.62 0.94 1.40 1.97 2.45 2.68 2.68 2.75 2.73 2.77 2.83 2.85 2.94 3.19 3.36 3.38 3.35 3.45 3.48 3.32 3.24 3.27
0.03 0.02 0.02 0.03 0.04 0.06 0.06 0.03 0.04 0.09 0.09 0.10 0.18 0.29 0.38 0.48 0.48 0.53 0.62 0.60 0.55 0.54 0.64 1.01 1.38 1.76 2.11 2.42 2.60 2.71 2.66 2.85 3.10 3.44 3.85 4.19 4.42 4.37 4.22 4.15 4.05 3.90 3.80 3.72
0.04 0.02 0.02 0.02 0.03 0.05 0.06 0.03 0.06 0.10 0.12 0.14 0.22 0.44 0.50 0.55 0.63 0.67 0.67 0.70 0.68 0.60 0.71 0.98 1.17 1.41 1.71 2.06 2.37 2.57 2.76 3.16 3.62 4.13 4.81 5.26 5.18 4.87 4.73 4.47 4.36 4.13 3.86 3.78
0.01 0.01 0.01 0.02 0.03 0.04 0.03 0.03 0.06 0.08 0.10 0.15 0.19 0.47 0.70 0.73 0.84 0.85 0.80 0.72 0.69 0.63 0.64 0.80 1.03 1.24 1.46 1.86 2.26 2.60 2.96 3.46 4.07 4.56 5.03 5.33 5.37 5.17 4.95 4.52 4.16 3.77 3.43 3.24
0.01 0.01 0.04 0.07 0.03 0.04 0.02 0.03 0.06 0.06 0.07 0.12 0.18 0.36 0.74 0.90 0.97 0.99 0.87 0.74 0.61 0.55 0.56 0.63 0.78 0.99 1.28 1.70 2.14 2.53 2.88 3.46 4.01 4.53 4.88 5.10 5.23 5.13 4.81 4.19 3.62 3.24 2.94 2.73
0.01 0.01 0.04 0.04 0.02 0.02 0.01 0.02 0.05 0.08 0.11 0.19 0.18 0.34 0.85 1.14 1.11 1.00 0.96 0.83 0.66 0.56 0.57 0.60 0.68 0.81 1.10 1.45 1.84 2.22 2.58 3.25 3.88 4.41 4.78 5.02 5.06 4.80 4.26 3.67 3.16 2.84 2.61 2.38
0.03 0.03 0.04 0.03 0.02 0.01 0.02 0.04 0.15 0.23 0.28 0.30 0.22 0.38 0.83 0.94 0.93 0.97 0.92 0.79 0.66 0.59 0.56 0.55 0.63 0.71 0.98 1.31 1.63 1.99 2.37 2.83 3.30 3.69 3.92 4.06 4.09 3.91 3.62 3.26 2.86 2.52 2.31 2.10
0.10 0.10 0.06 0.03 0.02 0.02 0.03 0.08 0.23 0.31 0.33 0.35 0.42 0.73 1.08 0.95 0.89 0.91 0.89 0.73 0.62 0.56 0.56 0.58 0.65 0.74 0.86 1.09 1.39 1.75 2.07 2.36 2.59 2.76 2.94 2.93 2.88 2.81 2.69 2.39 2.06 1.80 1.57 1.44
0.13 0.13 0.07 0.03 0.02 0.02 0.03 0.07 0.08 0.13 0.16 0.35 0.65 0.90 1.21 1.11 1.09 0.97 0.86 0.75 0.66 0.62 0.60 0.65 0.72 0.77 0.86 0.99 1.19 1.39 1.54 1.74 1.80 1.75 1.76 1.81 1.83 1.80 1.69 1.54 1.32 1.09 0.90 0.80
0.11 0.10 0.08 0.05 0.03 0.03 0.04 0.05 0.07 0.16 0.27 0.43 0.67 1.03 1.44 1.49 1.36 1.09 0.86 0.71 0.61 0.61 0.63 0.67 0.74 0.81 0.87 0.91 1.09 1.19 1.20 1.20 1.23 1.25 1.23 1.21 1.22 1.21 1.18 1.13 1.02 0.88 0.75 0.63
0.09 0.11 0.11 0.07 0.08 0.10 0.08 0.08 0.10 0.18 0.25 0.45 0.76 1.27 1.40 1.55 1.46 1.26 1.09 0.83 0.71 0.68 0.71 0.75 0.74 0.72 0.73 0.75 0.79 0.85 0.89 0.95 0.96 0.95 0.96 0.95 0.88 0.82 0.80 0.83 0.81 0.73 0.64 0.57
0.12 0.11 0.20 0.15 0.12 0.11 0.08 0.09 0.13 0.26 0.32 0.38 0.68 1.41 1.36 1.64 1.62 1.41 1.21 0.95 0.87 0.84 0.80 0.75 0.71 0.67 0.67 0.71 0.73 0.73 0.75 0.75 0.78 0.78 0.77 0.77 0.69 0.64 0.62 0.61 0.61 0.56 0.53 0.52
0.10 0.16 0.32 0.43 0.37 0.22 0.15 0.11 0.14 0.17 0.27 0.37 0.67 1.44 1.50 1.56 1.59 1.30 1.07 1.00 1.07 1.09 1.01 0.89 0.79 0.71 0.67 0.68 0.69 0.65 0.62 0.59 0.55 0.53 0.54 0.60 0.60 0.57 0.59 0.55 0.53 0.55 0.52 0.48
0.09 0.25 0.49 0.82 0.74 0.39 0.27 0.18 0.15 0.19 0.34 0.43 0.67 1.11 1.31 1.38 1.31 1.23 1.14 1.13 1.21 1.21 1.06 0.91 0.85 0.77 0.72 0.67 0.62 0.58 0.54 0.49 0.46 0.41 0.40 0.46 0.50 0.51 0.52 0.53 0.50 0.47 0.44 0.42
0.10 0.27 0.32 0.31 0.26 0.26 0.28 0.24 0.21 0.24 0.31 0.53 0.81 1.03 1.21 1.40 1.47 1.44 1.30 1.20 1.21 1.18 1.12 1.04 0.93 0.82 0.74 0.70 0.63 0.57 0.51 0.44 0.41 0.43 0.44 0.46 0.49 0.48 0.49 0.50 0.49 0.42 0.37 0.33
0.12 0.21 0.27 0.31 0.27 0.27 0.32 0.32 0.30 0.32 0.43 0.61 0.83 1.15 1.42 1.58 1.57 1.48 1.37 1.28 1.28 1.20 1.13 1.06 0.96 0.85 0.78 0.76 0.73 0.67 0.61 0.53 0.49 0.52 0.53 0.50 0.48 0.49 0.51 0.49 0.45 0.39 0.36 0.32
0.17 0.25 0.42 0.44 0.31 0.41 0.69 0.59 0.53 0.54 0.55 0.71 0.92 1.15 1.35 1.50 1.57 1.57 1.47 1.42 1.41 1.29 1.25 1.19 1.09 0.97 0.90 0.84 0.77 0.74 0.68 0.61 0.56 0.55 0.52 0.48 0.44 0.43 0.42 0.38 0.39 0.36 0.36 0.33
0.21 0.32 0.47 0.48 0.57 0.96 0.94 0.56 0.55 0.64 0.57 0.57 0.72 0.85 1.04 1.21 1.29 1.37 1.43 1.50 1.55 1.46 1.35 1.24 1.15 1.08 1.03 0.93 0.85 0.77 0.67 0.59 0.53 0.50 0.46 0.41 0.38 0.39 0.37 0.37 0.38 0.35 0.36 0.38
0.16 0.33 0.57 0.60 0.80 0.98 0.88 0.53 0.45 0.69 0.82 0.60 0.60 0.67 0.80 0.83 1.00 1.28 1.30 1.29 1.41 1.43 1.36 1.26 1.14 1.06 1.00 0.93 0.82 0.70 0.61 0.51 0.46 0.45 0.40 0.35 0.31 0.31 0.32 0.33 0.36 0.37 0.40 0.43
0.14 0.28 0.57 0.73 0.99 1.17 0.92 0.40 0.33 0.63 1.09 0.73 0.69 0.70 0.82 0.90 1.06 1.16 1.06 1.04 1.13 1.20 1.18 1.15 1.09 1.00 0.91 0.80 0.67 0.60 0.57 0.50 0.41 0.36 0.32 0.29 0.29 0.30 0.33 0.35 0.38 0.34 0.37 0.43
0.40 0.48 0.64 0.82 1.05 1.08 0.55 0.27 0.38 0.95 1.13 0.77 0.78 0.84 0.86 0.93 0.98 0.85 0.81 0.92 1.02 1.08 1.08 1.02 0.95 0.89 0.79 0.66 0.56 0.52 0.49 0.43 0.30 0.23 0.23 0.25 0.28 0.28 0.27 0.34 0.38 0.36 0.36 0.39
0.66 0.73 0.79 0.86 1.07 1.15 0.47 0.33 0.61 0.80 0.58 0.61 0.68 0.69 0.73 0.68 0.66 0.70 0.76 0.89 0.97 1.01 0.99 0.92 0.83 0.72 0.59 0.48 0.46 0.45 0.38 0.28 0.19 0.19 0.22 0.24 0.24 0.20 0.20 0.31 0.34 0.35 0.40 0.37
0.73 0.83 0.87 0.97 1.08 0.79 0.42 0.34 0.34 0.40 0.47 0.49 0.53 0.53 0.57 0.61 0.60 0.63 0.72 0.83 0.91 0.86 0.78 0.69 0.60 0.53 0.44 0.38 0.39 0.38 0.28 0.19 0.16 0.22 0.26 0.25 0.22 0.21 0.20 0.25 0.28 0.30 0.36 0.36
0.87 0.75 0.77 0.86 0.87 0.59 0.41 0.30 0.27 0.28 0.33 0.36 0.42 0.50 0.56 0.61 0.62 0.62 0.65 0.68 0.70 0.68 0.60 0.51 0.45 0.44 0.40 0.32 0.29 0.26 0.18 0.16 0.21 0.28 0.28 0.26 0.27 0.27 0.22 0.21 0.20 0.21 0.24 0.26
0.70 0.77 0.93 0.99 0.93 0.71 0.52 0.36 0.31 0.31 0.35 0.40 0.48 0.51 0.50 0.50 0.57 0.58 0.57 0.54 0.50 0.46 0.41 0.37 0.38 0.38 0.33 0.26 0.21 0.17 0.15 0.16 0.25 0.26 0.22 0.21 0.21 0.22 0.23 0.18 0.12 0.11 0.11 0.10
0.40 0.59 0.94 1.07 0.86 0.75 0.70 0.57 0.49 0.53 0.60 0.54 0.47 0.45 0.47 0.43 0.42 0.38 0.35 0.32 0.29 0.27 0.25 0.25 0.27 0.26 0.22 0.19 0.17 0.13 0.12 0.13 0.20 0.23 0.19 0.17 0.15 0.14 0.13 0.15 0.13 0.07 0.06 0.06

GEFSCGP_prec_meanprecacc_162.txt.gz
Total_Precipitation_Accumulation
0.03 0.05 0.05 0.07 0.07 0.08 0.11 0.09 0.09 0.10 0.11 0.14 0.19 0.27 0.36 0.47 0.44 0.51 0.62 0.66 0.60 0.60 0.68 1.01 1.50 2.10 2.55 2.73 2.73 2.79 2.77 2.80 2.86 2.87 2.95 3.20 3.38 3.40 3.37 3.48 3.54 3.40 3.31 3.32
0.04 0.05 0.05 0.07 0.09 0.09 0.14 0.10 0.08 0.12 0.13 0.16 0.27 0.36 0.45 0.53 0.52 0.58 0.69 0.68 0.63 0.61 0.70 1.06 1.46 1.83 2.18 2.47 2.64 2.75 2.68 2.86 3.12 3.45 3.86 4.20 4.43 4.39 4.24 4.18 4.10 3.95 3.85 3.75
0.04 0.03 0.03 0.04 0.07 0.09 0.13 0.09 0.09 0.13 0.17 0.19 0.30 0.55 0.60 0.61 0.70 0.74 0.73 0.78 0.79 0.69 0.76 1.02 1.22 1.50 1.82 2.14 2.42 2.61 2.78 3.17 3.63 4.14 4.82 5.27 5.19 4.89 4.76 4.51 4.40 4.16 3.88 3.81
0.01 0.01 0.02 0.04 0.05 0.07 0.08 0.06 0.08 0.10 0.13 0.19 0.23 0.55 0.79 0.80 0.93 0.98 0.89 0.83 0.81 0.76 0.73 0.86 1.07 1.28 1.52 1.93 2.30 2.62 2.98 3.47 4.07 4.56 5.04 5.34 5.38 5.18 4.97 4.55 4.18 3.80 3.46 3.27
0.01 0.03 0.07 0.10 0.05 0.06 0.05 0.05 0.08 0.08 0.09 0.15 0.23 0.41 0.81 0.98 1.04 1.07 0.98 0.89 0.75 0.69 0.67 0.71 0.84 1.03 1.31 1.73 2.17 2.55 2.90 3.47 4.02 4.54 4.90 5.11 5.24 5.14 4.83 4.21 3.64 3.27 2.97 2.76
0.01 0.02 0.06 0.06 0.03 0.05 0.05 0.05 0.08 0.12 0.14 0.23 0.22 0.38 0.90 1.20 1.18 1.09 1.08 1.03 0.85 0.70 0.68 0.70 0.77 0.88 1.16 1.50 1.87 2.24 2.59 3.26 3.90 4.43 4.80 5.04 5.09 4.83 4.29 3.70 3.20 2.88 2.63 2.40
0.03 0.04 0.05 0.05 0.04 0.05 0.06 0.08 0.18 0.26 0.30 0.34 0.25 0.42 0.87 0.99 1.01 1.10 1.06 0.97 0.85 0.73 0.68 0.67 0.77 0.81 1.05 1.37 1.66 2.02 2.40 2.85 3.33 3.73 3.95 4.10 4.13 3.94 3.65 3.29 2.88 2.54 2.33 2.12
0.10 0.10 0.07 0.04 0.03 0.03 0.05 0.09 0.24 0.34 0.36 0.38 0.45 0.78 1.16 1.06 1.01 1.03 1.02 0.88 0.79 0.74 0.73 0.72 0.77 0.83 0.92 1.13 1.43 1.79 2.11 2.41 2.64 2.80 2.97 2.97 2.91 2.84 2.72 2.41 2.08 1.82 1.59 1.46
0.14 0.14 0.07 0.03 0.02 0.02 0.03 0.07 0.09 0.15 0.18 0.38 0.70 0.96 1.31 1.26 1.24 1.09 0.99 0.92 0.83 0.78 0.77 0.78 0.82 0.84 0.91 1.03 1.24 1.45 1.59 1.78 1.84 1.79 1.80 1.86 1.88 1.84 1.72 1.57 1.35 1.12 0.92 0.82
0.11 0.11 0.09 0.05 0.04 0.04 0.04 0.05 0.08 0.19 0.30 0.48 0.73 1.12 1.58 1.63 1.49 1.20 0.97 0.84 0.71 0.71 0.77 0.82 0.85 0.89 0.93 0.96 1.14 1.25 1.24 1.23 1.25 1.28 1.26 1.23 1.24 1.24 1.21 1.15 1.05 0.92 0.79 0.67
0.10 0.12 0.11 0.08 0.09 0.11 0.08 0.09 0.10 0.20 0.28 0.50 0.83 1.37 1.51 1.66 1.54 1.38 1.23 0.93 0.80 0.77 0.79 0.85 0.83 0.80 0.79 0.79 0.84 0.89 0.93 0.97 0.98 0.97 0.97 0.96 0.90 0.84 0.83 0.88 0.86 0.78 0.69 0.60
0.14 0.13 0.21 0.16 0.13 0.11 0.09 0.10 0.14 0.28 0.36 0.42 0.73 1.47 1.40 1.71 1.69 1.48 1.32 1.03 0.94 0.89 0.86 0.82 0.77 0.71 0.70 0.74 0.77 0.76 0.77 0.78 0.80 0.80 0.78 0.79 0.71 0.66 0.65 0.65 0.65 0.61 0.57 0.56
0.11 0.17 0.34 0.44 0.39 0.23 0.16 0.12 0.14 0.18 0.29 0.39 0.72 1.50 1.54 1.61 1.64 1.37 1.17 1.10 1.12 1.11 1.05 0.92 0.82 0.73 0.69 0.71 0.72 0.67 0.64 0.61 0.56 0.54 0.55 0.61 0.61 0.58 0.60 0.56 0.55 0.58 0.55 0.51
0.09 0.25 0.49 0.84 0.75 0.40 0.28 0.19 0.16 0.20 0.36 0.47 0.70 1.17 1.39 1.44 1.37 1.29 1.20 1.17 1.24 1.23 1.08 0.93 0.88 0.78 0.73 0.68 0.64 0.60 0.56 0.52 0.47 0.42 0.41 0.47 0.51 0.52 0.53 0.54 0.51 0.48 0.46 0.45
0.11 0.27 0.33 0.32 0.27 0.27 0.29 0.25 0.23 0.26 0.34 0.55 0.83 1.07 1.26 1.45 1.53 1.49 1.33 1.23 1.23 1.20 1.13 1.05 0.95 0.85 0.76 0.71 0.64 0.58 0.53 0.45 0.42 0.43 0.45 0.47 0.49 0.48 0.50 0.51 0.49 0.42 0.38 0.35
0.12 0.21 0.28 0.32 0.28 0.28 0.33 0.34 0.32 0.33 0.44 0.62 0.85 1.19 1.45 1.62 1.62 1.52 1.40 1.31 1.31 1.22 1.15 1.07 0.97 0.88 0.80 0.78 0.74 0.68 0.62 0.54 0.50 0.53 0.54 0.50 0.49 0.50 0.52 0.50 0.45 0.40 0.36 0.33
0.18 0.27 0.44 0.46 0.33 0.43 0.72 0.61 0.55 0.55 0.57 0.74 0.97 1.20 1.39 1.53 1.59 1.59 1.49 1.45 1.44 1.34 1.29 1.22 1.11 0.98 0.91 0.85 0.78 0.75 0.69 0.62 0.56 0.56 0.52 0.49 0.45 0.44 0.43 0.40 0.40 0.37 0.37 0.34
0.22 0.34 0.49 0.51 0.61 1.00 0.97 0.57 0.56 0.65 0.58 0.59 0.76 0.88 1.07 1.24 1.31 1.38 1.45 1.51 1.56 1.49 1.41 1.30 1.20 1.11 1.04 0.94 0.85 0.78 0.69 0.60 0.54 0.51 0.47 0.41 0.38 0.40 0.38 0.38 0.39 0.36 0.37 0.39
0.17 0.35 0.60 0.65 0.85 1.03 0.91 0.56 0.48 0.71 0.86 0.65 0.63 0.70 0.82 0.85 1.02 1.31 1.32 1.31 1.43 1.44 1.38 1.29 1.19 1.12 1.05 0.95 0.83 0.71 0.62 0.52 0.46 0.45 0.41 0.36 0.32 0.31 0.32 0.34 0.37 0.38 0.40 0.44
0.15 0.30 0.60 0.78 1.03 1.21 0.95 0.42 0.36 0.65 1.15 0.81 0.76 0.75 0.89 0.94 1.09 1.21 1.09 1.08 1.16 1.22 1.20 1.16 1.11 1.03 0.95 0.83 0.68 0.61 0.58 0.51 0.42 0.37 0.33 0.30 0.30 0.31 0.33 0.36 0.38 0.34 0.38 0.44
0.43 0.51 0.68 0.86 1.09 1.11 0.56 0.29 0.41 1.00 1.17 0.82 0.83 0.88 0.90 0.96 1.00 0.89 0.85 0.97 1.08 1.12 1.11 1.04 0.97 0.90 0.80 0.68 0.57 0.53 0.50 0.44 0.30 0.23 0.23 0.26 0.28 0.29 0.28 0.34 0.38 0.36 0.36 0.40
0.69 0.76 0.84 0.92 1.12 1.19 0.48 0.34 0.64 0.83 0.61 0.65 0.73 0.74 0.76 0.70 0.68 0.74 0.80 0.94 1.04 1.07 1.05 0.96 0.86 0.74 0.61 0.49 0.47 0.46 0.38 0.28 0.19 0.19 0.22 0.25 0.25 0.21 0.20 0.31 0.35 0.35 0.40 0.38
0.75 0.85 0.90 1.00 1.11 0.82 0.44 0.36 0.36 0.42 0.49 0.52 0.58 0.59 0.62 0.63 0.63 0.67 0.78 0.89 0.97 0.93 0.84 0.74 0.62 0.54 0.45 0.39 0.40 0.39 0.28 0.19 0.17 0.22 0.27 0.25 0.22 0.22 0.21 0.26 0.29 0.30 0.36 0.36
0.90 0.79 0.79 0.88 0.89 0.65 0.46 0.33 0.30 0.31 0.35 0.38 0.46 0.55 0.61 0.64 0.65 0.68 0.70 0.73 0.74 0.74 0.65 0.54 0.47 0.45 0.41 0.33 0.30 0.27 0.19 0.16 0.21 0.29 0.28 0.26 0.27 0.27 0.22 0.22 0.20 0.21 0.24 0.26
0.73 0.82 0.97 1.03 0.97 0.78 0.60 0.41 0.36 0.35 0.38 0.42 0.50 0.54 0.54 0.54 0.60 0.62 0.61 0.57 0.52 0.49 0.47 0.41 0.39 0.38 0.33 0.26 0.21 0.17 0.15 0.17 0.25 0.27 0.22 0.21 0.22 0.22 0.23 0.18 0.13 0.11 0.11 0.10
0.44 0.65 0.97 1.10 0.89 0.81 0.76 0.62 0.53 0.56 0.61 0.55 0.48 0.47 0.49 0.45 0.44 0.41 0.37 0.34 0.31 0.29 0.29 0.28 0.28 0.26 0.23 0.19 0.17 0.14 0.12 0.13 0.21 0.23 0.20 0.17 0.15 0.15 0.13 0.15 0.13 0.07 0.06 0.06

GEFSCGP_prec_meanprecacc_168.txt.gz
Total_Precipitation_Accumulation
0.03 0.05 0.05 0.07 0.08 0.09 0.12 0.13 0.12 0.13 0.12 0.15 0.21 0.29 0.42 0.54 0.49 0.56 0.66 0.71 0.65 0.65 0.75 1.09 1.60 2.23 2.69 2.86 2.85 2.90 2.87 2.91 2.96 2.93 2.99 3.23 3.41 3.43 3.40 3.50 3.55 3.41 3.33 3.35
0.04 0.05 0.05 0.07 0.09 0.09 0.14 0.15 0.16 0.19 0.16 0.18 0.29 0.39 0.50 0.58 0.56 0.62 0.74 0.73 0.67 0.65 0.75 1.14 1.53 1.93 2.30 2.60 2.75 2.84 2.77 2.96 3.22 3.54 3.92 4.25 4.47 4.42 4.27 4.20 4.11 3.96 3.85 3.77
0.04 0.03 0.03 0.04 0.07 0.09 0.14 0.10 0.15 0.21 0.22 0.22 0.32 0.57 0.65 0.66 0.74 0.78 0.78 0.83 0.83 0.73 0.81 1.09 1.30 1.59 1.91 2.26 2.53 2.68 2.88 3.29 3.74 4.21 4.88 5.32 5.22 4.91 4.79 4.53 4.41 4.17 3.89 3.81
0.01 0.01 0.02 0.04 0.05 0.07 0.09 0.07 0.10 0.14 0.16 0.21 0.25 0.57 0.83 0.84 0.99 1.04 0.93 0.87 0.86 0.82 0.79 0.95 1.17 1.38 1.62 2.02 2.40 2.72 3.09 3.61 4.20 4.64 5.09 5.38 5.41 5.20 4.99 4.56 4.19 3.81 3.46 3.28
0.01 0.03 0.07 0.10 0.06 0.07 0.06 0.06 0.09 0.10 0.11 0.17 0.24 0.42 0.83 1.01 1.07 1.14 1.02 0.94 0.81 0.75 0.75 0.81 0.95 1.13 1.41 1.82 2.26 2.63 2.97 3.55 4.10 4.60 4.95 5.16 5.27 5.17 4.85 4.23 3.65 3.28 2.98 2.77
0.02 0.04 0.08 0.07 0.04 0.06 0.06 0.06 0.09 0.14 0.15 0.24 0.23 0.39 0.91 1.21 1.20 1.13 1.12 1.07 0.90 0.77 0.77 0.79 0.87 0.98 1.26 1.59 1.94 2.29 2.64 3.30 3.93 4.46 4.84 5.09 5.13 4.87 4.33 3.73 3.22 2.91 2.67 2.44
0.05 0.06 0.08 0.06 0.05 0.06 0.07 0.09 0.19 0.27 0.31 0.34 0.26 0.42 0.88 1.00 1.02 1.12 1.08 1.00 0.89 0.80 0.76 0.76 0.88 0.93 1.15 1.45 1.73 2.06 2.43 2.88 3.36 3.77 4.00 4.16 4.19 4.00 3.69 3.34 2.92 2.57 2.36 2.16
0.12 0.13 0.08 0.05 0.03 0.04 0.05 0.09 0.25 0.35 0.37 0.38 0.46 0.79 1.17 1.06 1.02 1.05 1.04 0.90 0.82 0.80 0.82 0.82 0.90 0.95 1.01 1.21 1.48 1.84 2.14 2.44 2.68 2.86 3.04 3.03 2.99 2.92 2.77 2.45 2.12 1.86 1.63 1.50
0.15 0.15 0.08 0.04 0.02 0.03 0.04 0.07 0.10 0.15 0.18 0.38 0.70 0.96 1.31 1.27 1.26 1.11 1.01 0.94 0.86 0.83 0.84 0.87 0.91 0.93 1.00 1.11 1.30 1.50 1.64 1.83 1.89 1.85 1.86 1.91 1.92 1.89 1.77 1.61 1.39 1.16 0.97 0.86
0.12 0.12 0.09 0.06 0.04 0.04 0.05 0.06 0.08 0.20 0.30 0.48 0.73 1.13 1.58 1.64 1.50 1.21 0.98 0.87 0.75 0.75 0.85 0.91 0.95 1.01 1.07 1.08 1.23 1.31 1.29 1.27 1.30 1.32 1.30 1.27 1.27 1.28 1.25 1.19 1.09 0.96 0.82 0.70
0.11 0.13 0.12 0.08 0.09 0.11 0.09 0.09 0.11 0.21 0.29 0.50 0.83 1.38 1.52 1.67 1.55 1.40 1.27 0.96 0.83 0.81 0.85 0.94 0.92 0.91 0.90 0.89 0.92 0.95 0.98 1.01 1.02 1.00 1.00 0.99 0.92 0.87 0.86 0.90 0.88 0.81 0.71 0.62
0.14 0.13 0.21 0.17 0.14 0.12 0.09 0.10 0.14 0.29 0.36 0.42 0.74 1.48 1.42 1.72 1.70 1.51 1.36 1.06 0.96 0.92 0.90 0.86 0.81 0.75 0.73 0.76 0.80 0.80 0.81 0.81 0.84 0.83 0.80 0.80 0.72 0.67 0.66 0.66 0.66 0.62 0.59 0.58
0.12 0.18 0.34 0.45 0.40 0.24 0.16 0.12 0.15 0.19 0.30 0.40 0.74 1.52 1.56 1.62 1.65 1.39 1.19 1.13 1.14 1.13 1.07 0.95 0.84 0.74 0.71 0.72 0.73 0.69 0.67 0.65 0.61 0.59 0.57 0.62 0.62 0.59 0.60 0.57 0.56 0.59 0.57 0.54
0.10 0.26 0.50 0.84 0.76 0.41 0.29 0.20 0.17 0.21 0.38 0.49 0.72 1.18 1.40 1.45 1.38 1.30 1.21 1.19 1.26 1.24 1.09 0.95 0.89 0.80 0.75 0.69 0.65 0.61 0.58 0.55 0.51 0.46 0.42 0.48 0.51 0.52 0.53 0.54 0.51 0.49 0.47 0.46
0.11 0.28 0.33 0.32 0.27 0.27 0.29 0.25 0.24 0.28 0.35 0.57 0.84 1.08 1.27 1.46 1.53 1.50 1.34 1.24 1.25 1.22 1.14 1.07 0.97 0.86 0.77 0.72 0.66 0.60 0.56 0.49 0.45 0.45 0.46 0.47 0.49 0.49 0.50 0.52 0.50 0.43 0.38 0.35
0.13 0.22 0.28 0.32 0.28 0.28 0.33 0.34 0.32 0.34 0.45 0.63 0.87 1.20 1.47 1.64 1.64 1.53 1.41 1.33 1.33 1.25 1.18 1.10 0.99 0.90 0.82 0.79 0.76 0.71 0.64 0.55 0.51 0.54 0.54 0.51 0.50 0.51 0.53 0.51 0.47 0.41 0.37 0.33
0.18 0.27 0.45 0.47 0.34 0.44 0.72 0.61 0.55 0.56 0.57 0.75 0.98 1.20 1.40 1.54 1.60 1.61 1.51 1.47 1.48 1.37 1.31 1.25 1.14 1.01 0.93 0.87 0.80 0.77 0.71 0.63 0.58 0.57 0.54 0.51 0.46 0.45 0.44 0.41 0.43 0.40 0.39 0.35
0.22 0.34 0.50 0.51 0.62 1.01 0.97 0.57 0.56 0.66 0.58 0.60 0.76 0.88 1.08 1.25 1.32 1.39 1.46 1.53 1.59 1.52 1.43 1.31 1.22 1.14 1.06 0.97 0.88 0.80 0.70 0.61 0.55 0.52 0.48 0.42 0.39 0.41 0.39 0.39 0.40 0.38 0.38 0.40
0.18 0.36 0.60 0.66 0.86 1.03 0.91 0.56 0.48 0.71 0.87 0.65 0.64 0.71 0.83 0.86 1.02 1.31 1.32 1.31 1.44 1.46 1.40 1.30 1.20 1.15 1.07 0.97 0.86 0.73 0.64 0.53 0.48 0.47 0.42 0.36 0.32 0.32 0.33 0.34 0.37 0.38 0.40 0.45
0.16 0.31 0.61 0.79 1.04 1.22 0.95 0.43 0.36 0.66 1.15 0.81 0.77 0.76 0.90 0.95 1.10 1.21 1.09 1.09 1.17 1.22 1.21 1.18 1.13 1.05 0.98 0.86 0.70 0.62 0.59 0.52 0.43 0.38 0.33 0.30 0.30 0.31 0.33 0.36 0.38 0.34 0.38 0.44
0.43 0.51 0.68 0.87 1.10 1.12 0.56 0.29 0.41 1.01 1.18 0.82 0.84 0.89 0.91 0.97 1.01 0.90 0.86 0.99 1.09 1.12 1.12 1.05 0.99 0.92 0.82 0.71 0.60 0.55 0.51 0.46 0.31 0.23 0.23 0.26 0.28 0.29 0.28 0.34 0.38 0.36 0.36 0.40
0.69 0.76 0.86 0.93 1.13 1.20 0.49 0.35 0.65 0.84 0.62 0.66 0.74 0.75 0.78 0.71 0.68 0.74 0.81 0.95 1.05 1.08 1.06 0.97 0.88 0.76 0.62 0.51 0.50 0.49 0.41 0.30 0.21 0.20 0.23 0.25 0.25 0.21 0.21 0.31 0.35 0.35 0.40 0.38
0.76 0.86 0.91 1.01 1.13 0.83 0.45 0.37 0.37 0.43 0.51 0.54 0.60 0.60 0.63 0.64 0.63 0.68 0.79 0.90 0.99 0.95 0.87 0.77 0.65 0.57 0.47 0.40 0.42 0.42 0.32 0.22 0.18 0.23 0.27 0.25 0.22 0.22 0.21 0.26 0.29 0.30 0.37 0.36
0.91 0.79 0.80 0.88 0.90 0.65 0.47 0.34 0.31 0.32 0.37 0.40 0.47 0.57 0.63 0.65 0.67 0.70 0.73 0.76 0.79 0.78 0.69 0.58 0.50 0.48 0.43 0.35 0.31 0.29 0.22 0.20 0.24 0.30 0.29 0.26 0.27 0.27 0.22 0.22 0.20 0.21 0.24 0.26
0.75 0.83 0.98 1.03 0.97 0.79 0.62 0.43 0.37 0.36 0.39 0.44 0.52 0.56 0.55 0.55 0.61 0.63 0.63 0.61 0.58 0.55 0.53 0.46 0.43 0.41 0.35 0.28 0.23 0.19 0.18 0.20 0.28 0.28 0.23 0.21 0.22 0.22 0.23 0.18 0.13 0.11 0.11 0.10
0.45 0.66 0.98 1.11 0.91 0.83 0.78 0.64 0.55 0.57 0.63 0.57 0.51 0.49 0.50 0.47 0.46 0.43 0.39 0.37 0.35 0.34 0.35 0.33 0.32 0.28 0.24 0.20 0.18 0.15 0.14 0.15 0.22 0.24 0.20 0.17 0.15 0.15 0.13 0.15 0.13 0.07 0.06 0.06

GEFSCGP_prec_meanprecacc_174.txt.gz
Total_Precipitation_Accumulation
0.03 0.05 0.05 0.07 0.08 0.09 0.12 0.14 0.13 0.13 0.12 0.17 0.21 0.30 0.44 0.59 0.54 0.60 0.70 0.75 0.69 0.70 0.80 1.13 1.65 2.28 2.75 2.92 2.90 2.94 2.92 2.96 3.01 2.98 3.04 3.27 3.46 3.48 3.43 3.53 3.58 3.43 3.34 3.37
0.04 0.05 0.05 0.07 0.09 0.09 0.15 0.16 0.17 0.20 0.17 0.19 0.30 0.40 0.52 0.61 0.59 0.64 0.76 0.76 0.70 0.70 0.81 1.20 1.58 1.98 2.36 2.66 2.80 2.90 2.84 3.05 3.29 3.59 3.98 4.30 4.52 4.47 4.31 4.22 4.13 3.98 3.86 3.78
0.04 0.03 0.03 0.04 0.07 0.09 0.14 0.11 0.16 0.24 0.26 0.23 0.34 0.60 0.67 0.68 0.76 0.80 0.79 0.85 0.87 0.77 0.85 1.14 1.35 1.63 1.96 2.31 2.58 2.74 2.94 3.35 3.79 4.26 4.94 5.40 5.31 4.98 4.83 4.56 4.44 4.19 3.90 3.83
0.01 0.02 0.02 0.04 0.05 0.07 0.10 0.07 0.11 0.16 0.21 0.26 0.28 0.61 0.85 0.87 1.01 1.07 0.96 0.89 0.89 0.86 0.83 0.98 1.20 1.42 1.67 2.09 2.47 2.77 3.13 3.65 4.25 4.69 5.14 5.45 5.48 5.28 5.05 4.60 4.22 3.82 3.47 3.29
0.02 0.03 0.07 0.11 0.06 0.07 0.06 0.06 0.09 0.11 0.15 0.21 0.26 0.44 0.84 1.03 1.09 1.15 1.03 0.96 0.82 0.78 0.78 0.85 0.98 1.18 1.48 1.90 2.33 2.69 3.02 3.60 4.16 4.66 5.00 5.20 5.31 5.21 4.88 4.26 3.67 3.30 3.00 2.78
0.02 0.04 0.09 0.09 0.06 0.06 0.06 0.06 0.10 0.14 0.17 0.26 0.24 0.40 0.92 1.22 1.21 1.14 1.13 1.09 0.92 0.80 0.79 0.83 0.93 1.07 1.36 1.68 2.04 2.36 2.68 3.34 3.98 4.51 4.88 5.12 5.16 4.90 4.35 3.76 3.25 2.94 2.68 2.45
0.06 0.07 0.08 0.07 0.07 0.07 0.07 0.09 0.20 0.29 0.32 0.36 0.26 0.43 0.89 1.00 1.02 1.13 1.09 1.01 0.91 0.81 0.77 0.79 0.93 1.02 1.25 1.54 1.81 2.12 2.48 2.92 3.41 3.81 4.04 4.19 4.23 4.04 3.73 3.37 2.95 2.60 2.38 2.17
0.14 0.15 0.09 0.05 0.04 0.04 0.05 0.10 0.26 0.37 0.38 0.40 0.46 0.79 1.17 1.06 1.02 1.05 1.05 0.90 0.83 0.82 0.83 0.85 0.96 1.02 1.09 1.29 1.55 1.89 2.20 2.49 2.72 2.89 3.08 3.07 3.03 2.97 2.82 2.49 2.14 1.88 1.65 1.52
0.17 0.18 0.09 0.04 0.02 0.03 0.04 0.08 0.10 0.16 0.18 0.39 0.71 0.97 1.32 1.27 1.26 1.11 1.02 0.94 0.86 0.84 0.86 0.89 0.96 0.99 1.06 1.17 1.36 1.56 1.71 1.89 1.95 1.89 1.91 1.97 1.99 1.95 1.83 1.67 1.43 1.18 0.99 0.89
0.14 0.14 0.10 0.06 0.05 0.05 0.05 0.06 0.09 0.21 0.32 0.49 0.74 1.13 1.59 1.64 1.50 1.22 0.99 0.87 0.75 0.76 0.87 0.93 0.97 1.03 1.10 1.12 1.29 1.38 1.36 1.34 1.36 1.37 1.36 1.34 1.35 1.35 1.32 1.24 1.13 0.99 0.84 0.72
0.12 0.14 0.13 0.09 0.11 0.12 0.09 0.09 0.11 0.21 0.29 0.51 0.84 1.39 1.52 1.67 1.56 1.40 1.27 0.97 0.84 0.82 0.87 0.96 0.95 0.93 0.93 0.92 0.96 1.00 1.02 1.05 1.05 1.03 1.04 1.05 0.99 0.94 0.91 0.94 0.92 0.83 0.73 0.65
0.15 0.14 0.22 0.18 0.15 0.13 0.10 0.12 0.15 0.30 0.37 0.42 0.74 1.49 1.42 1.73 1.71 1.51 1.37 1.07 0.98 0.94 0.92 0.89 0.85 0.77 0.76 0.79 0.82 0.81 0.83 0.84 0.87 0.87 0.84 0.85 0.77 0.71 0.70 0.69 0.68 0.64 0.61 0.61
0.12 0.18 0.35 0.46 0.41 0.26 0.18 0.14 0.16 0.20 0.30 0.41 0.74 1.53 1.57 1.62 1.66 1.39 1.20 1.14 1.15 1.15 1.10 0.98 0.87 0.77 0.73 0.73 0.75 0.70 0.68 0.66 0.63 0.64 0.65 0.70 0.68 0.63 0.63 0.58 0.57 0.60 0.58 0.55
0.10 0.26 0.51 0.85 0.77 0.42 0.30 0.21 0.18 0.22 0.39 0.50 0.72 1.19 1.41 1.46 1.39 1.30 1.22 1.20 1.26 1.25 1.11 0.97 0.91 0.82 0.76 0.70 0.66 0.62 0.59 0.56 0.53 0.50 0.48 0.53 0.56 0.54 0.54 0.55 0.52 0.50 0.48 0.47
0.12 0.28 0.33 0.32 0.27 0.28 0.30 0.26 0.25 0.29 0.36 0.58 0.85 1.10 1.28 1.47 1.54 1.50 1.35 1.25 1.26 1.23 1.15 1.08 0.98 0.88 0.79 0.74 0.67 0.61 0.57 0.51 0.47 0.47 0.48 0.49 0.51 0.50 0.51 0.52 0.50 0.43 0.39 0.36
0.13 0.22 0.29 0.33 0.28 0.28 0.34 0.35 0.33 0.35 0.45 0.63 0.88 1.21 1.47 1.65 1.65 1.54 1.42 1.33 1.34 1.26 1.18 1.10 1.00 0.91 0.83 0.81 0.77 0.72 0.65 0.57 0.53 0.55 0.55 0.52 0.51 0.52 0.54 0.51 0.49 0.42 0.38 0.34
0.18 0.28 0.46 0.47 0.34 0.45 0.73 0.62 0.56 0.57 0.58 0.75 0.99 1.21 1.40 1.55 1.61 1.61 1.51 1.48 1.49 1.39 1.33 1.26 1.15 1.03 0.95 0.89 0.81 0.78 0.72 0.65 0.60 0.59 0.55 0.52 0.48 0.46 0.45 0.42 0.43 0.42 0.40 0.36
0.23 0.35 0.51 0.53 0.63 1.02 0.97 0.57 0.56 0.66 0.59 0.60 0.76 0.89 1.09 1.26 1.32 1.40 1.46 1.54 1.60 1.53 1.45 1.34 1.25 1.16 1.08 0.98 0.90 0.82 0.71 0.64 0.58 0.56 0.51 0.44 0.41 0.43 0.40 0.40 0.41 0.39 0.40 0.41
0.18 0.37 0.62 0.68 0.88 1.04 0.92 0.56 0.48 0.71 0.87 0.65 0.65 0.72 0.84 0.87 1.03 1.32 1.33 1.32 1.45 1.47 1.41 1.33 1.24 1.18 1.09 0.98 0.88 0.76 0.66 0.56 0.50 0.49 0.44 0.38 0.34 0.33 0.34 0.35 0.38 0.39 0.42 0.46
0.16 0.31 0.62 0.80 1.06 1.23 0.95 0.43 0.36 0.67 1.17 0.82 0.78 0.77 0.91 0.96 1.11 1.22 1.10 1.10 1.18 1.23 1.23 1.20 1.16 1.08 1.00 0.88 0.74 0.67 0.64 0.56 0.46 0.40 0.35 0.32 0.31 0.32 0.34 0.37 0.39 0.35 0.38 0.45
0.44 0.52 0.69 0.88 1.11 1.13 0.56 0.29 0.42 1.02 1.20 0.83 0.85 0.91 0.93 0.98 1.02 0.91 0.87 1.01 1.11 1.13 1.13 1.07 1.01 0.95 0.85 0.73 0.63 0.59 0.55 0.49 0.34 0.25 0.24 0.27 0.29 0.30 0.29 0.36 0.39 0.38 0.37 0.41
0.71 0.77 0.86 0.94 1.15 1.21 0.49 0.35 0.66 0.85 0.62 0.67 0.75 0.76 0.79 0.73 0.69 0.75 0.82 0.98 1.07 1.09 1.07 0.98 0.90 0.78 0.64 0.53 0.53 0.53 0.44 0.32 0.22 0.21 0.23 0.26 0.26 0.21 0.21 0.33 0.36 0.36 0.41 0.39
0.78 0.87 0.92 1.02 1.14 0.84 0.45 0.37 0.38 0.43 0.51 0.54 0.61 0.61 0.64 0.66 0.65 0.69 0.80 0.92 1.01 0.97 0.89 0.78 0.68 0.59 0.49 0.44 0.46 0.44 0.34 0.23 0.19 0.24 0.28 0.26 0.23 0.22 0.22 0.27 0.29 0.30 0.37 0.37
0.93 0.82 0.81 0.89 0.90 0.66 0.47 0.35 0.32 0.32 0.37 0.40 0.47 0.57 0.64 0.67 0.69 0.71 0.74 0.78 0.82 0.80 0.70 0.60 0.52 0.50 0.46 0.40 0.36 0.32 0.24 0.22 0.25 0.31 0.30 0.27 0.28 0.28 0.23 0.22 0.20 0.21 0.25 0.26
0.76 0.85 0.99 1.04 0.97 0.79 0.62 0.43 0.38 0.37 0.40 0.45 0.53 0.57 0.57 0.57 0.63 0.65 0.65 0.63 0.61 0.58 0.54 0.47 0.45 0.43 0.38 0.32 0.27 0.23 0.21 0.22 0.29 0.30 0.24 0.22 0.23 0.23 0.23 0.18 0.13 0.11 0.11 0.10
0.46 0.68 1.01 1.13 0.92 0.84 0.79 0.65 0.56 0.58 0.64 0.59 0.53 0.52 0.52 0.48 0.47 0.44 0.42 0.40 0.39 0.37 0.37 0.35 0.33 0.30 0.27 0.23 0.20 0.18 0.17 0.17 0.24 0.26 0.22 0.18 0.16 0.15 0.14 0.15 0.13 0.07 0.06 0.06

GEFSCGP_prec_meanprecacc_180.txt.gz
Total_Precipitation_Accumulation
0.03 0.05 0.06 0.08 0.08 0.10 0.13 0.16 0.17 0.17 0.15 0.19 0.24 0.33 0.47 0.62 0.58 0.64 0.75 0.83 0.79 0.77 0.85 1.17 1.69 2.36 2.82 2.98 2.96 3.00 2.97 3.00 3.05 3.02 3.07 3.31 3.50 3.53 3.48 3.57 3.61 3.46 3.36 3.40
0.04 0.05 0.06 0.07 0.10 0.11 0.17 0.18 0.19 0.21 0.18 0.20 0.30 0.41 0.53 0.63 0.61 0.67 0.79 0.81 0.77 0.77 0.87 1.24 1.65 2.07 2.44 2.74 2.87 2.96 2.90 3.09 3.32 3.63 4.02 4.34 4.57 4.53 4.37 4.28 4.20 4.04 3.92 3.84
0.04 0.03 0.03 0.04 0.08 0.10 0.15 0.13 0.17 0.25 0.27 0.24 0.35 0.62 0.69 0.70 0.79 0.85 0.87 0.93 0.95 0.84 0.92 1.20 1.45 1.72 2.03 2.38 2.63 2.79 3.00 3.40 3.83 4.30 4.98 5.44 5.35 5.03 4.88 4.62 4.51 4.27 3.97 3.88
0.02 0.02 0.02 0.04 0.06 0.08 0.12 0.09 0.12 0.18 0.23 0.27 0.29 0.64 0.87 0.89 1.06 1.14 1.02 0.96 0.98 0.94 0.96 1.09 1.29 1.52 1.74 2.14 2.54 2.85 3.21 3.72 4.32 4.75 5.19 5.50 5.53 5.32 5.10 4.67 4.31 3.92 3.55 3.32
0.03 0.03 0.08 0.12 0.07 0.07 0.08 0.08 0.10 0.13 0.17 0.23 0.28 0.48 0.89 1.08 1.15 1.24 1.11 1.04 0.90 0.82 0.85 0.96 1.08 1.27 1.57 1.96 2.41 2.77 3.11 3.69 4.24 4.75 5.09 5.28 5.38 5.28 4.96 4.33 3.75 3.37 3.05 2.81
0.03 0.05 0.09 0.09 0.06 0.07 0.08 0.08 0.11 0.15 0.19 0.29 0.27 0.45 0.98 1.28 1.27 1.20 1.20 1.17 0.98 0.84 0.82 0.86 0.98 1.12 1.43 1.76 2.17 2.47 2.77 3.46 4.11 4.67 5.05 5.26 5.27 5.00 4.43 3.82 3.30 2.97 2.72 2.49
0.09 0.08 0.09 0.07 0.07 0.07 0.09 0.12 0.26 0.33 0.37 0.39 0.29 0.47 0.95 1.05 1.05 1.14 1.11 1.05 0.96 0.85 0.79 0.81 0.96 1.04 1.28 1.59 1.87 2.19 2.55 3.02 3.53 3.97 4.23 4.38 4.38 4.16 3.84 3.47 3.04 2.68 2.46 2.24
0.18 0.17 0.10 0.06 0.05 0.05 0.07 0.13 0.32 0.44 0.45 0.44 0.49 0.84 1.22 1.08 1.03 1.06 1.06 0.93 0.87 0.85 0.85 0.87 0.98 1.04 1.11 1.31 1.58 1.93 2.26 2.57 2.81 3.00 3.21 3.20 3.15 3.09 2.94 2.62 2.28 2.01 1.75 1.59
0.20 0.19 0.09 0.04 0.03 0.03 0.06 0.10 0.13 0.22 0.26 0.48 0.76 1.01 1.36 1.29 1.28 1.13 1.03 0.96 0.89 0.87 0.87 0.90 0.98 0.99 1.07 1.19 1.39 1.60 1.75 1.94 2.00 1.97 1.99 2.05 2.09 2.08 1.97 1.81 1.55 1.27 1.06 0.94
0.15 0.14 0.10 0.07 0.05 0.05 0.06 0.08 0.12 0.27 0.40 0.57 0.79 1.21 1.66 1.69 1.53 1.24 1.00 0.88 0.77 0.79 0.88 0.94 0.99 1.05 1.12 1.15 1.32 1.43 1.41 1.39 1.41 1.43 1.42 1.41 1.44 1.46 1.45 1.35 1.21 1.06 0.90 0.76
0.13 0.15 0.13 0.10 0.12 0.13 0.10 0.11 0.14 0.25 0.33 0.57 0.92 1.50 1.60 1.73 1.59 1.42 1.29 0.97 0.85 0.85 0.89 0.99 0.98 0.95 0.96 0.95 0.99 1.03 1.06 1.10 1.09 1.07 1.09 1.10 1.07 1.03 1.00 1.03 1.00 0.90 0.78 0.68
0.16 0.15 0.23 0.19 0.16 0.14 0.12 0.12 0.17 0.34 0.41 0.46 0.80 1.56 1.47 1.77 1.74 1.53 1.38 1.08 0.99 0.96 0.95 0.93 0.88 0.81 0.79 0.82 0.85 0.84 0.85 0.87 0.90 0.91 0.88 0.90 0.83 0.77 0.76 0.76 0.75 0.69 0.66 0.64
0.13 0.20 0.38 0.49 0.44 0.27 0.19 0.15 0.17 0.21 0.32 0.44 0.79 1.59 1.60 1.65 1.68 1.41 1.22 1.15 1.16 1.16 1.12 1.01 0.91 0.81 0.76 0.76 0.77 0.72 0.70 0.68 0.65 0.67 0.69 0.74 0.72 0.68 0.69 0.64 0.61 0.63 0.62 0.59
0.11 0.29 0.55 0.90 0.81 0.44 0.32 0.22 0.19 0.24 0.42 0.52 0.75 1.24 1.47 1.51 1.43 1.32 1.24 1.21 1.27 1.26 1.13 1.00 0.94 0.85 0.80 0.74 0.68 0.65 0.61 0.58 0.55 0.52 0.51 0.57 0.60 0.58 0.58 0.59 0.55 0.52 0.51 0.51
0.14 0.31 0.38 0.34 0.28 0.29 0.31 0.27 0.26 0.31 0.38 0.60 0.87 1.14 1.36 1.56 1.58 1.53 1.38 1.27 1.27 1.23 1.17 1.11 1.02 0.92 0.82 0.78 0.70 0.63 0.59 0.53 0.49 0.50 0.52 0.53 0.55 0.52 0.54 0.55 0.53 0.46 0.41 0.38
0.16 0.24 0.32 0.34 0.29 0.29 0.35 0.35 0.34 0.36 0.46 0.64 0.89 1.24 1.50 1.68 1.67 1.55 1.43 1.34 1.34 1.26 1.19 1.12 1.03 0.95 0.87 0.84 0.80 0.73 0.67 0.59 0.55 0.58 0.59 0.56 0.55 0.54 0.56 0.54 0.51 0.44 0.40 0.37
0.20 0.31 0.50 0.50 0.35 0.46 0.75 0.63 0.57 0.57 0.59 0.76 1.01 1.24 1.43 1.57 1.63 1.62 1.52 1.49 1.49 1.39 1.34 1.28 1.17 1.06 0.99 0.92 0.84 0.80 0.74 0.67 0.63 0.63 0.60 0.56 0.50 0.48 0.47 0.43 0.45 0.44 0.42 0.38
0.26 0.40 0.57 0.57 0.66 1.06 0.99 0.58 0.57 0.67 0.60 0.61 0.78 0.91 1.10 1.28 1.35 1.41 1.48 1.55 1.61 1.55 1.48 1.37 1.28 1.20 1.13 1.03 0.94 0.85 0.75 0.67 0.62 0.59 0.54 0.46 0.43 0.44 0.43 0.43 0.44 0.41 0.43 0.44
0.19 0.40 0.67 0.71 0.92 1.07 0.93 0.56 0.48 0.73 0.90 0.66 0.66 0.74 0.86 0.88 1.04 1.33 1.34 1.33 1.45 1.47 1.43 1.35 1.26 1.22 1.15 1.04 0.94 0.82 0.72 0.59 0.53 0.51 0.46 0.39 0.35 0.35 0.37 0.38 0.41 0.41 0.44 0.47
0.17 0.33 0.65 0.83 1.11 1.28 0.99 0.45 0.37 0.68 1.20 0.84 0.78 0.79 0.93 0.97 1.14 1.24 1.10 1.10 1.18 1.24 1.24 1.22 1.19 1.14 1.07 0.94 0.81 0.73 0.69 0.60 0.48 0.42 0.37 0.33 0.32 0.34 0.38 0.40 0.41 0.38 0.41 0.47
0.47 0.54 0.72 0.91 1.16 1.16 0.58 0.30 0.43 1.05 1.24 0.85 0.87 0.92 0.95 1.01 1.04 0.92 0.88 1.02 1.13 1.15 1.15 1.09 1.03 0.99 0.91 0.80 0.70 0.65 0.61 0.54 0.37 0.28 0.26 0.29 0.31 0.32 0.32 0.40 0.43 0.41 0.40 0.43
0.73 0.81 0.90 0.99 1.20 1.25 0.51 0.38 0.69 0.90 0.65 0.69 0.76 0.78 0.81 0.74 0.71 0.76 0.83 0.99 1.08 1.11 1.09 1.00 0.92 0.81 0.70 0.60 0.58 0.56 0.47 0.35 0.25 0.23 0.26 0.28 0.28 0.23 0.24 0.37 0.41 0.41 0.46 0.43
0.79 0.90 0.95 1.05 1.18 0.86 0.47 0.40 0.42 0.48 0.53 0.55 0.62 0.64 0.65 0.67 0.66 0.70 0.82 0.93 1.03 1.00 0.91 0.80 0.70 0.61 0.52 0.48 0.48 0.47 0.37 0.26 0.21 0.26 0.30 0.29 0.25 0.24 0.24 0.30 0.33 0.35 0.42 0.41
0.94 0.83 0.83 0.91 0.92 0.67 0.47 0.36 0.35 0.38 0.42 0.44 0.50 0.60 0.65 0.69 0.71 0.73 0.77 0.81 0.85 0.83 0.73 0.62 0.55 0.53 0.49 0.42 0.39 0.34 0.26 0.24 0.27 0.33 0.32 0.29 0.30 0.30 0.24 0.24 0.22 0.23 0.26 0.27
0.79 0.87 1.01 1.06 0.99 0.81 0.63 0.45 0.40 0.41 0.46 0.51 0.57 0.60 0.59 0.58 0.64 0.67 0.69 0.66 0.64 0.61 0.57 0.50 0.48 0.46 0.41 0.35 0.31 0.26 0.23 0.24 0.31 0.31 0.26 0.24 0.24 0.24 0.25 0.19 0.13 0.11 0.11 0.10
0.49 0.71 1.04 1.16 0.94 0.86 0.80 0.66 0.57 0.60 0.67 0.62 0.56 0.54 0.54 0.50 0.49 0.46 0.44 0.43 0.42 0.40 0.40 0.37 0.35 0.33 0.30 0.27 0.24 0.22 0.20 0.19 0.25 0.28 0.24 0.21 0.18 0.16 0.15 0.15 0.13 0.08 0.06 0.06